GFSFLT1_sfc_wetblb_003.txt.gz
Wetbulb
64.90 63.98 63.24 63.68 63.33 62.97 62.48 62.79 62.96 62.87 63.10 63.72 63.60 62.07 62.21 62.86 57.07 60.48 62.04 59.74 64.50 64.19 63.47 63.10 63.02 62.54 61.86 62.63 61.91 61.53 61.08 61.05 61.27
65.42 64.58 64.11 64.24 63.89 63.26 62.66 62.53 62.82 63.22 62.94 63.93 63.70 62.55 61.96 58.74 55.17 59.36 59.34 60.26 64.02 63.50 62.96 62.53 61.75 61.85 60.77 61.41 61.29 60.84 60.01 59.52 59.72
65.94 64.64 65.27 65.06 65.10 64.34 63.09 62.58 62.91 63.66 63.14 63.15 63.57 62.24 62.22 58.90 55.01 58.44 59.02 63.45 63.93 63.05 62.24 61.84 61.87 61.26 60.71 60.17 60.41 60.17 59.53 58.90 58.75
65.67 65.53 66.10 65.59 65.58 63.93 62.99 62.03 62.39 63.73 63.82 63.27 63.44 62.21 62.28 57.80 54.97 59.01 58.43 64.92 63.73 62.79 61.40 61.31 61.32 61.27 60.57 59.29 58.76 58.87 59.04 58.75 58.19
66.97 66.98 66.85 66.15 65.08 63.89 62.78 61.31 61.05 62.07 63.53 63.85 63.04 63.34 62.58 56.21 53.09 56.92 58.08 63.83 63.61 62.83 61.26 60.59 60.55 60.68 60.03 59.68 59.51 58.74 58.48 58.41 58.42
64.62 64.92 66.05 66.14 64.76 63.79 62.31 60.68 61.20 63.28 63.81 63.76 63.53 63.08 57.83 54.02 51.98 55.69 63.40 64.26 63.62 62.99 62.14 60.77 60.17 60.23 59.82 59.54 59.76 60.12 60.15 59.80 59.39
63.25 63.38 65.57 65.38 64.79 64.27 62.70 61.20 61.77 62.10 55.11 55.49 61.91 57.70 56.27 52.96 52.10 55.63 64.74 64.67 63.77 63.42 62.32 61.45 60.62 60.39 60.61 60.71 60.66 60.77 60.90 61.10 60.83
61.02 60.85 61.92 60.93 62.24 60.50 60.65 58.09 56.41 54.98 53.44 51.24 52.10 56.03 54.06 51.27 50.38 56.57 65.92 65.20 64.80 64.21 63.98 63.37 62.56 61.91 61.70 61.70 61.78 61.84 61.82 61.70 61.68
58.07 59.90 59.35 58.93 59.60 59.42 58.13 56.43 55.48 54.62 52.51 51.13 52.33 54.24 52.75 50.50 49.48 50.44 65.18 65.69 65.27 64.81 64.87 65.00 64.67 64.03 63.06 62.78 62.59 62.54 62.60 62.46 62.32
56.94 57.50 57.37 58.46 57.80 58.77 56.67 56.53 54.75 53.87 51.93 51.02 50.28 49.83 49.93 50.10 49.20 46.99 61.79 64.89 65.60 64.58 64.59 64.82 65.18 65.21 64.81 63.70 63.06 63.02 63.12 63.16 62.97
56.49 56.14 56.90 56.70 56.96 56.70 56.23 55.26 54.92 52.67 52.25 51.26 50.66 49.93 49.06 48.23 48.08 48.10 48.36 63.27 64.59 64.63 63.84 64.30 64.50 64.66 64.83 64.80 64.01 64.65 64.05 63.55 63.50
57.92 56.71 56.22 56.81 56.21 55.37 55.03 54.81 53.69 52.42 52.78 52.50 53.47 51.85 49.89 49.40 48.87 48.22 48.20 50.88 61.71 63.47 62.40 62.94 63.02 63.75 64.08 64.44 64.33 65.54 65.32 65.26 65.18
58.06 58.04 57.19 56.49 56.51 56.54 55.71 55.71 54.92 53.95 53.38 52.53 53.10 53.44 50.95 49.39 49.08 49.53 49.74 49.53 51.55 58.39 62.62 62.76 63.92 64.47 63.31 63.81 64.05 65.07 65.29 65.10 64.98
59.25 59.10 58.83 55.69 56.06 56.83 56.89 56.03 55.90 55.14 55.07 54.78 54.31 54.04 53.82 53.44 53.90 50.78 50.05 50.10 51.06 50.69 55.87 60.50 60.90 62.09 63.72 62.76 63.55 64.36 65.26 64.90 64.92
59.10 59.47 58.97 56.78 56.26 56.51 55.76 56.42 55.30 56.41 56.26 56.51 56.58 54.65 55.09 54.78 54.23 54.48 53.32 52.31 50.89 50.52 50.59 51.62 56.10 59.89 61.87 62.80 62.33 62.92 64.52 64.76 64.94
58.55 59.45 58.43 58.13 58.02 57.35 56.73 57.07 55.93 56.35 54.26 53.43 54.76 54.40 54.53 54.16 54.90 55.27 54.72 54.69 53.53 52.11 51.54 50.77 51.05 53.11 59.95 61.24 62.43 62.91 62.99 64.22 64.48
59.74 59.64 59.58 59.29 59.29 58.69 57.09 56.76 56.70 56.97 55.64 54.79 50.83 52.02 52.96 54.79 56.60 56.18 54.16 53.95 54.68 54.29 53.33 52.96 52.21 51.65 51.54 54.00 59.66 61.30 61.77 61.93 62.61
61.86 61.84 60.65 60.22 59.82 59.64 59.45 58.06 57.02 56.28 55.88 56.44 55.18 51.14 49.27 47.72 50.66 53.97 56.10 55.97 55.72 55.35 55.38 54.55 52.87 52.25 51.90 53.46 54.93 57.86 60.17 61.15 62.21
62.69 62.65 62.16 61.01 60.92 60.46 60.59 60.97 59.35 58.24 57.11 56.51 57.36 57.19 51.70 48.55 48.12 49.94 50.24 52.51 54.20 54.71 54.71 54.65 53.15 52.23 51.57 52.83 53.87 55.44 58.09 60.16 61.55
61.90 62.32 62.22 61.70 61.86 61.70 62.23 62.41 62.03 61.08 59.12 58.48 57.90 56.16 56.56 55.75 53.30 51.82 53.41 50.57 51.01 52.08 52.69 53.63 52.76 52.58 52.53 52.23 53.39 56.50 58.53 60.28 61.79

GFSFLT1_sfc_wetblb_009.txt.gz
Wetbulb
65.89 64.43 64.03 63.90 63.59 63.28 63.43 64.16 63.64 63.50 63.71 63.91 63.89 63.55 61.94 60.40 54.54 59.07 61.06 59.33 63.27 63.93 63.03 63.03 62.75 62.79 62.65 61.64 60.88 60.99 60.44 60.66 60.74
65.16 64.44 63.90 64.19 63.89 63.93 63.15 63.35 64.25 63.96 63.48 63.83 64.55 64.14 62.91 56.44 53.60 57.22 58.21 57.61 64.99 64.17 63.33 63.20 62.68 61.72 61.60 61.83 60.94 60.49 60.37 60.43 60.24
65.47 65.55 64.82 64.55 64.75 64.46 63.97 63.38 63.36 64.13 64.19 64.03 64.28 64.82 64.25 58.72 53.56 55.53 57.58 60.67 65.10 65.04 64.42 63.69 62.97 62.43 61.45 62.21 61.59 60.91 60.42 59.96 59.83
65.92 65.84 65.34 65.64 65.60 65.85 65.41 64.58 63.70 63.46 63.93 64.33 63.77 65.03 64.81 57.79 54.46 55.20 57.21 61.40 65.08 64.72 64.08 63.53 63.72 63.03 62.31 61.62 61.83 61.47 60.92 60.44 60.08
66.42 66.96 66.14 66.06 66.32 66.18 65.81 65.08 64.42 63.42 63.31 64.01 64.57 64.43 64.56 58.61 54.86 53.29 55.01 63.06 65.68 65.01 64.71 63.89 63.62 63.68 63.10 61.94 61.37 61.44 61.39 61.22 60.65
62.51 64.56 65.41 65.68 66.36 66.62 66.05 65.36 64.65 64.04 63.41 63.93 64.53 64.46 59.33 56.84 54.30 52.05 57.28 62.75 65.63 65.34 65.05 64.28 63.59 63.75 63.44 62.95 62.08 61.58 61.36 61.27 61.39
61.68 62.54 65.18 65.41 65.73 65.97 65.77 65.46 64.96 63.80 56.65 56.72 61.51 59.74 57.66 55.59 54.66 52.67 58.33 61.68 65.28 65.82 65.16 64.89 63.81 63.27 63.25 63.08 62.55 62.38 62.41 62.22 62.01
58.79 58.83 59.58 60.95 62.14 61.44 62.59 60.85 59.52 56.18 54.76 54.53 53.33 53.57 53.88 54.66 54.49 55.25 59.17 61.25 64.24 66.04 66.11 65.68 64.86 63.87 63.12 63.12 62.97 62.55 62.34 62.57 62.69
56.92 57.42 57.84 58.18 59.27 58.77 57.92 57.25 56.78 55.45 53.99 52.53 51.92 50.56 50.01 52.02 53.60 53.03 58.00 59.88 62.64 64.45 66.04 66.61 66.25 64.75 64.11 63.43 63.16 63.12 63.04 63.01 62.93
56.73 56.65 56.85 57.51 57.89 57.47 56.90 56.40 56.39 55.21 54.30 53.55 52.11 52.05 50.42 50.07 51.81 51.84 55.13 58.21 59.96 62.40 64.90 66.63 66.71 65.99 65.34 64.76 64.13 64.69 63.76 63.53 63.51
57.14 56.50 56.55 57.24 57.27 57.26 57.27 57.15 56.51 56.13 54.91 54.88 53.30 52.00 50.95 50.19 51.39 52.51 52.21 57.01 58.98 60.40 62.62 65.05 66.12 66.60 66.63 66.35 66.93 66.58 66.18 65.55 65.38
58.52 56.93 55.80 56.50 56.48 56.54 56.46 55.79 55.24 54.41 54.18 53.71 53.81 52.38 51.14 50.80 50.08 50.10 49.88 51.06 56.44 59.18 61.69 62.66 65.00 66.60 66.29 66.56 67.76 67.52 67.10 66.81 66.27
57.12 57.72 57.13 56.29 54.93 55.11 54.68 54.73 53.99 53.65 53.75 53.70 53.48 53.15 53.21 52.55 51.25 51.09 50.83 50.26 49.76 53.33 57.56 61.38 63.82 65.37 66.15 64.62 66.52 67.08 66.73 66.17 65.99
57.44 57.26 57.72 56.22 55.58 54.61 54.92 54.83 53.45 54.28 53.85 53.08 54.04 53.77 53.03 53.73 54.16 53.57 53.02 51.81 51.69 50.91 53.74 56.66 59.11 61.77 63.81 64.11 64.56 65.69 65.38 65.21 65.76
57.20 57.69 57.44 56.49 56.25 55.81 54.38 54.70 54.83 54.40 55.30 55.09 55.18 55.41 55.50 55.05 55.12 55.10 55.22 54.18 52.64 52.03 51.89 52.21 52.87 56.89 59.95 62.57 63.60 64.92 64.98 64.59 64.68
56.20 57.16 57.27 57.04 56.55 57.15 57.12 55.32 54.50 54.61 54.29 53.91 55.07 55.94 55.89 55.49 56.00 56.35 56.26 55.82 55.42 54.59 52.09 51.81 51.95 52.53 57.61 59.27 60.90 63.45 64.82 64.88 64.65
57.76 57.11 57.72 57.72 56.98 56.69 56.70 56.14 55.45 55.27 55.29 54.38 54.30 52.61 54.49 54.44 55.32 55.90 55.72 55.72 56.20 55.46 54.93 53.62 52.32 52.16 52.45 52.72 57.23 59.98 61.88 63.05 65.02
59.88 59.49 59.08 58.75 57.51 57.33 57.86 56.94 55.99 55.57 57.34 56.32 54.86 52.17 50.94 51.64 52.32 52.26 54.79 55.16 55.11 55.14 55.14 54.76 53.66 52.84 52.79 53.47 54.04 56.28 58.13 60.28 62.65
55.45 56.52 57.74 58.76 59.66 58.38 58.48 59.49 58.97 57.84 56.27 57.88 57.47 56.92 56.77 53.74 53.39 55.28 52.96 53.82 54.21 54.90 54.96 54.67 54.32 54.09 53.65 54.49 54.74 55.45 56.90 58.83 61.21
51.13 50.58 51.23 52.08 54.37 56.61 58.37 59.34 60.10 60.28 58.87 58.37 58.50 58.13 56.51 56.24 54.11 52.22 54.64 57.09 55.19 55.28 54.89 55.56 55.36 55.62 55.30 54.60 54.78 56.55 58.08 59.96 61.46

GFSFLT1_sfc_wetblb_012.txt.gz
Wetbulb
66.53 64.63 64.00 63.92 63.78 63.77 63.52 64.89 64.25 64.39 64.29 64.13 64.66 63.96 62.23 61.38 54.55 56.82 60.30 60.96 63.92 64.82 63.98 64.32 64.46 63.76 63.97 62.72 61.54 62.05 62.03 61.63 62.13
66.35 64.99 64.16 64.15 64.11 64.02 63.90 63.65 64.50 64.49 64.24 64.10 64.23 64.53 64.41 57.04 53.74 54.50 58.49 58.99 64.58 65.00 64.35 63.80 63.51 62.82 62.49 62.69 61.88 61.81 61.45 61.52 61.43
65.68 65.43 65.09 64.59 64.62 64.67 64.65 64.23 63.66 63.75 64.65 64.48 64.13 64.43 65.15 59.49 54.16 53.53 56.84 60.33 64.48 65.80 65.16 64.29 63.96 63.48 62.67 62.95 62.54 61.83 61.51 61.41 61.19
66.02 65.94 65.87 65.48 65.37 65.68 65.94 65.60 65.09 64.24 63.92 64.01 64.33 64.79 64.74 58.97 55.62 54.51 55.13 61.38 64.99 66.30 65.46 65.06 64.65 64.03 63.34 62.56 63.09 62.54 61.88 61.51 61.08
66.54 66.83 66.83 65.82 65.78 66.49 66.35 66.28 65.76 65.27 64.38 63.77 64.18 64.81 64.51 59.85 57.13 54.71 53.20 61.83 65.30 66.14 65.65 65.37 64.82 64.46 64.27 63.60 62.72 62.86 62.57 62.20 61.78
61.67 63.18 65.40 66.01 65.74 65.93 66.63 66.72 65.97 65.72 64.91 63.73 63.78 64.11 59.51 57.61 56.73 54.84 58.01 61.20 64.97 65.97 66.28 65.70 65.46 64.64 64.37 64.19 63.63 62.78 62.72 62.73 62.68
60.90 61.44 63.89 65.17 65.73 65.67 65.61 65.69 66.05 64.80 58.43 55.97 58.86 57.03 57.19 56.76 55.90 55.21 60.77 62.19 63.30 65.15 65.76 65.94 65.86 65.31 64.41 64.35 64.29 63.88 63.22 62.85 62.64
58.06 57.76 57.83 58.20 60.85 60.09 61.35 60.65 59.52 58.02 56.40 54.88 53.71 53.66 52.71 53.76 55.28 56.95 60.99 62.60 63.11 63.93 64.78 65.57 66.65 65.92 65.39 64.39 64.19 64.19 63.74 63.49 63.33
56.68 56.34 56.57 56.54 57.49 57.72 58.02 57.75 57.54 56.64 55.94 54.34 52.94 52.11 51.22 51.36 51.94 53.24 58.30 60.70 62.47 62.76 63.66 64.91 66.39 67.22 66.61 65.87 64.80 64.94 64.78 63.71 63.35
56.74 56.35 55.97 56.19 56.84 56.92 56.97 56.87 57.30 56.69 55.99 55.44 53.88 53.96 52.66 51.31 51.29 51.16 55.00 57.66 59.72 61.72 62.57 63.38 64.96 65.71 67.42 67.47 66.90 66.23 65.91 65.30 65.32
57.20 56.45 56.20 55.90 56.71 57.35 57.37 57.39 57.28 56.88 55.71 55.79 54.55 54.58 54.02 53.04 51.70 51.36 51.19 56.40 58.49 60.61 62.39 63.32 63.04 64.43 65.90 68.19 67.80 67.27 66.85 66.37 66.02
58.07 56.74 56.24 56.87 56.48 56.75 56.63 56.42 56.23 55.94 55.77 55.04 55.50 54.95 53.75 53.24 52.42 51.51 51.80 52.59 57.08 58.83 61.60 62.50 62.98 63.05 63.62 64.90 67.67 67.69 66.94 66.40 66.30
57.08 57.38 57.59 57.59 55.48 55.50 55.07 55.29 54.61 54.14 54.33 54.45 54.69 54.39 54.18 53.74 52.91 52.77 52.49 52.21 51.76 54.12 57.86 60.33 62.06 63.39 63.28 63.92 65.21 66.62 66.44 66.33 66.22
57.28 57.34 57.74 56.65 55.37 54.41 54.66 54.92 53.41 54.77 54.82 53.46 53.98 54.05 53.49 53.46 54.57 53.63 53.08 52.81 53.26 52.65 54.33 57.16 58.97 61.00 63.11 63.47 63.95 65.64 65.44 65.15 65.43
56.41 56.68 56.67 56.22 55.27 55.27 54.25 54.63 56.46 55.28 55.73 55.86 56.16 56.56 56.19 54.96 54.26 54.64 55.26 54.80 54.26 53.11 52.83 53.37 53.99 57.28 59.63 61.61 63.21 65.20 65.65 65.01 64.72
55.61 55.64 55.83 55.91 55.29 56.21 57.23 57.23 55.02 55.22 55.01 53.97 54.96 55.64 55.81 55.54 55.72 56.04 55.59 55.51 55.67 54.93 53.71 53.46 53.39 53.34 58.08 59.38 60.58 62.40 64.05 65.37 65.15
58.22 57.12 56.70 56.65 56.08 56.04 55.63 55.74 56.38 56.71 56.71 54.30 54.89 52.64 54.54 54.71 55.83 55.90 55.63 55.47 56.19 55.93 55.49 54.76 52.82 52.78 52.77 53.46 58.03 60.19 61.45 63.03 63.93
51.35 52.00 53.09 54.38 56.18 56.51 56.80 57.17 57.21 56.09 57.30 57.44 54.95 52.48 52.22 55.41 56.41 53.07 54.57 54.94 55.20 55.50 55.72 55.50 54.97 53.88 52.84 54.18 54.92 56.96 58.91 60.97 62.97
49.35 49.12 48.88 48.95 50.93 49.83 51.89 52.97 55.60 55.98 55.14 57.28 58.22 57.47 56.21 52.89 51.89 56.62 54.46 54.07 54.16 55.05 55.33 55.23 55.22 55.06 54.40 54.55 54.57 55.30 57.14 59.55 62.20
48.28 47.84 47.19 47.10 47.86 47.70 47.80 48.21 48.76 49.58 51.28 51.46 52.85 53.60 53.61 53.93 52.24 49.21 51.59 55.11 56.68 56.31 55.45 55.62 55.88 55.86 55.55 54.91 54.75 56.47 58.18 60.26 62.23

GFSFLT1_sfc_wetblb_015.txt.gz
Wetbulb
66.92 65.43 64.19 63.72 63.85 63.95 63.81 64.00 64.97 64.64 64.62 65.03 65.13 64.68 64.00 62.14 62.35 61.76 64.03 65.27 64.92 66.17 65.64 65.46 65.87 65.93 65.88 65.00 63.42 62.84 63.21 62.55 63.09
66.73 65.55 64.37 64.00 64.11 64.00 64.01 63.99 63.81 64.76 64.81 64.81 64.83 64.69 65.02 63.34 62.30 61.13 62.67 64.66 66.00 66.51 65.58 65.05 64.94 64.74 64.20 64.25 63.32 62.71 62.62 62.25 62.52
66.51 65.92 65.04 64.82 64.62 64.73 64.53 64.83 64.54 64.02 64.05 64.62 64.44 64.88 63.81 63.04 63.24 61.39 60.57 63.24 65.66 65.47 66.22 65.50 64.97 64.64 64.23 63.53 63.79 62.98 62.73 62.48 62.43
65.62 65.78 65.95 66.01 65.68 65.06 65.59 66.30 65.94 65.59 64.98 64.59 64.35 65.08 64.90 63.39 63.87 62.60 60.70 60.15 64.71 66.20 66.42 66.44 65.97 65.52 64.81 64.24 63.63 63.82 63.09 62.71 62.49
66.32 67.00 66.20 66.23 65.91 65.82 66.46 66.38 66.61 66.24 65.92 65.21 65.12 64.85 64.79 63.50 63.56 63.26 62.60 61.26 62.99 66.09 66.41 66.78 66.21 65.90 65.31 64.99 64.31 63.70 63.96 63.48 62.99
64.55 64.16 64.58 65.29 65.89 65.77 65.70 66.30 66.60 66.57 65.85 64.81 64.35 63.59 61.84 61.88 62.27 62.98 62.47 63.31 63.69 64.17 66.07 66.30 66.76 66.42 65.93 65.20 65.08 64.59 63.87 63.94 63.76
63.42 62.58 63.02 64.26 64.87 65.49 65.67 65.61 65.78 65.77 64.94 64.29 62.19 62.48 61.57 60.52 60.50 61.14 62.37 64.26 64.99 64.15 64.41 65.56 66.22 66.55 67.18 65.85 65.20 65.17 64.97 64.21 63.87
63.54 63.24 63.35 63.37 61.79 63.07 63.21 63.47 63.66 63.78 63.75 63.39 62.79 62.01 61.37 60.31 59.78 59.95 61.11 62.89 64.42 64.83 64.00 64.38 65.18 65.83 66.77 67.07 66.10 65.24 65.18 65.06 64.46
62.70 62.52 62.75 62.40 62.66 62.33 62.56 62.27 62.57 62.60 62.70 62.80 62.20 61.71 61.09 60.28 59.47 59.42 58.82 60.58 61.88 62.89 64.07 64.00 63.81 64.88 66.16 67.18 67.81 67.26 66.59 66.38 66.16
62.83 62.66 62.38 62.27 62.20 61.92 61.86 61.85 61.60 61.56 61.71 61.86 61.45 60.91 60.75 60.43 59.79 59.45 58.01 58.62 60.97 61.87 62.18 63.17 63.76 63.69 64.69 66.81 68.04 67.92 67.68 67.02 66.36
62.05 62.14 61.94 61.83 61.99 62.04 61.67 61.51 61.38 61.31 61.39 60.90 61.16 60.39 60.60 60.34 60.12 59.81 59.57 58.14 59.64 61.60 63.06 63.12 63.37 64.21 64.41 64.95 67.12 67.54 68.17 67.57 67.17
62.41 62.09 61.69 61.81 61.83 61.43 61.26 60.97 60.58 60.14 60.40 59.85 60.08 60.19 60.25 60.03 59.80 59.73 59.24 59.20 58.23 59.11 62.28 63.67 64.11 63.93 64.35 64.82 65.72 66.53 67.09 67.74 67.34
61.96 61.38 61.48 61.95 61.34 60.65 60.26 60.01 59.32 58.80 58.01 57.94 58.68 58.57 59.67 59.81 59.88 59.83 59.73 59.15 58.71 58.97 59.09 61.09 63.23 64.14 64.74 65.01 65.08 66.20 65.79 65.62 66.61
61.13 61.03 61.14 61.08 60.43 59.97 59.48 59.36 58.84 58.43 58.77 58.33 58.28 59.35 59.08 59.54 59.25 59.29 59.44 59.22 58.71 59.25 59.14 58.25 59.38 61.53 62.97 64.83 65.55 66.59 66.05 65.43 65.50
59.94 60.14 60.23 60.33 59.94 60.02 59.91 58.83 59.56 58.82 58.66 57.64 57.63 59.66 60.37 60.64 59.90 59.34 59.57 59.72 59.40 59.04 58.70 58.91 58.52 58.04 59.00 61.38 63.70 64.99 66.57 66.06 65.58
59.13 58.84 58.36 58.84 58.77 58.81 59.15 58.60 57.94 58.30 59.67 56.09 55.92 57.58 59.68 60.22 60.51 60.99 60.34 59.92 59.84 60.02 59.82 59.57 58.94 58.67 58.84 59.32 60.82 62.50 63.94 65.31 66.03
52.47 52.62 52.78 53.27 53.79 53.77 54.13 55.00 54.25 55.53 57.62 55.72 55.38 53.15 55.52 59.01 59.09 60.44 60.10 60.23 60.70 60.25 60.09 60.03 59.69 59.24 58.97 58.39 59.05 60.09 61.77 63.49 64.19
50.67 50.73 50.63 50.87 51.45 50.62 51.37 51.76 51.29 49.92 51.84 53.77 53.06 49.84 49.40 51.74 55.23 57.93 58.96 59.53 59.78 59.86 59.96 59.92 60.09 59.99 59.69 58.44 58.00 57.38 58.47 61.08 63.44
48.99 49.23 49.33 49.42 49.81 49.25 49.64 49.93 49.82 49.13 47.88 50.19 51.68 51.88 51.88 46.91 46.66 51.34 54.23 55.87 56.53 58.07 58.72 59.02 59.57 59.65 60.08 58.78 57.12 57.12 58.17 59.86 62.24
47.04 47.36 47.68 47.51 47.84 48.29 48.40 47.99 47.98 48.41 47.77 47.92 48.08 48.50 49.29 50.23 47.92 45.60 47.94 51.59 52.85 54.68 56.43 57.73 58.56 59.43 59.94 60.22 59.48 58.06 58.37 60.33 62.21

GFSFLT1_sfc_wetblb_018.txt.gz
Wetbulb
67.16 65.71 64.29 63.63 63.83 63.84 63.89 63.59 64.40 64.98 64.94 65.10 65.57 65.68 64.65 63.71 64.84 62.98 63.42 65.34 65.45 65.53 66.28 65.94 65.91 66.48 66.55 66.30 65.72 64.69 64.05 64.21 63.69
67.07 66.26 64.56 63.72 63.85 64.13 64.01 64.13 64.27 64.02 64.63 65.10 65.11 65.04 65.33 63.66 64.39 63.92 62.60 64.21 65.69 66.91 66.87 66.41 65.65 65.46 65.83 65.29 65.24 64.24 63.44 63.65 63.01
66.78 66.10 64.64 64.49 64.84 64.44 64.83 64.99 65.34 65.01 64.57 64.42 64.46 64.25 65.20 62.63 63.21 64.45 63.37 63.26 64.66 66.71 66.92 66.25 65.98 65.46 65.22 64.92 64.53 64.57 63.76 63.55 63.24
65.78 65.34 65.70 65.97 66.23 65.69 65.63 66.32 66.49 66.48 66.13 65.65 65.03 65.40 64.97 63.55 63.53 63.43 63.90 64.02 63.25 65.34 66.70 66.47 67.24 66.62 66.00 65.51 65.14 64.44 64.49 63.91 63.54
65.44 66.47 65.97 65.75 66.30 65.96 65.89 65.98 66.83 67.04 66.80 66.10 65.78 65.36 64.64 63.31 63.17 63.59 63.61 63.85 64.04 64.47 65.17 66.68 66.79 67.12 66.69 66.09 65.63 65.13 64.54 64.72 64.11
66.06 65.37 64.35 64.63 65.06 65.47 65.54 65.73 66.04 66.56 66.23 66.36 65.55 64.46 64.00 63.22 62.41 62.12 63.93 63.73 64.98 64.98 64.82 65.41 66.52 66.67 67.22 67.56 65.92 65.67 65.52 64.79 64.77
65.42 63.84 63.21 64.25 64.75 65.08 65.37 65.42 65.44 65.72 65.52 65.55 64.69 64.78 64.40 63.70 62.81 62.01 63.78 62.82 64.60 65.03 64.91 64.69 65.26 66.19 66.90 67.56 67.05 66.25 65.76 65.68 64.91
66.04 65.64 65.24 65.41 63.26 64.73 65.02 65.09 64.88 64.78 65.08 65.05 65.13 64.99 64.75 64.22 63.72 63.40 63.52 62.58 64.24 64.03 64.27 64.89 64.65 65.02 65.80 66.47 67.12 67.92 67.46 66.54 66.42
64.94 64.62 64.92 65.00 65.19 64.83 65.03 64.78 64.85 64.82 64.77 64.81 64.58 64.73 64.67 64.43 64.21 64.00 62.78 62.06 63.52 64.51 63.95 63.51 64.58 64.83 64.88 65.69 66.99 67.68 67.89 67.69 67.05
65.06 64.95 65.16 65.11 65.21 64.97 64.86 64.86 64.80 64.80 65.00 65.03 64.70 64.43 64.60 64.68 64.52 64.50 62.01 62.11 61.98 63.65 64.79 64.75 63.96 63.89 64.81 64.97 66.39 67.16 67.94 68.09 67.76
65.66 65.37 65.27 65.21 65.38 65.29 65.04 64.78 64.62 64.50 64.84 64.68 64.92 64.74 64.82 64.70 64.56 64.71 64.77 62.87 61.98 62.37 64.43 65.52 65.55 65.25 64.69 64.51 66.07 66.14 67.05 67.85 68.15
65.93 65.52 65.36 65.51 65.62 64.96 65.02 64.92 64.85 64.43 64.53 64.29 64.49 64.49 64.55 64.46 64.45 64.67 64.74 64.55 61.84 61.80 62.98 64.85 65.74 65.79 66.10 65.94 65.79 66.52 66.29 66.58 67.23
65.48 64.99 65.01 65.45 64.99 64.76 64.37 64.31 63.84 63.73 63.47 63.07 63.55 63.41 63.56 63.52 63.84 64.11 64.26 64.21 63.84 63.42 62.39 62.29 63.13 64.87 66.17 66.91 66.92 67.31 66.52 66.13 66.05
64.45 64.58 64.71 64.87 64.51 64.14 63.39 62.73 62.36 61.51 61.62 60.35 61.26 61.72 61.45 62.73 63.54 63.65 63.48 63.57 63.42 63.55 62.30 61.69 61.41 61.62 62.37 64.78 66.33 67.04 67.22 66.44 66.10
63.53 62.37 60.90 61.14 60.93 60.32 59.90 59.46 60.25 60.01 59.72 58.50 59.23 59.98 60.73 61.61 61.88 62.68 63.00 63.63 63.51 63.48 63.34 63.21 62.61 60.37 60.75 61.79 63.13 64.48 65.35 66.34 66.11
56.37 56.37 55.94 55.95 55.84 55.26 55.17 55.34 54.52 54.77 56.32 53.88 54.57 55.80 57.86 60.11 59.69 61.60 62.20 61.43 61.81 62.37 63.19 63.36 63.70 63.06 62.08 61.99 61.87 62.58 63.73 64.38 65.36
53.75 53.80 53.66 53.80 53.57 53.52 53.28 53.34 52.14 52.67 53.48 50.89 50.74 49.00 51.65 55.00 55.77 55.25 55.01 56.96 58.05 59.21 61.21 61.77 61.98 62.61 63.03 62.35 61.81 61.90 62.22 63.47 64.33
52.22 52.18 52.17 52.17 52.33 51.38 51.53 51.23 50.56 48.70 50.56 51.48 49.16 46.63 45.98 48.75 51.29 52.38 53.21 54.21 55.42 55.40 56.43 57.69 58.63 59.00 59.96 60.95 60.95 60.00 60.74 61.80 63.13
49.22 49.42 49.41 49.38 49.50 48.91 48.76 48.52 48.50 48.04 46.42 48.27 49.23 49.86 48.48 44.21 43.85 49.56 50.74 52.43 52.25 52.84 54.18 54.38 55.21 56.20 57.59 58.55 58.13 58.73 59.84 61.51 62.57
46.49 46.58 46.66 46.49 46.32 46.43 46.14 45.88 45.77 46.72 45.56 45.25 45.85 46.74 47.36 47.40 45.12 43.09 44.45 47.39 48.56 49.97 51.30 52.95 53.70 54.83 56.01 56.43 56.90 57.57 57.47 59.19 60.52

GFSFLT1_sfc_wetblb_021.txt.gz
Wetbulb
67.19 66.15 65.08 63.76 63.91 64.16 63.99 63.88 63.96 64.53 65.28 65.20 65.41 65.79 65.91 64.90 63.82 64.10 63.60 62.55 65.15 65.01 65.48 66.42 66.16 66.26 66.91 67.01 66.69 66.18 65.49 64.76 64.60
67.46 66.34 64.77 64.00 63.87 64.20 64.51 64.21 64.52 64.54 64.08 64.29 64.76 65.07 65.93 63.56 62.62 62.70 64.46 63.06 64.44 66.03 66.63 66.56 66.67 66.24 65.95 66.31 65.99 65.86 65.19 64.04 64.07
66.99 66.93 65.08 64.62 65.07 65.07 64.87 65.77 65.98 65.83 65.34 65.27 64.93 64.98 65.34 62.50 62.42 62.93 63.97 65.73 63.63 64.87 66.15 67.06 66.36 66.71 66.05 65.78 65.62 65.21 65.30 64.60 64.30
65.69 65.79 65.72 65.93 66.35 66.44 65.66 65.99 67.01 67.05 66.87 66.55 66.28 66.30 65.69 63.41 62.79 62.66 63.48 65.83 65.02 64.56 65.02 66.33 66.78 67.32 67.41 66.33 65.87 65.67 65.21 65.19 64.71
65.88 66.18 66.54 65.74 65.66 66.04 66.13 65.90 65.84 66.57 67.00 67.32 67.24 66.48 65.53 63.33 62.74 63.12 63.32 66.32 64.88 64.97 64.80 65.38 66.32 67.01 67.02 67.73 66.91 66.30 65.83 65.27 65.33
66.36 66.07 65.50 64.20 64.70 65.13 65.47 65.59 65.84 66.51 66.37 66.47 66.40 65.89 64.06 63.54 63.49 62.70 64.59 65.12 64.82 65.30 65.25 65.24 65.68 66.26 67.15 68.11 68.08 67.47 66.28 66.06 65.48
65.84 64.45 64.23 64.71 65.11 65.32 65.52 65.53 65.78 65.55 63.91 65.37 65.40 64.46 64.85 64.53 64.18 63.91 65.34 64.08 64.27 64.65 65.04 65.08 65.25 65.49 66.05 67.37 68.03 67.56 67.51 66.56 66.44
65.48 65.51 65.39 65.44 63.46 64.49 65.14 65.25 64.80 64.90 64.59 64.60 64.69 64.85 64.87 64.73 64.81 64.91 65.92 64.99 64.72 65.02 65.16 64.78 64.67 65.47 65.47 65.68 66.42 68.09 68.40 68.51 67.96
64.73 64.53 64.91 65.13 65.03 64.75 65.36 64.71 64.83 64.81 64.99 65.02 64.69 64.75 64.84 65.17 65.20 65.24 64.72 65.75 65.14 65.52 65.74 65.97 65.37 64.73 65.28 65.68 66.00 67.21 67.88 68.30 68.37
65.29 65.07 65.19 65.40 65.54 64.96 64.88 65.05 65.09 65.21 65.40 65.52 65.22 65.11 65.09 65.38 65.40 65.64 63.56 64.87 65.54 65.30 65.74 66.18 66.75 66.39 65.58 65.19 66.70 66.94 67.18 67.69 67.99
66.16 65.93 65.84 65.72 65.97 65.94 65.50 65.08 65.04 64.96 65.07 64.81 64.92 64.84 65.25 65.27 65.14 65.41 65.45 64.49 65.15 65.65 65.99 66.31 66.55 67.42 67.43 66.90 66.87 66.64 67.08 67.06 67.33
66.33 65.91 65.77 66.07 66.28 65.69 65.44 64.94 64.59 64.01 63.78 63.03 63.29 64.35 64.00 63.94 63.77 64.07 64.51 65.06 63.46 64.94 66.35 66.27 66.07 66.02 67.28 67.74 67.64 67.90 66.91 66.63 66.63
65.80 65.42 65.18 65.40 64.73 64.48 63.44 62.78 62.28 61.80 61.54 61.60 61.91 62.14 62.23 62.10 62.11 62.88 63.86 64.24 64.13 64.07 65.16 65.75 65.55 65.33 65.42 66.24 67.21 67.52 67.46 67.08 66.53
65.29 64.33 62.96 62.43 62.55 61.66 60.57 59.37 59.14 58.84 58.84 58.96 59.31 59.72 60.00 60.26 60.47 60.95 61.91 62.84 63.78 63.73 63.32 62.89 63.62 64.39 64.42 65.10 65.41 65.62 66.52 66.64 66.56
59.37 58.28 57.15 57.21 57.17 56.27 56.06 55.44 55.77 55.09 55.03 54.02 54.24 55.49 56.66 57.74 57.65 60.11 60.76 61.83 61.38 60.03 61.34 62.56 62.68 61.94 63.79 64.66 65.09 65.07 64.76 64.87 65.99
55.40 55.25 54.84 54.93 54.23 54.06 53.76 53.75 53.27 53.10 54.04 51.80 52.15 53.05 53.53 55.19 55.24 54.84 54.11 54.35 55.55 56.51 56.92 57.74 59.91 60.47 62.86 63.57 64.72 64.56 64.72 64.51 64.22
53.22 52.79 52.76 52.50 52.29 52.12 51.44 51.17 49.91 50.41 51.13 48.17 47.96 46.09 48.42 52.70 51.11 50.75 51.97 52.53 53.41 54.57 54.74 55.20 55.87 56.21 56.04 56.16 60.75 62.49 63.53 63.42 63.72
50.08 50.03 49.70 49.76 49.89 49.38 49.08 48.56 48.08 45.92 47.95 48.79 46.07 42.66 41.23 44.65 48.32 48.88 49.82 50.13 49.83 51.98 51.34 50.96 52.05 53.04 53.71 54.46 54.96 56.84 60.05 60.89 61.97
47.40 47.32 47.04 47.01 47.24 46.25 46.57 46.11 45.93 45.81 44.42 46.17 45.93 46.99 45.80 41.62 40.79 46.39 46.80 47.83 46.66 46.87 48.32 48.35 49.29 50.75 52.08 54.06 54.60 56.29 55.80 57.08 58.85
45.74 45.29 45.39 44.84 44.85 44.46 44.23 44.20 44.06 44.53 44.65 43.53 43.33 43.89 44.89 45.15 40.94 37.49 40.78 43.45 44.55 45.43 46.49 48.04 47.80 48.53 49.60 52.41 52.52 54.70 54.51 54.91 55.71

GFSFLT1_sfc_wetblb_027.txt.gz
Wetbulb
67.62 66.90 65.50 65.26 64.63 64.06 63.62 63.49 63.59 63.22 62.96 63.68 64.67 65.09 65.27 66.43 60.36 58.75 59.02 59.88 63.53 64.60 66.33 66.18 66.44 66.83 66.51 67.16 67.77 67.85 67.58 67.09 65.95
68.16 67.15 65.92 65.26 64.63 64.27 64.13 63.89 63.81 64.68 65.12 65.03 64.84 64.65 65.55 62.08 59.04 58.06 58.18 58.27 64.99 65.99 65.45 66.70 66.87 66.88 66.79 66.88 66.91 67.26 67.34 66.53 66.24
68.59 67.02 66.05 65.55 65.27 65.10 65.14 64.69 65.45 66.48 67.03 66.83 66.43 66.68 66.15 62.85 59.26 58.63 58.37 61.51 65.50 66.46 66.07 65.53 66.31 66.97 67.49 67.67 67.20 66.67 66.56 66.59 66.29
67.07 68.03 66.76 66.23 66.33 66.00 66.34 66.22 65.61 65.82 66.45 67.13 67.85 67.88 66.93 63.45 61.18 61.15 59.41 62.55 65.48 66.19 66.82 66.46 65.99 65.89 66.57 67.68 67.27 67.56 66.77 66.65 66.27
67.82 67.59 67.59 66.92 66.45 66.11 65.09 65.44 65.79 65.76 65.86 66.35 67.42 67.19 66.97 63.76 61.77 61.29 60.40 64.81 66.37 66.51 66.46 66.32 66.22 66.06 66.00 66.63 67.18 67.25 67.88 67.88 67.11
63.89 65.13 65.48 67.50 66.22 65.28 65.44 65.76 66.14 66.84 66.46 66.57 66.42 65.63 63.29 62.01 61.42 60.89 62.97 65.78 67.04 67.08 67.83 67.59 66.32 66.46 66.28 65.99 66.18 66.71 67.29 67.67 68.45
62.88 63.20 65.19 66.26 66.21 66.28 65.90 66.26 67.13 66.12 62.73 61.62 63.19 61.27 62.19 61.48 61.20 60.92 64.33 66.54 67.50 67.75 68.48 67.88 67.25 66.19 66.39 66.46 66.35 66.25 66.41 66.99 68.42
59.87 59.85 60.80 60.39 61.77 61.09 62.30 61.78 62.54 61.76 61.10 60.48 60.00 60.33 60.78 60.72 61.14 62.64 65.35 67.23 68.05 68.66 69.19 68.66 68.44 67.47 66.98 66.98 66.91 66.70 67.24 66.66 67.70
58.05 57.96 58.98 59.54 59.80 59.28 59.66 59.42 59.49 59.71 60.96 60.41 60.98 61.30 60.80 60.85 61.32 61.94 64.09 67.05 68.24 68.29 69.22 69.28 68.90 68.98 67.92 67.68 67.79 68.44 67.97 67.94 67.81
59.38 59.49 59.56 59.58 60.08 59.96 60.06 61.31 61.78 61.98 61.04 61.71 61.90 61.82 60.90 60.78 60.60 60.37 62.04 64.62 66.73 66.93 66.96 67.56 69.30 68.75 68.09 67.80 68.10 68.02 67.50 67.53 67.95
61.09 61.09 61.67 62.80 62.81 62.61 62.17 61.71 61.49 61.23 60.37 59.04 58.38 58.09 57.63 57.45 57.23 57.62 57.66 62.17 63.69 65.21 65.78 66.82 67.30 67.26 67.28 67.46 67.65 67.49 67.37 67.18 66.95
61.57 61.83 61.06 61.55 61.98 59.63 57.65 54.88 53.29 52.25 52.63 51.03 52.74 54.66 54.67 55.50 55.72 56.53 56.19 56.78 59.80 62.01 60.64 61.37 63.59 65.17 66.00 66.35 66.14 66.95 66.86 66.77 66.82
59.23 54.57 53.39 54.40 53.95 51.24 49.67 48.96 48.73 48.24 48.09 47.68 48.39 48.28 49.04 49.35 50.09 51.53 51.18 50.76 49.94 54.20 57.79 58.92 59.00 60.25 61.38 62.84 63.89 64.59 65.57 65.14 65.27
52.94 51.62 49.47 49.33 49.13 48.15 47.66 47.15 46.40 45.64 45.88 46.35 45.79 46.19 46.39 47.00 49.86 47.38 45.66 45.61 47.14 48.56 53.13 55.78 56.61 56.18 56.62 58.15 59.46 60.10 60.15 61.39 61.25
48.85 47.83 46.73 47.08 46.85 45.52 44.63 44.04 43.64 43.37 42.98 44.72 45.31 43.81 44.39 45.54 43.62 43.06 43.80 44.75 45.72 45.96 46.30 46.08 47.71 52.60 52.19 54.10 55.44 55.96 56.46 56.68 57.65
45.04 45.18 44.62 44.04 43.79 42.11 42.16 42.22 41.27 41.01 41.03 39.91 40.05 40.68 42.26 40.96 41.04 41.57 43.14 43.77 45.10 43.18 43.46 43.25 42.90 43.53 49.94 50.73 52.33 54.54 55.43 55.87 56.42
43.64 41.97 41.83 41.09 41.24 39.76 38.86 38.78 38.62 39.47 39.57 38.08 36.98 35.43 38.21 40.06 40.78 40.88 42.35 41.38 41.23 42.03 42.06 41.64 41.98 42.38 42.57 44.77 50.56 51.19 52.70 54.13 55.80
41.59 40.59 39.99 39.48 39.26 37.82 37.09 37.14 37.00 35.90 37.92 38.84 36.86 33.00 32.23 35.30 38.55 39.38 40.17 40.00 40.19 38.60 40.20 41.23 41.69 42.14 41.62 44.83 45.46 48.72 49.90 52.55 54.04
40.47 39.93 38.83 38.18 38.22 36.47 36.70 38.32 36.22 36.42 35.21 37.91 40.59 37.11 35.67 32.52 31.56 37.11 37.66 38.75 39.02 38.71 38.96 40.12 41.34 41.53 41.96 43.03 45.09 45.72 48.07 49.85 51.90
39.27 38.50 37.38 36.87 37.00 35.78 35.55 35.24 34.78 35.21 35.72 35.46 36.25 34.81 34.63 34.65 31.67 29.20 31.63 36.52 36.99 37.75 38.35 39.37 39.68 40.54 39.35 39.02 41.25 45.17 46.16 48.24 49.55

GFSFLT1_sfc_wetblb_033.txt.gz
Wetbulb
67.42 67.10 66.01 65.40 64.22 63.69 63.32 63.00 62.93 62.76 63.06 63.13 63.75 64.16 64.45 65.43 59.46 58.37 58.19 58.91 62.62 65.25 65.98 65.59 66.68 66.68 66.86 66.84 67.16 68.19 68.32 68.31 68.10
67.36 67.51 66.38 65.82 64.81 64.19 63.82 63.70 63.74 64.15 65.20 65.70 65.82 65.99 66.33 62.41 59.08 58.12 57.36 56.66 64.10 65.28 66.38 66.90 66.34 67.26 67.13 66.96 66.81 67.18 67.21 67.70 68.17
68.44 67.51 66.52 65.97 65.32 64.78 64.72 64.78 64.77 65.30 66.17 66.28 66.53 66.90 67.00 63.99 60.83 60.06 59.04 61.35 65.67 66.05 65.83 66.47 67.09 66.35 66.14 66.15 66.83 67.25 67.66 67.65 67.37
68.82 67.72 67.02 66.46 66.14 66.09 65.99 65.92 65.93 65.95 65.84 65.96 66.66 67.37 67.21 64.37 62.62 62.38 61.12 63.61 66.53 66.96 66.71 66.73 67.01 67.15 67.08 66.69 66.21 66.27 66.40 67.36 67.32
68.96 68.71 68.15 66.90 66.56 66.62 66.35 65.73 65.22 65.67 66.06 66.24 66.97 66.65 66.21 62.70 61.66 61.86 61.81 65.68 67.41 68.04 67.95 68.02 67.93 67.44 67.42 67.31 67.09 66.77 66.61 66.51 67.47
63.19 65.29 66.24 67.21 66.82 66.86 66.56 65.99 66.16 66.99 66.55 66.33 66.47 65.65 61.94 60.15 60.40 60.84 63.52 66.02 67.75 68.59 68.62 68.49 68.31 68.25 68.72 68.58 68.37 67.37 67.45 67.30 66.86
61.64 62.04 64.97 66.47 66.75 67.39 66.30 66.72 67.51 66.03 62.35 61.34 62.37 60.07 59.13 58.76 59.51 60.53 64.36 66.30 67.67 68.34 68.59 68.39 68.12 67.96 68.26 68.31 68.29 67.54 67.60 67.52 67.71
59.85 59.36 59.57 60.55 61.49 60.24 60.63 59.71 59.20 59.02 59.46 59.57 59.10 58.99 58.13 58.11 59.39 60.67 63.35 63.89 65.34 65.69 65.91 66.20 66.70 66.98 67.70 67.79 67.87 68.08 67.65 67.73 68.08
57.61 57.57 57.99 58.05 58.41 58.13 58.20 58.19 59.74 60.37 60.52 58.88 56.57 54.60 55.84 55.71 56.08 56.30 59.57 61.17 62.24 62.39 63.18 64.12 64.38 64.92 65.66 67.29 67.63 67.69 67.31 67.07 67.23
56.79 57.17 58.20 58.66 58.65 60.43 59.67 57.97 55.87 53.67 53.52 51.61 50.02 50.71 50.14 49.77 50.92 51.13 57.06 56.85 57.30 59.38 60.54 61.11 61.64 62.53 63.44 64.25 64.62 64.54 64.88 64.91 65.10
60.44 57.07 56.27 53.43 55.34 53.84 52.95 52.07 51.06 49.24 46.81 45.95 46.19 45.95 45.86 46.18 46.45 48.55 45.89 53.43 53.72 56.02 58.24 58.65 59.73 59.54 59.69 60.31 60.52 60.92 61.36 61.54 61.44
52.70 53.14 52.17 51.64 51.61 51.19 49.62 48.14 45.08 43.63 43.75 41.44 42.83 43.12 43.26 42.65 45.47 43.84 40.95 44.19 50.20 52.31 54.32 55.05 55.20 55.23 56.10 57.18 57.88 57.96 57.75 57.57 58.09
52.03 51.10 49.81 48.49 46.50 44.83 43.40 41.78 41.34 40.61 39.86 39.30 40.09 40.98 40.59 41.40 41.93 39.67 39.61 42.57 43.42 45.62 50.63 50.39 50.53 51.54 53.10 54.46 54.90 55.32 55.61 56.28 56.63
47.65 46.16 44.62 42.88 41.33 40.52 41.19 40.38 39.65 38.34 38.51 39.96 40.44 39.66 38.66 42.19 40.44 37.27 40.30 41.41 40.89 40.13 45.00 46.11 46.05 48.04 50.03 51.63 53.08 54.07 54.37 54.30 54.58
43.29 41.69 41.18 40.77 39.24 38.33 37.94 38.07 37.56 37.84 36.62 40.25 39.98 37.65 38.47 39.93 36.03 36.65 39.71 39.75 38.83 38.31 38.49 37.18 38.57 45.31 47.32 48.68 50.63 51.93 51.76 51.67 52.41
40.37 39.85 39.36 38.75 37.34 36.19 36.88 36.63 35.74 36.02 36.61 35.12 35.89 37.01 38.15 37.42 35.71 36.99 35.77 36.53 37.26 37.53 37.19 37.89 37.84 38.82 44.83 45.48 48.24 49.30 49.53 50.31 50.87
39.80 38.33 37.59 36.98 36.36 35.36 34.57 34.32 34.22 34.38 35.60 34.13 33.76 31.24 33.23 35.91 37.29 35.76 37.25 34.64 35.46 36.70 37.36 36.66 36.60 36.33 36.73 39.93 45.65 45.91 47.37 48.85 49.58
38.16 37.38 36.70 35.81 35.18 34.04 33.54 33.37 32.96 31.90 33.90 34.88 32.03 27.90 27.16 31.13 33.44 33.81 34.56 35.00 33.67 34.50 35.69 36.40 36.69 36.53 35.76 39.27 40.18 43.39 44.96 46.96 48.94
37.37 36.69 35.65 34.79 34.27 32.87 33.49 34.36 31.78 32.31 31.33 32.97 35.80 33.88 32.87 27.75 26.47 32.01 33.73 32.09 33.57 32.55 33.08 34.70 35.03 35.67 35.96 39.37 41.27 42.34 43.55 46.01 47.84
35.96 35.41 34.24 33.55 33.24 32.04 31.95 31.36 30.91 31.47 31.44 30.85 31.23 31.10 30.90 30.15 28.23 25.76 27.52 30.93 32.29 33.10 33.14 32.64 34.03 34.27 35.45 35.24 37.17 41.72 43.14 45.07 46.73

GFSFLT1_sfc_wetblb_036.txt.gz
Wetbulb
67.11 66.64 65.84 65.04 63.95 63.37 63.10 62.89 62.74 62.58 63.02 63.34 63.79 64.31 64.05 64.72 58.50 57.94 58.05 58.76 62.04 64.19 65.67 66.01 65.85 66.63 66.95 67.00 67.13 67.07 68.03 68.37 68.34
67.95 67.40 66.34 65.63 64.53 63.99 63.65 63.31 63.64 63.84 64.87 65.64 65.87 66.01 66.63 62.50 59.58 58.90 58.47 57.89 64.53 65.53 65.42 66.45 66.85 66.81 67.24 67.87 67.06 66.62 67.02 67.35 67.49
68.67 67.88 66.74 66.04 65.16 64.42 64.44 64.54 64.78 64.98 65.60 66.35 66.48 67.12 67.20 64.50 61.32 60.74 60.03 62.41 66.61 67.08 66.83 66.06 66.59 67.04 66.82 66.30 66.27 66.85 67.51 67.92 68.23
68.76 67.90 66.96 66.47 65.68 65.57 65.91 65.69 65.59 65.92 65.96 66.02 66.59 67.05 66.78 63.88 62.20 62.31 61.60 64.14 67.20 68.06 67.90 67.72 67.47 67.50 67.55 67.68 67.41 67.08 66.86 66.73 66.93
69.07 68.29 68.04 67.01 66.43 66.40 66.54 66.31 65.59 65.66 65.92 66.25 67.10 66.74 66.09 61.35 60.31 60.38 60.68 65.51 67.66 68.48 68.67 68.77 68.78 68.55 68.27 68.81 68.05 67.71 67.58 67.37 67.32
62.28 64.84 66.67 67.18 66.66 66.73 66.83 66.43 66.54 67.23 66.28 65.59 65.05 64.63 60.72 58.97 59.32 59.64 63.12 66.15 67.83 68.43 68.54 68.51 68.46 68.59 68.46 68.35 68.53 68.51 67.96 67.97 68.17
61.71 61.54 63.78 65.74 66.61 66.37 66.18 65.95 65.28 63.10 60.53 60.03 61.21 59.12 58.00 57.96 58.51 59.53 63.26 63.83 65.67 66.26 66.31 66.35 66.60 66.86 67.27 67.75 67.76 68.04 68.10 67.90 68.47
59.42 58.77 58.96 59.06 61.02 59.52 59.63 59.13 58.58 58.25 58.31 58.83 57.31 55.88 56.09 54.83 55.43 56.58 60.02 61.83 63.11 63.31 63.27 64.10 64.30 64.66 64.99 65.82 67.14 67.42 67.33 67.39 67.51
57.55 57.13 56.97 57.31 58.00 57.57 57.68 58.40 59.38 55.63 53.47 52.26 52.36 50.16 49.57 49.22 50.37 51.42 57.93 57.82 59.43 60.70 61.34 61.67 62.00 62.94 63.85 64.52 64.39 64.19 64.85 64.91 64.88
56.33 56.92 58.05 58.25 58.04 58.18 54.58 53.46 52.38 50.55 49.41 46.41 46.37 46.37 45.29 45.18 45.98 47.02 53.21 54.94 56.42 58.29 59.67 60.26 60.94 60.16 60.39 60.62 60.66 60.98 61.52 61.70 61.48
60.53 56.75 53.22 52.75 52.90 52.26 51.35 49.75 47.45 43.60 42.58 41.53 41.60 41.75 42.89 41.95 45.27 40.99 42.28 52.57 53.62 55.27 57.23 57.13 56.83 56.43 57.00 57.79 57.92 57.86 58.08 58.19 58.52
53.78 52.71 50.86 49.24 49.31 48.79 45.68 42.94 41.90 39.78 40.36 38.55 39.75 40.67 39.56 41.52 40.00 39.11 40.63 42.87 48.26 52.23 52.99 53.17 52.88 53.47 54.38 55.43 55.66 55.89 56.25 56.78 57.10
51.95 49.80 47.44 44.49 42.43 41.81 40.59 39.14 39.40 37.66 37.24 36.63 38.39 38.54 38.20 41.44 36.40 38.44 39.36 41.15 40.16 43.79 48.96 48.91 49.31 50.43 51.78 53.10 53.80 54.42 54.81 54.74 55.03
48.39 45.35 42.28 40.29 38.97 38.28 39.02 37.75 37.95 36.07 36.44 37.24 38.51 36.45 36.94 39.70 37.85 37.15 38.38 38.69 37.98 38.17 43.21 45.05 45.28 46.82 48.73 50.58 51.65 52.82 53.13 52.84 52.63
43.68 40.65 38.92 38.69 37.46 36.51 36.52 36.28 35.74 36.03 34.80 37.77 37.15 36.10 37.29 38.06 34.48 36.34 38.17 36.56 36.51 36.91 36.28 35.98 37.36 44.23 45.81 47.70 48.77 50.40 51.20 51.19 51.28
39.82 38.59 37.60 36.95 36.01 34.85 35.48 34.97 33.66 34.35 35.12 33.94 34.80 35.39 36.11 36.70 35.25 35.19 34.93 34.74 35.29 35.63 34.51 35.37 35.82 36.39 43.29 44.66 46.01 48.00 48.94 49.43 50.10
38.68 37.03 36.07 35.66 35.14 34.22 33.30 32.58 32.48 32.64 33.93 31.86 31.61 29.00 31.45 34.07 35.59 33.45 35.55 32.61 34.01 34.42 35.51 34.44 35.75 34.65 35.19 38.17 43.73 44.89 46.53 48.13 49.27
36.95 36.09 35.40 34.51 34.23 33.22 32.26 31.65 31.93 30.84 32.14 33.28 30.45 26.28 24.98 29.69 31.95 32.80 33.78 32.61 31.76 32.39 32.90 34.53 34.92 34.61 34.33 37.57 38.11 42.84 44.24 46.37 48.40
36.11 35.46 34.52 33.67 33.27 32.00 32.72 32.55 30.66 31.18 29.72 31.00 33.99 32.05 31.60 25.98 25.10 30.16 31.99 30.16 31.99 30.02 30.74 32.75 33.17 34.03 34.75 37.23 40.14 41.72 42.88 45.51 47.63
34.81 34.21 33.33 32.66 32.33 31.00 30.77 29.98 29.63 30.11 29.64 29.27 29.34 29.01 29.20 28.37 26.52 24.25 25.95 29.90 30.94 31.14 30.20 30.49 32.08 32.97 33.44 33.50 36.34 40.86 42.96 44.81 46.27

GFSFLT1_sfc_wetblb_039.txt.gz
Wetbulb
67.24 66.53 65.94 65.11 64.19 63.72 63.33 63.17 63.19 63.29 63.91 64.43 64.95 65.22 65.00 64.41 64.43 64.22 63.83 64.11 63.34 64.83 64.93 66.28 66.37 66.31 66.96 67.25 67.43 67.41 67.26 68.37 69.04
67.92 67.31 66.37 65.58 64.46 64.30 63.96 63.49 63.88 64.07 65.22 65.80 65.97 66.02 66.96 66.37 66.24 65.83 65.58 65.19 65.77 66.70 66.26 66.08 66.84 67.11 67.41 67.52 68.16 66.73 66.96 67.24 67.95
68.46 68.03 66.99 66.10 65.13 64.54 64.70 65.15 65.50 65.57 65.62 65.79 66.16 66.83 67.07 65.65 65.86 65.94 65.90 65.31 66.68 67.74 67.32 67.57 66.90 67.24 67.59 67.25 66.78 66.78 66.91 67.80 68.20
69.95 68.35 67.17 66.49 65.60 65.47 65.94 66.02 65.68 65.57 65.82 66.14 66.46 67.14 66.65 65.92 65.73 64.93 65.30 64.28 66.92 68.18 68.38 68.64 68.58 68.36 68.16 68.03 68.37 68.11 67.69 67.59 67.52
69.28 68.09 67.94 66.64 66.11 66.08 66.62 66.55 66.28 66.08 66.31 66.46 66.56 66.27 65.70 65.30 64.77 64.73 64.69 65.60 67.71 68.60 68.39 68.54 68.84 68.93 68.84 68.76 68.58 68.52 68.21 68.16 68.08
65.67 65.20 66.78 66.90 66.36 66.47 66.86 66.67 66.92 66.98 65.51 64.66 64.21 63.19 64.74 64.09 64.14 64.37 64.34 65.13 66.52 67.29 67.03 66.76 67.00 67.24 67.24 67.38 67.81 68.11 68.25 68.32 68.64
64.34 63.01 62.98 64.25 65.54 65.19 65.32 64.64 63.59 63.15 64.32 64.45 62.64 63.30 62.77 62.13 61.38 61.20 61.32 62.91 64.31 64.73 64.30 64.73 65.05 65.46 65.77 65.95 66.81 67.41 67.85 67.74 68.09
64.58 64.32 64.16 64.51 62.66 64.70 63.54 63.67 63.76 62.86 60.37 58.05 57.13 57.16 56.63 56.46 56.41 56.77 59.25 60.48 61.30 61.82 62.42 62.56 62.86 63.73 64.59 65.23 64.52 64.59 65.31 65.60 65.59
64.08 62.83 62.55 63.06 63.52 63.36 63.61 61.06 55.16 54.15 51.77 50.79 53.55 53.37 52.86 52.57 53.23 54.73 56.58 57.54 58.93 59.67 60.76 61.48 62.30 61.17 61.54 61.70 61.64 61.72 62.41 62.44 62.15
61.70 62.41 62.94 62.53 61.02 57.81 55.14 53.25 51.49 49.07 49.26 48.77 48.76 49.13 49.68 48.86 52.96 49.73 54.89 55.82 57.46 58.42 59.71 59.18 58.79 58.42 58.74 59.09 58.86 58.61 58.99 59.26 59.53
61.87 55.91 54.59 53.78 53.15 52.12 52.50 49.94 48.99 47.21 46.77 46.29 46.76 47.92 46.89 49.52 47.41 49.04 51.18 52.32 54.61 55.89 56.19 55.89 55.71 55.92 56.40 56.84 56.58 56.89 57.17 57.71 58.23
56.02 53.42 51.62 50.67 51.46 48.31 48.09 47.95 46.97 45.81 45.08 44.73 46.18 46.83 45.68 49.27 45.57 47.39 47.87 47.25 49.73 51.91 52.40 52.11 52.42 52.54 53.92 54.82 54.98 55.14 55.49 55.86 55.97
53.06 50.26 48.37 46.28 47.42 47.37 45.67 45.47 45.53 43.92 43.45 43.53 45.20 44.85 45.90 44.68 45.42 46.00 46.33 45.34 45.16 45.99 47.53 47.63 47.98 49.26 50.39 52.19 53.34 53.25 53.71 54.15 54.34
49.33 46.61 46.00 45.41 44.63 44.67 44.61 43.31 44.37 42.25 42.63 42.99 44.42 44.23 45.82 43.59 44.08 44.38 44.52 43.63 44.26 44.00 42.87 43.73 44.01 45.71 47.45 49.85 51.14 51.16 51.35 52.39 52.42
46.08 43.81 43.92 43.90 43.22 42.62 42.86 41.68 42.26 41.30 40.99 41.38 41.95 44.39 45.91 43.86 43.27 43.12 44.01 42.73 42.45 42.63 41.23 41.35 41.28 43.05 44.82 46.88 48.21 49.00 49.93 50.61 50.93
43.54 43.05 42.26 42.36 41.44 40.46 40.67 41.63 40.41 40.08 40.97 41.03 41.99 42.99 42.73 44.44 44.73 42.11 43.20 41.61 41.28 40.88 40.63 40.01 40.11 40.88 42.70 43.67 44.83 47.01 47.64 49.11 49.57
42.43 42.03 41.17 41.23 40.47 39.97 39.70 39.95 39.72 39.08 39.86 37.75 38.26 36.76 40.00 41.58 41.75 42.03 41.24 40.13 40.33 39.58 39.15 38.78 39.13 40.02 39.99 40.64 43.21 43.66 45.66 47.68 48.89
41.27 40.97 40.43 40.32 40.63 38.86 38.56 39.01 38.97 37.41 38.49 38.61 37.79 35.51 34.34 35.31 39.19 39.89 40.53 39.18 38.31 38.30 37.93 37.77 38.34 38.74 39.03 39.89 40.34 41.70 43.67 45.93 48.09
40.28 39.80 39.72 39.42 39.25 38.58 38.21 37.98 37.94 38.25 35.91 37.91 37.29 37.91 36.88 32.86 31.63 37.26 38.12 37.58 36.09 36.31 36.66 36.86 37.23 37.86 38.32 38.99 39.69 40.72 42.34 45.09 47.41
38.98 39.02 38.73 38.07 37.96 37.44 37.37 36.82 36.69 36.87 36.43 35.93 35.70 35.40 35.36 35.24 32.53 29.87 32.74 34.79 35.99 35.90 35.80 35.92 36.52 37.18 37.61 37.75 38.25 40.24 42.06 44.27 46.02

GFSFLT1_sfc_wetblb_042.txt.gz
Wetbulb
67.30 66.77 66.37 65.34 64.64 64.22 63.90 63.68 64.03 64.51 65.01 65.33 65.29 65.27 65.35 65.36 66.69 66.71 66.27 66.04 65.51 66.30 65.83 65.57 66.64 66.85 66.80 67.29 67.59 67.59 67.49 67.54 68.54
67.98 67.25 66.73 65.79 64.81 64.82 64.50 64.41 64.58 64.65 65.36 66.31 66.22 66.68 66.49 66.86 67.14 67.00 67.08 67.03 66.32 67.28 67.31 67.06 66.62 67.22 67.66 67.96 67.79 68.34 67.07 67.21 67.34
68.55 67.93 67.16 66.33 65.28 64.87 65.12 65.42 65.53 65.57 65.55 65.67 66.10 66.38 66.64 65.85 66.57 66.90 67.34 66.17 66.45 67.94 68.18 68.17 68.36 67.96 67.86 68.09 67.77 67.18 67.04 67.16 67.88
68.94 68.39 67.40 66.59 65.65 65.51 65.91 65.99 65.75 65.26 65.55 66.00 66.34 66.60 66.24 66.91 67.40 66.75 67.14 65.57 67.42 68.66 68.68 68.88 69.22 69.23 69.10 68.50 68.49 68.63 68.60 68.25 68.05
69.70 68.41 67.84 66.59 66.10 66.06 66.36 66.40 66.21 66.21 66.30 66.23 65.92 65.07 65.13 67.11 66.93 67.35 66.50 66.17 67.57 67.95 67.66 67.57 67.72 68.06 68.09 68.29 68.62 68.81 68.61 68.66 68.64
68.31 65.83 67.01 66.88 66.12 66.15 66.41 66.42 66.57 65.76 65.32 63.88 63.36 63.19 67.16 66.60 66.77 66.73 62.40 63.77 65.43 65.92 65.44 65.35 65.94 66.34 66.65 66.52 67.21 67.69 67.97 68.13 68.47
66.41 64.28 63.38 64.46 65.23 64.82 64.75 63.94 63.33 63.91 67.63 66.88 63.97 65.61 65.23 64.64 64.13 63.38 60.72 62.34 63.48 63.20 63.30 63.26 63.68 64.38 65.14 65.94 65.08 65.44 66.24 66.78 66.72
65.27 66.28 65.79 66.64 63.06 66.89 66.14 66.68 66.89 63.89 61.97 61.44 61.60 61.33 61.19 61.23 60.67 59.06 57.88 59.56 61.04 61.55 61.83 62.06 63.27 62.46 62.59 62.61 62.62 62.76 63.41 63.48 63.25
66.27 66.31 66.54 66.73 67.27 66.83 67.29 63.17 58.68 57.14 57.27 56.77 57.89 57.25 57.04 56.42 56.40 56.68 55.82 57.28 58.66 60.30 61.21 60.92 60.21 59.74 60.03 60.38 60.05 59.76 60.00 60.50 60.74
66.21 65.67 66.46 66.66 65.39 62.53 60.56 56.55 54.70 57.17 55.85 54.27 52.79 52.63 52.75 51.95 54.59 54.01 55.05 55.48 57.32 58.96 58.56 57.71 57.47 57.42 57.69 57.99 57.67 57.57 58.14 58.74 59.18
64.94 62.41 58.75 56.33 55.93 55.19 57.29 57.56 56.14 54.58 52.32 51.04 50.72 51.16 50.67 51.45 51.61 53.37 53.29 53.91 54.99 55.41 54.90 54.50 54.39 54.51 55.13 55.83 55.95 56.06 56.20 56.72 57.24
61.21 58.39 56.97 56.59 55.95 55.15 55.19 54.10 53.03 51.66 50.39 49.86 49.65 50.06 48.94 51.86 50.56 51.94 51.98 50.98 50.65 50.55 50.97 50.36 50.56 51.26 52.28 53.38 53.98 54.32 54.28 54.77 55.35
57.06 53.81 52.23 53.55 54.51 53.33 51.35 51.30 51.39 49.56 48.74 48.53 49.17 48.81 48.93 49.86 49.90 50.54 49.91 49.33 49.06 47.51 46.54 47.09 47.53 48.51 49.71 51.17 52.30 52.73 52.21 52.33 53.49
54.99 53.91 50.14 52.13 51.19 50.50 49.22 48.95 48.38 47.14 47.06 46.95 47.60 48.59 50.24 48.34 47.70 48.23 47.44 47.05 48.04 47.26 44.15 43.79 44.04 44.84 47.12 48.84 49.98 50.55 50.45 50.88 51.78
50.01 51.34 50.19 50.22 49.30 48.42 47.81 46.85 46.40 45.45 45.35 45.06 45.77 48.66 49.77 48.11 48.03 47.52 46.83 46.91 46.30 45.97 44.86 44.36 44.28 43.92 44.41 45.91 47.14 48.60 49.56 49.31 50.25
47.66 50.35 49.15 49.15 47.43 46.19 46.22 45.58 45.10 44.37 44.92 45.12 46.25 47.16 46.95 48.05 47.98 47.67 46.43 45.58 44.66 44.12 43.56 43.00 42.91 43.13 44.18 44.31 44.79 46.75 47.62 48.13 49.27
45.51 48.37 47.89 47.03 45.66 45.04 44.86 44.99 44.49 43.58 43.93 41.89 42.99 42.53 43.77 46.24 46.61 45.15 45.28 43.79 44.32 42.95 42.42 42.11 41.83 42.07 42.33 42.77 43.30 43.74 45.52 47.16 48.38
46.70 47.57 46.89 46.14 45.59 44.03 43.93 44.01 43.49 42.54 42.94 42.18 41.53 40.40 40.07 39.79 44.15 43.56 42.80 43.13 41.95 41.73 41.55 41.19 41.11 41.13 41.44 41.79 41.95 42.02 43.11 45.51 47.90
45.58 45.93 45.68 44.95 44.39 43.62 42.77 42.89 42.77 43.08 41.31 42.75 40.98 41.03 39.71 37.02 36.39 41.64 41.64 41.45 40.10 40.60 40.57 40.31 40.34 40.63 40.82 40.94 40.82 40.80 41.80 44.48 46.76
43.51 44.46 44.28 43.63 43.18 42.68 42.24 41.81 41.36 41.92 41.59 40.39 40.09 39.84 39.30 38.92 36.10 34.38 37.69 39.59 40.57 40.33 39.57 39.58 39.74 40.20 40.28 40.26 40.02 40.49 41.85 43.81 45.37

GFSFLT1_sfc_wetblb_045.txt.gz
Wetbulb
67.04 66.88 66.09 65.00 64.70 64.59 64.29 64.63 65.12 65.57 66.39 66.25 65.85 65.59 65.92 66.89 66.86 66.37 66.56 66.39 66.82 67.20 66.58 66.38 66.16 66.79 67.30 67.05 67.22 67.87 68.00 67.69 67.86
67.81 67.27 66.69 65.43 65.36 65.33 65.26 65.34 65.33 65.55 65.58 66.16 66.80 67.13 66.27 65.95 66.60 66.53 66.84 67.22 66.59 67.72 67.73 67.88 68.23 67.81 67.81 67.96 68.52 67.89 68.39 68.09 67.66
68.44 67.75 67.17 66.23 65.59 65.66 65.95 66.00 65.88 65.90 65.85 65.99 66.30 66.61 66.59 65.78 66.23 66.79 67.05 66.30 67.02 68.38 68.45 68.66 69.34 69.46 69.20 68.61 68.25 68.48 67.72 67.65 67.57
69.06 68.22 67.57 66.54 66.06 65.90 66.16 65.99 65.79 65.31 65.61 66.16 66.37 66.25 66.11 65.65 66.62 66.47 66.66 67.10 68.25 68.67 68.38 68.01 68.08 68.46 68.58 68.76 68.93 69.08 68.92 69.05 68.95
69.71 68.57 68.08 66.88 66.46 66.30 66.44 66.46 66.30 66.35 66.23 65.91 65.35 65.30 65.67 65.71 65.99 65.72 64.05 64.82 66.40 66.94 66.49 66.17 66.68 67.08 67.25 67.08 67.75 68.15 68.30 68.35 68.86
67.58 66.63 67.94 67.31 66.41 66.30 66.55 66.37 66.09 65.81 66.21 64.77 63.95 64.50 65.62 65.03 64.98 63.85 62.69 63.64 65.40 65.17 64.36 64.49 64.80 65.29 66.00 66.56 66.08 66.34 66.95 67.43 67.38
66.89 65.20 66.09 66.33 66.12 65.55 65.34 64.46 64.64 64.28 66.20 63.99 64.27 64.16 63.46 62.97 62.71 59.78 59.84 61.39 62.67 62.92 62.98 63.01 64.30 64.35 63.90 63.92 63.91 64.07 64.49 64.51 64.16
64.35 65.21 64.06 65.14 63.24 65.94 65.33 65.20 65.09 63.06 62.15 62.16 62.21 61.80 61.27 60.99 60.81 57.25 58.02 58.90 59.88 60.72 61.86 62.74 62.00 61.18 61.16 61.56 61.27 61.08 61.17 61.54 61.67
64.49 65.11 65.85 66.06 65.74 65.82 65.71 62.77 61.11 59.92 59.45 58.97 57.95 57.70 57.52 56.39 56.22 54.86 56.89 58.10 59.84 60.45 61.00 59.76 59.45 59.10 59.30 59.50 58.92 58.67 59.18 59.64 60.04
65.77 65.22 65.27 65.59 65.20 63.93 62.19 60.37 58.98 58.90 57.89 56.63 54.64 53.65 53.67 52.63 54.26 54.68 56.12 57.19 58.75 58.64 58.11 57.10 56.86 56.59 56.74 57.03 57.09 57.10 57.28 57.66 58.02
65.93 65.63 63.77 61.66 60.56 58.98 60.03 59.05 57.54 56.34 54.49 52.76 52.08 51.81 52.39 51.28 52.37 53.05 52.77 54.77 55.13 54.68 54.55 53.50 53.03 53.24 53.78 54.23 54.52 55.10 55.38 55.51 55.87
65.83 63.22 61.00 60.65 60.10 58.72 57.64 55.75 54.60 52.84 51.85 51.35 50.99 50.55 49.85 50.35 50.08 51.91 52.22 50.98 50.58 50.22 50.36 50.10 50.49 51.07 52.14 52.96 53.45 53.86 54.15 53.72 53.82
63.43 61.09 58.49 58.34 58.24 56.66 54.65 52.91 51.98 50.78 49.82 49.30 50.22 49.54 49.75 49.82 49.27 50.39 50.19 50.75 49.24 47.85 46.55 46.49 47.29 47.56 49.65 51.62 52.17 52.45 52.43 52.02 52.63
60.74 58.87 55.54 56.48 55.31 53.80 51.51 50.54 49.37 48.62 48.47 48.22 48.67 50.07 49.76 49.17 48.01 48.79 47.98 47.80 48.49 47.86 46.23 44.05 45.79 45.32 46.82 48.76 50.14 50.60 50.96 51.12 51.30
58.23 55.21 54.66 54.13 52.37 50.85 50.14 49.13 48.03 46.78 46.35 46.01 46.85 48.69 49.27 49.74 49.23 47.82 47.21 47.23 46.42 46.82 46.40 45.53 45.20 46.23 45.09 47.00 47.77 48.42 49.61 49.78 49.96
55.99 54.08 52.94 52.39 50.93 49.55 48.83 47.49 46.81 45.64 45.65 46.86 47.67 48.01 47.40 48.51 48.47 48.67 47.12 46.84 46.04 45.22 44.67 43.79 43.43 43.19 45.22 45.60 45.38 47.09 47.39 48.36 49.07
52.20 51.22 51.06 49.82 48.27 47.30 47.02 47.09 45.63 45.00 44.92 42.46 44.61 44.07 44.66 46.66 47.82 47.68 45.81 44.84 45.27 43.98 43.35 42.55 42.30 42.34 42.18 43.32 44.45 44.47 45.52 47.41 48.28
50.08 50.11 49.07 48.82 48.60 47.03 46.45 46.00 45.89 44.10 44.34 43.33 41.87 40.90 40.87 40.40 45.33 44.51 44.54 43.80 44.06 42.94 42.72 42.22 41.92 41.54 41.36 42.26 42.37 42.86 43.54 45.38 47.65
49.15 49.00 48.22 47.41 47.19 45.65 44.87 44.49 44.15 44.73 41.93 43.47 41.99 42.13 40.22 37.00 36.40 43.23 42.84 43.51 40.99 42.03 41.98 41.31 41.03 41.03 41.18 41.88 42.29 42.51 42.38 44.59 46.79
46.35 46.05 46.50 46.36 45.77 44.37 43.96 43.41 42.70 42.13 41.90 40.72 40.18 40.13 40.26 39.70 36.57 34.65 38.41 40.35 41.47 41.40 41.22 40.63 40.56 40.49 40.63 40.22 40.70 41.75 42.43 44.29 45.60

GFSFLT1_sfc_wetblb_048.txt.gz
Wetbulb
67.36 66.71 65.44 65.19 64.99 64.89 65.34 65.73 65.76 66.48 66.70 66.67 66.53 66.02 66.36 67.43 64.46 63.26 64.75 64.36 67.34 67.64 67.56 67.21 67.16 66.62 67.02 67.59 67.38 67.31 68.03 68.03 67.53
67.75 67.04 65.77 65.74 65.49 65.56 65.83 66.00 66.20 66.20 66.47 66.65 66.87 66.58 66.64 63.51 62.20 63.34 63.88 64.57 67.74 68.28 68.35 68.41 69.09 69.03 68.58 68.21 67.95 68.36 67.97 68.02 67.88
68.11 67.66 66.45 66.02 66.03 66.30 66.61 66.46 66.23 66.10 66.11 66.28 66.43 66.36 66.34 64.04 64.14 63.86 63.98 67.55 68.38 69.11 68.18 68.69 68.60 68.95 69.08 69.17 69.14 68.41 68.56 68.60 68.22
68.86 68.02 67.06 66.51 66.37 66.55 66.58 66.30 65.90 65.67 65.97 66.20 66.28 66.78 66.27 63.69 64.55 64.27 63.66 67.16 67.54 67.82 67.31 66.98 67.43 67.85 67.68 67.85 68.52 68.86 68.77 68.78 68.98
69.54 68.44 68.03 66.90 66.79 66.81 66.87 66.66 66.44 66.36 66.37 66.10 66.12 65.80 65.34 62.61 63.19 61.81 62.86 65.74 66.36 66.20 65.43 65.75 65.74 65.99 66.99 67.06 66.96 67.17 67.84 68.07 67.98
67.10 66.55 67.21 67.87 67.15 66.85 67.09 66.72 66.94 67.20 66.65 66.29 65.47 64.77 63.27 61.91 61.27 58.57 62.80 63.70 64.15 63.84 64.04 64.04 65.36 65.79 65.04 64.91 64.81 64.98 65.25 64.97 64.65
66.53 65.58 66.91 67.57 67.13 66.95 66.80 66.09 66.15 65.00 63.92 63.37 64.02 60.50 57.27 57.56 56.51 56.50 61.06 61.54 62.35 62.62 63.11 64.02 63.36 62.80 62.60 62.57 62.11 61.93 62.04 62.36 62.39
63.02 61.89 62.89 62.98 63.83 63.16 64.95 63.41 62.74 57.67 57.23 56.69 56.08 55.23 54.03 53.33 53.96 56.20 59.06 59.48 59.80 61.36 63.02 61.40 61.05 60.69 60.77 60.50 60.18 59.74 60.04 60.35 60.70
59.00 61.86 61.27 62.01 61.44 63.12 62.09 59.02 56.62 56.11 55.66 52.75 51.56 50.66 50.65 48.64 50.66 54.35 57.93 58.18 58.91 61.91 60.42 59.43 58.87 58.55 58.40 58.44 58.19 58.19 58.33 58.58 58.70
60.73 61.20 61.64 61.28 60.33 59.69 58.17 55.94 54.94 53.55 52.27 51.01 48.99 47.89 47.53 46.94 48.80 50.76 58.47 59.20 59.25 58.81 57.71 56.83 55.96 55.60 55.58 55.49 55.64 55.90 56.21 56.38 56.29
61.69 60.94 58.92 57.98 56.59 56.46 56.16 54.00 52.04 50.46 47.74 47.18 46.82 45.72 45.95 45.50 46.08 48.83 52.66 56.11 55.41 55.18 54.21 53.61 53.33 53.47 53.96 54.32 54.33 54.53 54.87 55.14 55.03
61.95 58.76 57.34 56.24 55.30 54.73 52.74 50.99 48.61 46.99 47.07 45.13 45.26 44.33 43.44 44.34 45.06 46.46 48.26 49.49 52.69 50.98 50.51 50.23 50.52 50.77 51.96 53.40 53.78 53.73 53.67 53.68 53.41
60.02 58.02 56.36 55.80 53.90 51.72 48.96 47.25 46.00 44.39 43.63 42.59 43.43 43.10 44.21 43.95 43.76 45.41 44.66 45.54 45.82 47.87 47.60 47.24 48.08 47.94 49.60 51.17 52.40 52.54 52.36 52.52 52.73
57.46 55.06 52.58 53.17 51.29 48.13 47.25 44.07 43.24 42.08 41.98 42.68 41.56 42.68 43.45 43.32 44.75 42.97 42.90 42.50 42.89 42.34 46.05 45.52 47.38 46.83 48.56 48.86 50.64 50.78 50.98 51.21 51.45
55.71 51.94 51.22 50.21 47.92 46.38 45.01 42.73 42.11 40.91 40.11 43.42 43.29 42.00 43.30 42.74 42.50 42.26 44.15 42.26 41.94 41.21 40.83 39.43 39.93 46.18 47.17 48.20 48.98 48.61 49.95 49.61 50.22
51.78 50.55 49.06 48.28 46.62 45.03 44.20 42.42 41.73 39.67 39.59 39.33 39.87 40.62 41.64 42.86 41.94 42.73 41.87 41.39 41.40 39.68 38.95 37.66 37.39 38.05 44.87 45.46 46.48 47.72 47.73 48.48 49.45
50.53 48.60 47.00 45.33 43.95 42.92 43.56 41.97 40.73 39.82 38.88 36.56 37.40 36.18 38.17 40.57 41.81 41.65 40.94 38.76 38.93 38.85 38.79 37.25 37.25 36.20 36.25 39.37 44.89 45.28 46.31 47.65 48.59
50.63 50.10 48.14 45.66 44.87 43.42 42.98 42.06 40.97 38.87 38.23 37.43 36.56 33.97 33.23 33.63 38.11 38.21 38.80 37.61 36.94 36.50 37.28 37.96 37.60 36.67 35.69 39.02 39.65 43.11 44.48 46.06 47.84
49.92 49.30 46.35 45.54 43.26 41.36 40.26 41.24 39.09 38.99 36.97 37.42 39.37 36.06 34.52 30.94 29.61 35.22 36.08 36.22 36.68 35.55 35.50 35.93 36.30 36.53 35.87 39.71 41.86 42.70 43.79 45.33 47.32
48.27 45.98 44.36 42.96 41.42 40.99 39.12 38.34 37.53 37.04 36.35 35.43 34.85 34.23 34.04 33.41 30.63 28.46 31.51 33.91 35.05 35.44 35.38 34.64 34.73 36.06 35.98 35.49 38.18 42.11 43.28 44.87 46.34

GFSFLT1_sfc_wetblb_051.txt.gz
Wetbulb
67.01 65.75 65.44 65.46 65.84 66.65 66.82 66.75 67.02 66.99 66.83 66.84 66.71 66.20 66.06 67.08 63.62 64.10 65.65 63.88 67.62 67.81 67.58 67.05 67.56 67.47 66.95 66.85 67.52 67.44 67.28 68.01 67.74
67.32 65.98 65.84 65.41 65.57 66.15 66.36 66.41 66.41 66.81 66.84 67.02 66.71 66.03 66.44 62.41 61.27 62.95 63.36 64.59 67.88 67.83 67.78 69.16 69.16 69.45 68.90 68.99 68.21 67.92 68.19 67.36 67.90
67.91 66.36 66.20 66.40 66.53 66.66 66.78 66.71 66.56 66.50 66.53 66.41 66.18 66.00 66.07 63.68 63.59 63.85 64.92 68.04 68.57 68.60 68.36 67.81 67.93 68.28 68.24 68.64 69.31 68.75 68.61 68.79 68.81
68.36 67.22 66.48 66.56 66.77 66.82 66.56 66.37 66.22 66.48 66.59 66.38 66.01 66.85 65.99 63.00 63.97 63.07 63.90 67.59 67.23 66.95 66.25 66.77 66.88 66.66 67.98 68.04 68.11 68.63 68.78 68.69 68.62
68.97 68.20 67.61 66.91 66.76 66.98 67.00 66.88 66.71 66.68 66.58 66.27 66.69 65.78 65.15 62.69 61.51 61.88 63.70 66.46 65.99 64.96 64.98 65.23 66.75 67.05 66.29 66.10 66.10 65.81 65.85 65.69 65.50
67.01 66.40 67.13 67.81 67.34 67.28 67.30 67.18 67.12 67.34 66.61 66.56 66.08 64.71 61.29 60.01 58.41 57.62 64.22 63.95 63.92 63.83 63.77 65.42 64.84 64.55 64.13 63.57 63.17 63.02 63.23 63.36 63.31
66.15 65.16 66.56 67.97 67.58 67.54 67.44 66.98 66.42 65.00 62.59 62.68 63.61 58.53 54.34 55.42 55.11 56.28 61.80 61.50 61.49 62.84 64.33 63.08 62.47 62.53 62.11 61.58 61.08 61.12 61.24 61.41 61.90
63.87 63.76 64.41 63.52 63.99 63.69 65.17 63.60 62.01 56.76 60.58 58.54 51.96 50.86 50.35 52.05 52.95 57.58 60.52 60.70 61.51 64.13 61.90 61.09 60.66 60.34 60.17 59.73 59.48 59.27 59.44 59.68 59.85
60.78 60.72 61.12 61.21 61.49 60.82 61.26 59.82 55.47 54.76 53.48 50.72 49.35 47.98 46.77 47.55 50.05 54.15 59.47 58.76 61.10 61.64 59.99 59.00 58.11 57.66 57.17 57.05 56.82 56.85 56.96 57.24 57.19
58.73 59.47 59.61 59.73 60.11 59.76 56.28 54.25 53.77 50.95 48.30 47.09 46.55 46.19 45.12 46.98 49.32 52.55 59.71 60.48 59.86 58.62 57.47 56.35 55.87 55.59 55.65 55.58 55.39 55.44 55.66 56.02 55.97
58.53 59.36 59.25 57.36 56.43 55.85 54.84 53.43 50.84 47.07 45.69 45.25 44.18 43.18 43.43 44.41 47.82 50.08 53.40 57.37 56.58 55.41 54.66 53.77 53.27 53.32 53.84 54.61 54.82 54.64 54.77 54.83 54.60
59.74 57.62 55.92 54.93 54.44 52.78 50.15 48.51 46.18 45.07 44.72 42.77 43.10 42.50 41.57 42.75 44.82 48.22 47.89 49.69 53.70 51.76 50.84 50.44 50.75 50.80 51.83 52.97 53.74 53.69 53.60 53.61 53.83
58.76 56.95 55.54 54.68 52.75 50.00 47.28 45.92 43.73 42.34 41.87 40.88 41.24 41.31 42.69 41.92 42.41 45.46 44.92 44.56 45.15 48.05 48.01 48.20 49.00 48.49 50.52 51.07 52.27 52.57 52.28 52.40 52.28
58.25 55.45 53.15 51.66 48.64 46.70 45.73 42.41 42.43 40.14 40.08 41.24 39.85 41.01 42.25 41.83 43.52 40.81 40.80 42.15 42.57 42.03 46.18 47.26 46.90 47.23 48.72 50.03 51.23 50.76 50.56 51.05 51.07
55.39 52.19 50.96 48.54 45.94 44.74 43.38 41.15 39.82 39.14 38.46 41.81 41.89 40.49 41.98 40.84 40.34 40.60 42.39 41.11 40.86 40.23 39.28 37.29 38.89 45.35 45.92 47.16 48.43 49.44 50.08 49.50 49.99
53.11 51.19 48.39 46.65 45.12 43.44 42.55 40.89 39.39 38.05 37.90 38.67 38.37 39.75 40.26 40.49 40.29 40.95 39.81 40.22 40.53 39.17 37.27 36.42 35.94 36.75 43.66 44.05 46.13 47.56 48.08 48.71 49.20
51.65 49.58 46.95 45.44 43.56 42.18 41.48 41.96 39.77 40.30 38.26 37.01 36.86 36.10 38.05 39.43 40.14 40.09 40.12 37.57 38.25 37.86 37.66 36.07 36.00 34.91 34.93 37.96 44.70 44.47 45.80 47.64 48.71
49.76 47.93 45.83 43.23 42.66 41.77 41.49 41.43 41.26 38.01 37.41 36.80 37.28 33.77 33.74 32.76 36.53 37.27 37.42 35.81 35.40 34.73 35.63 36.63 36.42 35.33 34.43 37.92 39.00 42.99 44.44 46.59 48.26
51.16 49.05 45.49 44.49 43.06 40.80 40.61 40.55 39.37 39.20 36.26 37.03 38.27 34.82 33.58 30.58 29.63 33.47 34.36 34.27 35.14 33.57 33.82 33.95 34.64 34.97 34.71 38.35 41.81 43.41 43.84 45.76 47.61
50.00 48.05 46.04 45.65 45.07 41.06 39.69 37.91 38.35 38.53 37.15 35.85 34.53 33.16 32.79 31.75 29.70 27.91 30.56 32.38 33.05 33.56 32.98 33.04 32.82 34.01 34.37 33.97 37.06 43.09 43.71 45.50 46.73

GFSFLT1_sfc_wetblb_054.txt.gz
Wetbulb
66.35 65.76 65.71 67.29 67.80 67.88 67.65 67.40 67.16 67.05 66.92 66.80 66.15 66.22 66.34 64.32 61.09 62.96 64.26 63.53 67.51 67.22 66.36 67.09 68.14 68.11 67.43 67.22 67.31 67.48 67.72 67.38 67.85
66.03 65.68 65.57 65.88 66.92 67.19 67.00 67.13 66.98 66.84 67.24 67.06 66.57 66.00 65.78 61.50 61.41 62.77 62.86 64.14 68.17 67.94 69.14 68.69 68.57 68.99 68.82 69.46 68.78 67.78 67.81 67.84 67.01
66.31 66.14 65.63 65.82 66.51 66.77 66.70 66.50 66.45 66.42 66.41 66.05 65.66 65.62 65.88 62.77 63.67 63.56 64.67 67.87 68.18 68.06 67.74 67.94 68.02 67.82 68.34 68.64 69.04 69.05 68.80 68.60 68.79
67.03 66.37 66.53 66.66 66.85 66.83 66.68 66.38 66.38 66.54 66.44 66.21 65.65 66.11 65.63 61.42 63.32 63.23 64.09 68.00 67.44 66.52 66.53 66.36 66.44 67.64 67.26 66.78 66.89 67.12 66.81 66.72 66.92
68.18 67.33 67.35 66.81 66.85 66.68 66.62 66.46 66.48 66.60 66.35 65.88 66.26 65.21 64.34 60.64 60.09 61.37 62.83 66.48 65.57 65.67 65.02 66.57 66.55 66.29 65.36 64.30 64.18 64.02 64.35 64.59 64.79
66.64 65.88 66.82 67.61 66.98 67.11 67.04 66.94 66.91 67.23 66.56 66.47 65.37 62.25 57.99 57.66 56.77 57.95 65.07 64.51 64.57 64.23 65.61 64.92 64.26 64.14 63.26 62.56 62.30 62.34 62.54 62.73 63.31
66.31 64.68 66.30 67.65 67.65 67.78 67.44 67.30 67.21 65.45 62.15 61.66 61.09 53.43 55.10 54.59 54.84 56.17 62.89 61.59 62.72 65.20 63.74 62.68 62.44 61.99 61.44 60.90 60.55 60.52 60.71 61.01 61.09
63.84 63.24 64.02 63.74 64.15 63.68 65.46 63.73 61.48 57.21 59.48 55.06 50.22 49.54 51.84 51.67 53.36 58.18 62.37 61.61 63.11 63.08 61.38 60.74 60.12 59.47 58.97 58.38 58.19 58.24 58.45 58.67 58.41
61.92 62.80 62.07 61.48 61.85 60.75 61.07 59.77 54.99 52.97 51.72 48.81 47.09 45.96 47.01 49.26 49.95 54.85 59.56 59.81 63.72 61.43 59.56 58.19 57.48 56.89 56.56 56.42 56.24 56.21 56.36 56.66 56.66
62.24 60.88 60.37 60.25 59.93 59.77 59.19 55.70 52.57 48.49 46.14 45.34 45.09 44.94 43.78 47.57 50.03 53.63 60.74 62.18 60.73 59.26 57.22 56.37 55.99 55.42 55.16 55.31 55.21 55.22 55.42 55.58 55.27
60.30 58.77 58.63 58.57 59.04 57.92 55.48 52.65 49.66 45.65 44.65 43.20 42.91 42.22 42.99 46.37 49.32 51.55 54.64 59.40 57.65 56.25 54.98 53.53 52.81 52.89 53.41 54.17 54.51 54.30 54.28 54.47 54.67
59.19 58.52 57.94 56.55 55.58 54.34 50.62 46.89 45.15 44.02 43.60 41.65 41.46 41.03 40.27 42.62 47.35 48.82 48.46 50.78 55.36 52.89 51.83 50.98 50.97 50.64 52.06 52.57 53.02 53.16 53.15 53.13 53.10
58.20 57.32 56.14 54.23 52.29 49.54 47.02 44.83 42.88 41.84 41.09 39.97 40.05 40.50 41.27 40.21 45.39 45.77 44.43 43.88 45.09 48.71 49.24 48.62 48.90 49.45 50.60 51.61 52.68 52.21 51.40 51.86 51.85
58.09 56.65 54.62 52.80 49.41 46.90 45.73 42.48 41.88 39.77 39.18 40.24 38.98 40.28 41.00 40.39 43.26 42.59 42.04 42.14 42.13 40.37 47.38 47.47 47.04 46.92 48.04 49.20 50.25 51.00 50.48 50.74 50.60
57.67 54.95 52.53 49.47 46.71 44.24 42.82 41.13 39.32 38.41 37.61 41.14 40.80 39.46 40.70 39.60 39.33 39.52 40.94 40.44 39.98 39.04 37.88 36.87 39.12 44.99 45.61 46.44 47.60 49.09 49.65 49.41 49.71
56.18 53.09 49.38 46.81 46.35 43.76 41.90 40.23 38.69 37.00 36.83 37.97 38.18 41.32 39.96 39.49 39.89 39.46 38.90 39.61 39.30 37.09 36.18 35.40 35.18 36.11 43.56 43.89 45.83 47.06 47.52 48.16 48.97
56.29 51.94 48.63 46.04 43.85 42.07 41.21 40.98 38.68 37.30 36.54 36.14 37.44 37.67 38.04 39.14 40.07 40.21 39.69 37.36 37.28 36.54 36.35 34.77 34.84 34.16 34.09 37.28 44.76 44.50 45.65 47.23 48.76
54.69 50.67 47.76 44.87 43.63 42.03 40.59 40.54 39.91 37.00 35.86 36.62 37.71 34.17 33.98 33.24 35.59 36.43 35.88 35.31 34.45 33.76 34.50 34.93 34.78 34.20 33.32 37.04 38.18 43.52 44.35 46.30 48.30
52.63 49.59 47.79 47.10 44.52 41.70 40.60 41.28 40.83 39.11 35.49 35.88 37.77 35.01 34.68 31.75 31.28 34.03 34.42 33.66 34.50 32.74 32.67 32.88 33.33 33.19 33.17 36.90 40.12 43.14 44.66 46.02 47.91
51.38 48.89 46.63 46.53 45.04 43.51 42.94 42.20 41.26 38.41 36.75 35.83 35.15 33.83 33.41 32.10 30.77 29.40 30.94 32.79 32.69 32.73 32.36 31.85 31.31 32.32 32.33 33.27 37.92 43.03 44.04 45.59 47.03

GFSFLT1_sfc_wetblb_057.txt.gz
Wetbulb
66.51 66.22 67.58 68.29 69.27 68.84 68.60 68.10 67.61 67.15 66.58 65.88 65.97 66.79 65.64 63.50 60.99 59.82 62.36 63.30 67.40 67.19 67.80 69.45 69.40 68.19 68.37 68.85 67.04 67.05 67.80 67.49 67.78
65.85 65.62 66.65 67.76 67.83 67.79 67.74 67.66 67.33 66.93 67.00 66.79 66.43 65.74 65.34 61.28 61.54 62.48 62.42 63.85 68.72 69.15 68.74 68.73 68.75 68.58 68.77 69.49 68.85 68.37 68.11 68.10 67.65
66.03 65.66 65.66 66.90 67.46 67.24 67.20 66.99 66.95 66.72 66.47 66.38 65.90 65.91 65.05 62.52 62.60 62.46 63.34 67.66 68.15 67.97 68.08 67.51 67.48 68.42 68.16 68.25 68.01 67.69 68.15 68.42 68.47
66.38 65.90 65.78 66.38 66.99 66.95 66.67 66.37 66.29 66.43 66.29 66.22 65.95 65.82 65.09 61.24 61.42 62.59 62.86 68.16 67.24 67.09 66.47 67.06 67.78 67.05 66.25 66.04 65.26 65.07 65.39 65.91 66.48
66.95 67.17 67.40 66.95 66.88 66.82 66.60 66.34 66.45 66.39 66.23 66.03 65.62 64.92 63.83 59.62 59.94 60.65 62.67 66.44 66.23 65.52 66.59 66.58 66.14 65.33 64.42 63.92 63.89 63.78 63.83 64.14 64.24
65.68 65.22 66.58 67.53 66.98 66.68 66.60 66.54 66.69 66.90 65.98 65.77 64.03 60.46 59.03 56.87 57.22 58.34 65.35 64.93 65.08 65.70 65.49 64.38 64.40 63.65 62.60 62.04 61.85 61.76 61.86 62.25 62.00
65.94 64.08 66.03 67.38 67.42 67.61 67.21 67.16 67.24 65.21 61.41 59.64 56.28 55.37 54.35 54.65 54.79 55.93 63.57 62.43 64.78 65.00 63.39 62.93 62.43 61.77 60.78 60.24 59.98 59.95 60.09 60.11 59.82
64.08 62.68 63.23 63.33 64.16 63.72 65.33 63.89 61.19 58.07 59.10 50.78 49.28 52.11 51.31 51.48 52.84 57.65 63.22 61.87 65.23 62.63 61.59 60.65 59.92 59.07 58.39 57.97 57.83 57.66 57.60 57.91 57.68
62.03 61.80 61.63 61.47 61.73 60.63 60.98 59.56 55.61 52.72 52.61 47.40 46.24 46.72 48.77 48.62 49.28 53.25 59.78 62.14 63.38 61.53 59.37 58.30 57.63 57.18 56.85 56.55 56.33 56.37 56.49 56.66 56.29
61.64 61.46 60.91 60.27 60.02 59.50 58.89 56.99 51.52 47.66 45.64 44.74 44.85 43.64 46.02 46.98 50.96 54.17 61.61 62.94 61.19 59.32 57.86 56.99 56.16 55.24 55.30 55.63 55.57 55.45 55.47 55.60 55.64
62.45 60.60 60.04 59.14 59.17 59.02 58.16 53.66 48.55 44.83 43.45 42.24 42.48 41.95 45.45 47.70 50.43 52.16 55.20 60.32 58.41 57.02 55.47 53.98 53.40 53.25 53.63 54.13 54.00 54.12 54.49 54.46 54.37
61.44 60.06 58.32 58.12 58.27 57.22 53.32 47.68 44.41 43.18 42.77 40.95 40.63 40.26 40.83 46.17 48.86 49.25 49.06 50.85 56.14 54.05 52.83 51.97 51.52 51.74 52.65 52.81 53.76 53.19 52.85 53.10 53.13
59.62 58.39 57.64 56.54 54.96 52.27 47.48 44.57 42.55 41.46 41.06 39.58 39.33 39.79 39.98 41.45 46.14 46.38 44.94 44.00 45.01 49.29 50.10 49.51 49.48 49.42 50.34 51.40 52.05 52.42 51.31 51.81 51.60
58.81 58.03 56.23 54.00 50.81 48.02 45.74 42.50 42.11 40.35 39.25 39.53 38.24 39.09 39.63 40.45 45.43 42.77 42.02 42.40 41.63 40.16 47.66 47.81 47.13 47.19 48.15 49.36 50.10 50.56 50.79 50.89 50.63
58.16 55.95 54.53 51.98 48.21 45.33 43.56 41.54 39.04 38.88 37.76 40.84 39.74 38.67 39.52 38.69 40.52 41.11 41.24 41.37 40.23 38.63 37.86 36.36 37.94 45.71 45.80 46.65 47.75 49.27 49.66 49.55 49.81
57.89 55.72 53.12 50.32 48.61 46.25 42.92 40.15 38.98 37.13 36.45 37.52 37.53 38.45 38.73 38.12 38.35 39.17 39.03 39.94 39.18 38.12 36.21 35.29 34.78 35.60 43.91 44.77 45.93 47.23 47.79 48.34 49.09
57.87 55.46 52.55 49.92 45.69 42.51 41.13 40.73 38.37 36.93 36.00 35.97 36.05 35.43 36.78 37.79 37.79 38.58 39.12 37.38 36.84 36.03 35.75 34.83 34.80 34.12 33.88 37.09 44.99 45.63 46.48 47.51 48.75
57.97 55.33 52.39 48.78 47.95 44.76 44.01 41.79 40.15 36.89 35.16 35.61 37.34 33.50 33.53 33.17 34.36 35.17 34.98 34.89 34.02 34.14 34.04 34.30 34.23 33.54 33.13 35.57 37.42 43.38 45.24 47.14 48.87
55.51 54.32 50.75 49.57 49.58 45.89 47.10 45.33 43.26 40.42 37.49 35.98 36.43 33.94 34.40 31.73 30.48 32.67 32.95 32.98 33.95 32.56 32.93 32.39 32.85 32.72 32.86 37.45 41.48 43.67 44.68 46.58 48.49
53.84 52.48 48.80 47.69 48.38 48.26 46.79 46.85 45.55 42.07 40.09 38.75 35.49 33.01 33.70 33.72 32.32 28.82 29.88 32.30 32.57 32.61 32.47 31.60 31.32 31.77 32.16 32.98 37.26 41.70 43.33 45.46 46.74

GFSFLT1_sfc_wetblb_060.txt.gz
Wetbulb
67.02 67.46 68.48 69.57 70.40 70.17 69.81 69.40 68.45 67.59 66.70 66.27 67.45 66.80 65.81 63.70 60.41 59.54 62.19 63.30 67.55 68.98 69.28 69.15 69.36 68.81 69.19 69.77 66.70 66.88 67.39 67.44 67.43
66.67 67.09 68.08 68.35 68.87 68.48 68.40 68.04 67.65 67.26 66.95 66.49 66.75 65.84 65.17 60.67 60.41 61.33 62.09 64.05 68.94 69.05 69.09 68.63 69.14 69.19 69.30 69.04 69.08 69.29 68.89 68.83 68.80
66.12 66.29 67.89 68.02 67.99 67.87 67.89 67.51 67.26 67.27 66.62 66.52 65.90 65.82 64.67 62.19 61.91 61.71 62.83 67.09 68.21 68.14 67.49 67.57 68.22 67.84 67.12 66.83 66.58 66.88 67.48 68.21 68.57
65.97 65.81 66.52 67.74 67.81 67.47 67.09 66.59 66.14 66.30 66.38 66.29 65.99 65.77 64.69 61.09 61.14 62.47 62.93 68.01 67.52 66.79 67.99 67.61 67.21 65.95 65.49 65.27 65.09 64.95 64.93 65.71 65.79
66.77 66.71 66.96 67.07 67.25 66.92 66.57 66.29 66.36 66.70 66.53 65.92 65.29 64.87 63.34 59.21 59.73 60.28 62.28 66.84 66.18 66.64 66.89 66.37 65.33 64.59 63.96 63.59 63.52 63.41 63.80 63.62 63.53
64.56 64.93 66.63 67.63 67.16 66.66 66.40 66.26 66.75 66.70 65.99 65.21 62.00 61.34 58.15 56.53 57.13 58.01 65.65 65.65 65.64 66.24 64.96 64.72 63.94 63.01 62.31 61.78 61.65 61.69 61.78 61.43 61.24
64.61 63.41 65.91 67.33 67.32 67.34 66.82 66.99 67.05 63.38 60.58 55.97 57.95 55.26 54.40 54.54 54.26 55.31 63.84 63.87 66.29 64.64 63.54 62.91 62.19 61.19 60.26 59.85 59.81 59.77 59.57 59.47 58.96
63.65 61.87 62.51 62.70 63.87 63.32 64.60 63.18 60.70 58.94 57.43 49.96 52.47 51.79 51.26 51.50 52.39 56.82 63.63 63.81 64.87 63.09 61.59 60.55 59.64 59.03 58.51 58.30 58.19 58.06 58.24 58.18 57.89
62.15 61.60 60.82 60.97 61.55 60.64 60.94 59.32 54.17 56.86 50.15 47.29 47.45 48.79 48.93 48.13 48.91 51.75 59.36 64.61 63.21 61.63 59.81 58.75 58.26 57.68 57.27 57.26 57.11 57.00 57.06 56.99 56.99
61.52 61.32 60.65 60.09 59.97 59.35 58.95 56.55 50.79 47.81 45.94 44.74 44.49 45.35 46.15 46.91 51.24 54.21 62.18 63.30 61.57 59.53 58.72 57.71 56.29 55.94 56.08 56.19 55.70 55.58 55.99 55.89 55.80
61.84 60.72 60.19 59.43 59.01 58.67 58.38 54.54 47.45 44.27 42.91 42.38 42.66 42.77 45.61 48.52 50.85 52.41 56.02 60.95 59.06 57.77 56.33 55.19 54.50 54.36 54.68 54.40 54.45 54.43 54.40 54.57 54.46
61.89 61.20 59.50 59.29 58.65 58.10 55.16 48.84 44.24 42.75 42.19 40.49 40.20 40.82 43.36 47.27 49.10 49.52 49.41 51.54 57.12 55.44 54.21 53.41 52.71 52.80 53.20 53.76 53.64 53.39 52.40 52.68 52.81
60.53 60.48 59.85 58.68 57.47 56.17 51.15 45.23 42.64 41.47 40.92 39.64 39.46 38.90 39.59 43.94 46.47 46.75 44.73 44.36 44.77 50.81 51.68 51.09 50.48 50.29 50.67 51.49 51.70 51.65 51.74 51.32 51.43
60.53 59.80 59.22 57.15 54.83 52.05 48.14 42.78 42.47 40.57 39.18 39.51 38.30 38.30 38.72 41.93 45.86 43.45 41.83 42.76 41.08 40.42 49.58 49.17 48.08 47.87 48.57 49.28 49.88 50.45 50.61 50.58 50.58
59.61 58.66 57.42 55.58 51.89 47.89 44.33 42.09 39.30 39.78 38.72 40.44 38.94 38.09 38.46 38.73 42.08 41.50 41.81 41.30 39.62 38.35 37.96 35.87 37.64 46.26 46.52 47.04 48.00 49.05 49.37 49.31 49.68
58.58 58.12 56.26 54.01 51.80 49.16 45.21 40.73 39.31 37.08 36.96 37.64 37.10 37.67 38.01 37.17 38.02 38.95 37.66 38.91 38.01 36.01 34.90 34.40 34.11 35.16 43.29 44.56 45.86 47.80 48.38 48.65 49.19
58.53 57.18 56.05 53.58 49.44 44.89 43.25 41.09 38.04 36.97 36.98 36.84 35.80 35.17 36.43 37.00 37.29 37.34 37.87 36.43 36.02 34.83 34.65 33.42 33.50 32.98 33.08 36.99 43.79 44.55 46.27 47.97 49.30
58.93 56.64 55.69 53.00 50.90 47.13 44.68 43.86 41.65 38.61 36.46 35.87 38.06 33.64 34.41 33.45 33.63 34.82 34.99 34.42 33.25 32.96 33.17 33.22 33.13 32.27 32.35 36.00 38.61 44.38 45.46 47.17 48.95
58.74 57.16 55.64 53.03 50.37 47.89 47.15 45.93 46.78 45.05 40.70 39.55 38.84 37.06 37.53 33.41 30.57 31.99 32.02 32.10 32.81 31.35 31.79 31.43 31.85 31.96 32.36 36.84 40.68 42.78 43.81 45.95 47.96
58.38 56.35 53.51 49.92 49.36 49.95 48.36 46.76 46.62 47.22 43.32 41.43 40.08 38.76 35.42 34.04 33.08 31.83 31.54 31.62 31.87 31.61 31.27 30.58 30.20 30.99 31.35 32.19 37.00 41.51 43.10 45.22 46.72

GFSFLT1_sfc_wetblb_063.txt.gz
Wetbulb
68.02 68.12 69.90 71.01 70.76 71.01 70.85 70.48 68.82 67.26 66.85 67.86 67.97 66.94 66.24 64.83 65.38 66.53 67.45 68.28 68.70 69.73 69.69 69.53 69.41 69.69 70.18 68.64 67.78 67.32 67.29 67.73 67.28
67.76 67.97 69.36 70.24 70.14 69.78 69.32 68.79 68.24 67.75 66.83 67.77 66.87 66.54 65.09 65.60 65.81 67.11 68.18 68.34 69.07 69.22 68.82 69.28 69.11 68.69 68.31 68.45 68.45 69.40 69.35 69.43 69.28
66.98 68.16 68.34 68.76 69.03 68.99 68.71 68.22 68.04 67.27 67.07 67.08 66.54 65.90 65.25 65.68 66.31 66.83 68.15 68.81 68.16 67.73 68.18 68.40 67.51 66.89 66.40 66.56 66.43 66.91 67.57 67.55 67.90
66.51 67.52 68.31 68.36 68.16 68.10 67.86 67.61 66.87 66.99 66.83 66.53 66.35 65.62 64.99 66.46 66.21 66.35 67.39 68.34 67.26 68.36 68.14 67.63 66.60 65.65 65.43 65.19 65.04 65.19 64.69 64.95 65.38
66.82 66.96 67.91 68.27 67.99 67.52 66.82 66.56 66.86 67.10 66.71 66.13 65.70 65.14 64.18 65.29 65.81 66.23 66.42 67.06 66.49 67.55 66.81 65.78 64.62 64.31 63.81 63.51 63.62 63.55 63.25 63.07 63.10
65.70 65.26 66.69 67.73 67.54 66.87 66.65 66.70 67.34 66.91 66.22 64.06 63.61 63.06 64.38 63.93 64.04 64.90 66.74 65.65 67.22 65.79 65.37 64.32 63.60 62.74 62.17 61.82 61.73 61.43 61.06 60.76 60.82
65.63 64.71 66.30 67.84 67.39 67.27 66.81 67.27 66.50 64.68 64.57 61.42 61.54 63.27 62.14 61.86 61.63 62.50 64.17 65.66 65.90 64.51 63.72 62.88 61.67 60.83 60.36 60.06 59.88 60.10 60.04 59.57 59.41
66.07 65.53 66.19 66.97 65.15 66.78 67.18 66.95 65.71 64.39 61.61 59.15 60.76 60.28 59.93 59.98 60.20 60.95 63.03 66.04 64.88 62.86 61.69 60.56 59.64 59.26 58.95 58.85 58.78 58.94 58.59 58.27 58.20
66.78 65.33 65.38 66.00 66.35 66.19 66.58 65.39 62.21 62.58 58.08 57.67 58.57 57.91 57.82 57.20 57.39 57.89 59.45 65.19 63.74 61.55 59.95 59.19 58.43 57.99 58.04 58.01 57.69 57.44 57.39 57.29 57.03
66.69 66.34 65.09 65.00 65.49 65.09 65.13 63.27 59.16 59.44 54.95 53.71 54.99 54.81 54.60 54.64 57.57 61.51 62.59 63.97 61.95 60.35 59.53 58.01 56.83 56.76 56.92 56.43 56.08 56.39 56.05 55.85 55.69
65.76 65.94 65.33 64.39 64.56 64.29 64.21 61.68 56.84 55.27 52.91 51.41 50.90 52.37 53.15 55.28 58.52 61.26 62.20 61.70 60.49 58.87 57.44 56.15 55.24 55.31 55.45 55.43 55.02 54.99 54.62 54.47 54.60
64.92 65.18 65.22 64.80 64.01 63.42 62.63 58.26 53.35 51.21 49.69 49.50 49.40 51.02 52.50 54.76 56.56 57.94 58.57 58.58 58.23 57.18 55.69 54.71 54.06 53.51 53.97 53.91 54.04 53.58 52.47 52.90 52.83
64.74 64.58 64.98 65.24 63.90 62.79 60.70 56.02 51.89 50.62 49.69 48.32 47.83 48.15 50.38 52.86 54.56 54.92 54.19 53.69 53.52 54.58 53.13 52.80 51.29 51.28 51.57 52.23 52.01 51.93 51.74 51.56 51.78
64.35 64.19 64.68 64.68 63.53 61.83 59.04 53.27 52.20 49.65 48.51 47.74 46.90 47.23 47.34 50.29 51.93 52.63 51.33 51.27 50.51 50.64 51.15 50.33 49.24 48.74 49.14 49.80 50.38 50.97 50.84 50.57 50.77
63.54 63.54 63.76 63.57 62.31 60.32 56.48 53.16 49.13 49.81 48.51 44.82 45.22 46.90 47.07 48.02 50.72 50.74 48.76 49.31 47.73 48.49 48.36 46.37 46.75 47.28 47.50 47.63 48.52 49.52 49.99 49.63 49.94
62.75 62.82 62.72 62.01 61.18 58.97 56.71 51.76 48.33 45.79 46.12 45.43 45.34 45.85 46.18 45.47 47.76 48.90 48.08 47.38 46.21 45.51 44.45 44.16 44.23 43.95 43.71 44.52 46.25 47.87 48.41 49.28 49.62
62.30 62.03 61.41 60.63 59.86 57.56 53.71 50.50 46.70 45.94 45.29 46.31 45.33 43.96 43.89 44.47 44.46 45.71 45.51 45.72 44.68 43.39 42.39 42.12 42.17 42.83 42.86 43.13 43.60 44.72 46.32 47.98 49.31
62.43 61.74 61.08 59.76 59.52 56.50 53.30 50.90 50.20 45.67 43.43 44.38 47.37 41.81 43.91 42.41 42.22 43.26 43.95 43.49 43.02 42.50 41.37 40.77 40.50 40.84 41.93 42.38 43.70 44.45 45.14 46.93 48.86
62.41 61.61 60.94 59.59 58.15 56.21 53.48 50.44 51.12 49.32 44.64 42.20 42.01 42.57 43.83 42.40 37.75 39.56 40.95 40.58 40.82 40.67 40.46 39.95 39.45 39.92 40.76 40.48 41.49 42.40 43.47 45.58 47.66
62.00 61.63 60.41 59.43 57.20 56.29 52.68 50.78 49.56 50.35 47.97 46.39 41.40 41.52 40.37 38.81 39.16 36.86 35.58 38.04 38.13 39.02 39.11 39.02 39.01 38.59 39.17 39.91 40.26 41.06 42.64 44.70 46.35

GFSFLT1_sfc_wetblb_066.txt.gz
Wetbulb
68.03 67.99 70.63 71.26 70.84 70.44 70.93 70.02 67.80 67.16 67.98 68.31 67.81 67.11 66.10 65.60 68.07 68.82 68.58 69.37 69.76 69.71 70.07 69.58 69.56 69.95 69.67 69.34 68.50 67.22 67.69 67.93 67.25
67.95 67.76 70.45 70.56 70.96 70.82 70.06 68.88 67.87 67.28 68.17 67.99 67.14 66.43 65.45 67.16 68.38 69.04 69.39 68.90 68.89 68.86 69.45 68.90 68.52 68.03 68.01 68.01 68.98 69.11 69.09 69.46 69.07
67.66 67.85 70.01 70.14 70.13 69.74 69.14 68.56 68.00 67.14 67.71 67.30 66.72 65.78 66.07 66.30 67.05 68.13 68.63 68.62 67.70 68.35 68.56 67.58 66.99 66.85 66.37 66.44 66.86 66.61 66.81 67.28 67.47
67.49 68.18 68.08 68.90 69.19 68.86 68.47 68.19 67.14 67.30 67.00 66.72 66.33 65.68 65.95 67.58 67.27 67.02 67.65 67.90 68.42 68.73 67.85 67.09 66.15 65.33 65.11 65.02 65.11 64.83 64.79 65.11 65.23
67.26 68.28 68.94 68.33 68.24 67.79 67.22 66.81 67.10 67.05 66.73 66.34 65.71 65.69 64.81 67.07 67.11 67.83 67.34 66.59 67.85 67.45 66.25 65.05 64.30 64.03 63.87 63.68 63.58 63.09 62.89 62.87 63.08
65.95 66.07 67.31 68.48 67.99 67.16 66.78 67.12 67.46 66.98 66.07 64.90 65.07 64.65 67.43 66.85 66.86 67.05 67.00 66.26 66.75 66.08 64.97 63.95 63.17 62.42 62.10 61.96 61.51 61.24 61.04 60.86 61.02
65.27 64.89 66.69 67.72 67.83 67.54 67.00 67.65 66.67 65.75 65.98 64.80 63.18 66.65 66.32 66.11 65.71 65.14 63.84 66.86 65.89 64.74 63.93 62.62 61.39 60.66 60.12 60.01 60.28 60.17 59.81 59.73 59.57
65.62 66.24 66.60 66.99 65.33 66.17 66.93 67.36 66.51 66.16 65.52 64.45 65.17 65.26 65.10 64.71 63.80 62.20 62.14 66.25 64.97 63.52 62.01 60.77 60.00 59.31 59.14 59.05 59.20 58.93 58.73 58.68 58.35
66.51 64.99 65.91 66.34 66.01 66.12 66.72 66.66 66.36 66.07 64.38 63.92 63.57 63.33 63.22 63.09 62.32 60.74 60.22 65.72 63.76 61.94 60.45 59.50 58.70 58.60 58.51 58.12 57.73 57.71 57.46 57.29 57.01
67.87 67.22 65.92 65.50 65.94 66.00 66.21 66.13 65.17 65.28 63.69 61.95 61.66 60.83 60.33 59.31 59.88 60.34 62.24 64.79 62.62 61.09 60.11 58.63 57.73 57.63 57.33 56.50 56.62 56.41 56.17 56.06 56.13
67.79 67.59 67.10 65.89 65.71 65.89 66.04 65.54 64.27 63.74 62.06 59.88 58.62 58.55 58.09 57.91 58.97 60.86 62.88 62.54 61.68 59.92 58.84 57.32 56.46 56.64 56.05 55.73 55.33 54.90 54.30 54.38 54.57
67.66 67.54 67.33 67.22 65.63 65.36 65.47 65.37 63.80 61.51 60.04 58.47 56.68 56.64 56.70 57.33 58.09 59.67 61.42 60.47 59.28 58.94 57.31 55.98 55.19 54.99 54.97 54.18 53.88 53.44 52.42 52.55 52.56
67.33 66.84 66.81 67.54 66.95 65.31 64.53 63.99 61.53 60.11 57.78 56.55 55.18 54.96 55.62 56.31 56.88 57.85 58.31 58.42 57.12 56.53 55.84 54.74 53.08 52.64 52.70 52.88 52.16 51.77 51.40 51.27 51.56
66.93 66.54 66.66 67.25 66.53 65.75 64.29 63.10 62.06 59.43 57.36 55.67 54.37 53.51 53.24 54.41 54.86 55.79 56.23 56.32 55.47 54.97 53.49 53.21 51.10 50.36 50.50 50.18 50.23 50.42 50.31 50.10 50.18
66.69 66.25 66.09 66.44 65.91 65.11 64.78 61.75 60.79 60.19 58.59 53.59 52.08 52.65 52.36 52.25 53.75 54.42 54.26 54.22 53.66 53.20 52.49 50.75 49.27 48.40 48.35 48.13 48.43 49.04 49.81 49.84 50.01
66.51 66.10 65.90 65.69 65.20 65.09 64.67 61.91 58.76 56.03 57.03 52.85 51.61 51.04 51.08 50.41 51.95 53.53 53.17 52.28 51.73 51.44 51.27 49.34 48.35 47.04 46.05 45.37 46.18 47.11 47.65 48.69 49.49
66.29 65.97 65.75 65.17 64.19 64.68 64.36 61.60 57.34 57.40 54.37 54.12 54.57 50.86 49.39 49.28 49.83 51.65 51.50 51.31 50.87 49.48 48.91 48.03 47.26 47.13 46.89 46.52 43.85 44.67 46.26 48.22 49.52
66.83 66.26 66.45 65.60 64.46 63.73 63.83 61.60 58.09 55.16 52.65 54.79 55.59 50.57 50.51 49.09 49.14 48.49 49.80 49.30 49.00 48.63 47.62 46.25 46.05 45.98 45.97 44.50 44.96 44.14 44.34 46.21 48.09
66.65 66.43 66.26 65.47 64.71 63.47 63.11 61.12 59.10 58.20 52.05 50.69 49.49 49.46 51.49 48.63 45.29 45.94 47.36 47.91 47.06 46.96 45.71 44.92 44.41 44.17 45.11 42.92 42.80 42.33 43.04 45.20 47.11
64.29 64.79 65.21 64.74 63.97 63.21 62.37 59.40 57.97 58.17 56.34 52.11 48.85 48.38 47.18 46.30 45.68 47.48 42.31 43.32 44.29 45.11 44.48 44.03 43.58 43.06 43.25 43.46 42.01 40.76 42.02 44.13 45.81

GFSFLT1_sfc_wetblb_069.txt.gz
Wetbulb
67.91 67.56 69.71 71.07 71.48 71.16 70.86 69.12 67.85 68.02 68.28 68.05 67.68 66.72 65.64 66.53 67.95 68.38 69.11 69.15 69.98 70.35 70.19 69.56 69.68 69.81 69.44 70.11 68.34 69.13 68.95 67.79 68.25
68.33 69.53 70.88 70.95 71.00 71.08 69.95 68.23 67.57 68.26 68.33 67.64 67.15 66.07 65.98 66.55 67.78 67.99 68.33 67.76 68.73 69.71 69.35 68.60 68.07 67.86 68.11 68.65 68.64 68.82 69.36 69.30 69.18
68.12 69.24 70.76 70.69 70.60 70.14 69.40 68.65 67.59 67.75 67.94 67.19 66.61 65.27 66.10 66.27 66.71 66.96 66.62 68.41 68.42 68.99 68.06 67.42 66.72 66.31 66.49 66.79 66.71 66.75 67.05 67.12 67.26
67.88 68.39 69.79 70.15 69.92 69.36 68.84 68.18 67.54 67.19 67.53 66.83 66.18 65.52 65.94 66.90 66.26 67.13 66.45 68.86 69.02 68.43 67.27 66.55 65.72 64.96 65.17 65.18 65.00 64.83 64.98 65.22 65.40
68.07 68.16 68.76 69.29 68.84 68.45 68.00 67.30 67.19 67.09 66.90 66.50 65.89 65.96 65.87 66.70 66.29 66.79 65.69 67.86 68.07 67.13 65.76 64.88 64.65 64.24 63.88 63.51 62.92 62.64 62.63 62.91 62.81
66.07 67.11 67.77 68.71 68.22 67.35 66.97 67.05 67.41 67.30 66.65 66.00 65.46 65.55 66.44 66.20 65.94 66.29 66.78 67.50 66.87 65.92 64.74 64.07 63.24 62.65 62.23 61.75 61.59 61.36 61.30 61.20 61.12
64.41 65.26 66.91 68.19 68.00 67.78 67.19 67.69 67.38 66.27 64.98 64.55 64.18 65.41 66.06 65.64 65.25 64.87 66.34 66.80 65.86 65.04 63.92 62.53 61.67 60.91 60.66 60.85 60.84 60.40 60.22 60.16 59.83
65.15 65.39 65.94 66.94 65.63 66.08 66.42 66.92 65.75 65.35 65.46 64.72 64.73 65.43 65.44 64.67 63.84 62.78 64.07 66.30 65.37 63.94 62.39 61.06 60.47 59.85 59.69 59.89 59.80 59.37 59.17 58.86 58.73
64.12 64.91 64.99 65.65 65.33 65.01 65.16 65.75 65.60 65.64 65.23 64.18 64.11 64.30 63.90 63.26 62.64 60.29 62.43 66.22 64.33 62.60 61.28 60.26 59.43 59.24 59.11 58.67 58.50 58.10 57.83 57.66 57.97
65.97 64.84 64.99 65.61 65.53 65.33 65.49 65.84 65.53 65.13 64.57 63.38 63.26 62.67 62.33 61.23 60.60 60.52 59.65 65.24 63.56 61.79 60.75 59.47 58.73 58.60 57.92 57.43 57.53 56.80 56.62 56.61 56.89
66.78 66.84 65.76 64.95 65.21 65.31 65.45 65.39 64.97 64.35 64.35 62.34 61.96 61.20 60.43 59.62 59.47 60.01 62.16 63.57 63.14 61.06 60.19 58.68 57.92 57.82 56.91 56.51 56.33 55.32 54.82 54.72 55.05
66.66 67.33 66.95 66.67 65.58 64.89 65.12 65.13 64.77 63.54 62.79 61.24 60.16 59.72 59.08 58.28 58.69 59.75 62.27 60.66 60.54 61.08 59.16 57.97 56.85 56.94 56.48 55.69 55.05 54.10 52.92 52.87 52.73
67.19 66.96 66.94 67.20 66.81 64.77 64.33 64.18 63.41 62.33 60.99 59.95 59.02 57.93 57.93 57.95 58.09 58.59 59.35 60.63 58.97 58.13 58.74 56.96 55.94 55.36 54.56 54.57 53.73 52.67 51.65 51.58 51.58
67.06 66.91 66.83 66.79 66.63 65.40 64.58 63.87 63.04 61.38 60.45 59.77 58.31 56.90 56.84 57.01 56.81 56.68 57.34 57.96 57.51 56.07 56.89 56.64 54.92 53.24 53.40 52.54 52.19 51.80 50.58 50.24 50.29
67.23 67.05 66.64 66.64 66.38 64.64 65.31 63.75 63.18 61.98 60.53 58.13 55.97 55.96 55.79 55.63 55.54 55.07 55.57 55.96 55.69 55.54 53.22 51.48 50.33 51.83 51.27 50.56 50.08 49.87 50.02 49.84 50.02
67.46 67.14 66.55 66.58 65.71 65.09 64.05 64.30 62.00 60.74 61.37 57.72 54.51 54.78 54.00 52.91 52.98 54.35 54.49 54.19 53.97 53.64 52.69 51.13 49.95 48.31 49.31 48.63 47.65 48.07 47.57 48.36 49.26
67.50 67.16 66.55 66.46 65.60 65.37 63.77 62.96 61.76 60.04 59.77 55.01 53.72 51.37 51.09 51.00 51.37 52.41 52.65 52.68 52.15 51.33 51.41 50.42 49.05 48.43 46.77 47.18 45.96 45.18 46.67 48.34 49.32
68.50 67.20 66.72 66.57 65.98 64.60 64.89 63.48 62.00 58.03 57.30 57.01 56.43 52.55 51.18 48.98 50.54 49.79 51.34 51.59 51.24 50.59 49.60 48.70 47.94 47.49 47.38 45.97 45.40 45.73 44.88 46.01 47.75
67.00 67.64 66.64 66.02 65.89 64.99 64.31 64.55 63.22 59.53 55.98 54.24 55.73 55.74 53.04 50.33 45.26 48.66 48.80 50.19 49.40 48.97 48.19 46.76 46.09 45.99 45.81 45.09 45.33 44.41 43.15 44.72 47.02
65.36 65.64 65.58 65.60 65.16 65.10 64.08 63.65 63.12 59.79 57.64 53.78 52.47 51.51 50.26 49.52 47.94 44.53 43.94 47.07 47.83 47.97 47.05 45.56 44.79 44.25 43.74 43.73 43.67 42.39 42.09 43.48 45.68

GFSFLT1_sfc_wetblb_072.txt.gz
Wetbulb
68.47 68.68 70.57 71.29 71.91 71.48 70.13 68.76 68.59 68.49 68.41 68.03 67.19 65.88 66.71 67.09 67.12 67.05 68.38 67.29 70.37 70.81 70.03 69.42 69.44 69.44 70.39 70.17 70.13 70.22 69.09 69.36 69.72
69.37 70.24 71.05 71.59 71.65 71.08 69.15 68.66 68.62 68.69 68.23 67.76 66.71 66.13 66.89 65.13 65.95 65.42 64.77 65.61 69.93 69.61 68.62 67.87 67.40 67.77 68.26 68.25 68.44 68.67 69.06 69.10 69.00
68.82 70.32 71.50 71.36 71.24 70.12 69.11 68.56 68.67 68.50 67.87 67.38 66.16 66.42 65.94 64.87 66.05 65.46 65.09 68.82 69.25 68.72 67.53 66.88 66.37 66.29 66.33 66.43 66.50 66.66 66.75 66.98 67.11
69.07 70.58 71.29 70.58 70.39 69.90 69.14 68.37 67.78 68.16 67.52 66.94 66.07 66.37 65.72 64.68 65.29 65.40 65.25 69.20 68.95 67.76 66.64 66.04 65.48 65.42 65.30 64.87 64.64 64.70 65.04 64.95 64.99
68.66 68.42 69.99 70.23 69.84 69.54 68.77 67.83 67.61 67.41 67.14 66.52 66.51 65.69 65.50 63.28 63.69 64.32 65.42 68.59 67.88 66.71 65.64 65.05 64.81 64.41 63.57 63.08 62.86 62.81 62.96 63.03 63.16
65.30 65.66 67.92 69.25 69.01 68.28 67.61 67.50 67.68 67.41 66.62 66.45 65.99 65.18 62.66 63.41 63.94 63.39 68.42 67.79 67.30 65.84 64.72 63.98 63.36 62.83 62.24 62.01 61.77 61.66 61.60 61.31 61.33
64.10 65.12 66.87 68.47 68.07 67.69 67.79 67.88 67.72 65.90 62.52 62.27 64.17 61.62 62.07 61.38 62.03 62.67 68.14 67.15 66.31 65.24 63.75 62.61 61.82 61.37 61.42 61.43 61.09 60.93 60.67 60.26 60.26
62.20 63.22 64.16 64.24 64.58 64.38 65.69 66.02 64.62 62.51 61.45 61.05 60.49 61.25 60.85 60.36 59.58 62.34 67.39 66.63 66.03 64.49 62.72 61.74 60.87 60.50 60.50 60.60 60.25 59.88 59.52 59.60 59.44
60.32 61.83 62.00 63.01 63.36 62.52 62.31 63.23 62.53 61.68 61.51 60.16 59.87 60.12 59.18 58.50 57.77 59.56 65.59 66.45 65.19 63.52 62.11 61.15 60.46 60.13 59.83 59.54 59.08 58.64 58.46 58.75 58.62
59.83 60.77 61.55 61.74 62.34 61.08 61.47 61.61 62.28 61.15 60.81 59.55 59.41 58.94 57.77 56.78 55.79 55.71 63.61 65.45 64.31 62.71 61.74 60.65 60.16 59.69 58.90 58.75 57.89 57.61 57.43 57.68 57.54
61.97 60.76 60.39 61.05 61.28 60.74 61.60 61.32 60.90 60.67 60.30 58.28 58.13 57.37 56.23 55.30 54.74 54.43 59.77 64.10 63.97 62.38 61.63 60.30 59.83 59.28 58.35 58.13 56.98 55.99 55.83 55.48 55.79
62.58 62.80 62.06 61.46 60.86 60.92 60.73 61.01 60.67 59.46 59.94 57.47 56.49 56.03 54.54 54.24 54.13 57.29 59.32 60.53 61.61 62.44 61.13 59.93 59.18 58.84 58.21 57.50 56.71 54.72 53.98 53.72 53.36
62.46 62.71 63.15 63.43 63.03 60.41 59.57 59.66 59.20 58.19 57.47 55.51 54.35 53.35 53.26 52.75 53.39 54.01 58.56 56.65 56.39 59.68 61.27 59.57 58.29 58.26 57.77 56.75 55.72 54.08 52.76 52.57 52.03
63.10 63.15 62.99 63.77 62.71 61.71 59.82 59.11 58.90 57.01 55.33 55.19 53.58 51.57 51.60 52.23 53.89 52.85 53.08 56.16 54.51 52.74 58.56 58.51 57.98 57.09 56.12 56.31 55.26 54.06 52.09 51.13 50.75
62.97 63.10 62.91 62.65 62.20 61.73 60.79 58.70 58.73 57.03 55.83 56.02 53.66 50.50 50.45 51.11 50.99 50.70 52.44 52.01 52.15 51.14 50.54 50.20 50.02 55.05 55.01 54.57 54.02 53.26 51.95 50.66 50.45
63.00 63.18 62.56 62.52 61.58 62.10 61.41 60.09 58.02 56.60 56.08 52.96 49.29 49.25 49.67 48.84 48.72 49.98 49.68 50.78 51.15 49.34 48.13 46.78 45.19 47.58 53.11 52.77 52.59 51.73 50.98 49.70 49.90
63.99 63.03 63.06 62.04 61.35 61.19 61.69 61.14 59.67 56.85 56.26 51.70 47.79 45.20 46.88 47.65 48.75 48.07 49.52 48.92 49.69 49.19 47.85 46.63 44.69 44.27 44.55 45.68 49.99 49.39 48.54 49.75 50.44
64.44 63.12 62.85 62.26 61.88 61.04 61.39 61.23 60.32 58.37 54.72 52.46 50.44 48.05 46.87 44.78 47.24 47.13 47.72 47.67 46.98 47.13 46.88 46.31 44.66 43.54 42.74 46.26 46.53 47.53 48.48 48.32 48.84
65.05 64.44 63.63 62.43 62.15 61.57 60.65 61.51 60.76 58.89 55.35 53.60 54.36 51.31 48.78 44.95 40.93 44.74 45.89 46.80 46.53 45.43 44.94 44.22 43.20 42.12 42.03 44.43 45.55 47.14 45.66 45.98 47.06
64.24 64.53 62.16 64.09 63.57 63.24 62.75 60.98 60.84 60.90 57.68 54.32 51.72 52.42 48.42 46.88 44.35 39.22 41.96 44.00 44.93 45.34 44.70 43.40 41.88 41.80 41.31 40.83 45.17 45.88 43.91 44.39 45.74

GFSFLT1_sfc_wetblb_075.txt.gz
Wetbulb
68.74 69.59 70.42 71.92 71.83 71.13 69.49 68.81 68.68 68.53 68.07 67.14 67.07 67.26 67.61 67.85 65.38 65.33 68.02 67.25 70.45 70.02 69.14 68.73 69.35 69.99 69.94 70.13 70.26 69.76 69.75 69.96 70.02
69.37 69.73 71.85 72.06 71.66 70.51 69.55 69.08 68.90 68.40 67.80 66.76 66.82 66.73 66.69 64.69 63.69 63.58 64.52 66.83 69.35 68.28 68.02 67.45 67.66 67.81 68.44 68.65 68.95 69.20 69.25 69.29 69.41
70.19 70.01 71.47 72.12 70.92 69.57 69.33 69.26 68.94 68.25 67.60 66.54 66.10 66.40 65.98 65.16 64.72 63.97 65.28 69.21 68.84 67.57 66.94 66.30 66.35 66.10 66.18 66.22 66.45 66.78 67.12 67.19 67.10
70.12 70.84 71.67 71.35 70.52 70.31 69.19 68.84 68.77 68.04 67.34 66.23 66.22 66.29 65.70 63.33 63.78 66.11 65.79 69.10 68.04 67.04 66.31 65.87 65.74 65.41 64.84 64.62 64.83 64.94 65.01 65.11 65.30
69.42 70.02 70.54 71.00 70.72 69.67 69.33 68.21 68.17 67.85 67.12 66.18 66.66 65.72 65.06 61.90 62.92 64.61 66.44 68.37 67.55 66.58 65.64 65.13 64.87 64.07 63.34 63.05 62.85 63.01 62.99 63.22 63.17
65.18 66.54 68.69 69.62 69.84 69.26 68.36 68.07 68.19 67.80 66.75 66.34 65.58 64.92 61.64 61.92 62.36 64.06 68.67 67.94 66.94 65.78 64.80 64.06 63.58 62.97 62.44 62.18 62.04 61.86 61.60 61.61 61.71
64.65 64.37 67.46 69.03 68.47 68.28 68.31 68.23 67.91 65.82 62.66 62.37 64.10 61.33 60.43 60.64 61.45 64.62 68.20 67.44 66.30 64.97 63.58 62.99 62.31 62.22 61.99 61.51 61.36 61.10 60.83 60.85 60.92
62.37 63.25 64.31 64.06 64.13 64.51 66.07 66.12 64.42 62.23 60.45 59.88 59.86 60.25 59.51 59.17 60.84 65.63 67.65 66.80 66.15 64.67 62.97 62.02 61.61 61.38 61.58 60.92 60.61 60.18 60.18 59.95 60.06
61.93 61.90 62.39 62.66 62.81 62.08 62.58 62.77 62.30 61.75 61.03 59.56 58.89 58.96 58.39 57.58 58.40 63.34 66.11 66.89 65.95 64.40 62.84 61.77 61.18 61.08 60.88 60.30 59.60 59.25 59.49 59.38 59.00
60.41 60.33 61.52 61.86 62.18 61.74 61.03 61.53 61.45 60.60 59.81 59.27 58.53 58.40 56.50 56.47 56.42 59.27 64.07 66.03 65.55 63.85 62.60 61.87 61.34 60.77 60.22 59.63 58.94 58.54 58.71 58.63 58.08
59.24 59.46 60.14 60.84 61.60 61.08 61.05 60.18 60.66 59.79 59.41 58.20 57.11 56.37 55.34 53.93 54.58 56.83 62.27 64.67 64.81 63.59 62.72 61.80 61.44 60.76 59.98 59.39 58.10 57.55 57.12 57.22 56.67
60.48 59.18 59.38 60.29 60.65 59.35 59.69 59.76 59.57 59.03 59.16 57.47 55.79 55.36 53.57 53.31 53.11 54.87 59.55 61.87 62.65 63.61 62.76 61.54 61.06 60.45 60.11 59.56 57.87 56.66 55.90 55.26 55.00
61.02 61.22 60.45 60.56 59.77 59.06 58.42 58.52 58.31 57.54 57.24 55.61 54.15 53.52 52.84 52.24 51.88 56.82 58.61 58.18 58.40 61.73 63.08 61.55 60.53 60.17 59.79 59.62 58.62 56.57 55.14 54.47 53.71
61.34 61.20 61.87 62.01 61.36 60.21 58.56 57.82 58.00 56.66 55.38 55.01 53.43 51.17 50.80 51.07 52.63 52.77 57.24 55.98 55.27 55.06 60.53 60.70 60.23 60.22 59.32 59.02 58.33 56.38 54.51 53.65 52.69
61.39 61.55 61.77 62.17 61.21 60.53 58.81 57.41 57.39 56.71 55.60 55.55 54.01 50.40 49.79 50.19 50.07 50.48 53.99 56.28 54.44 52.77 53.39 54.18 54.20 58.42 58.49 58.00 57.74 56.83 54.33 52.73 52.10
61.76 61.91 61.62 61.24 61.29 61.60 60.28 58.06 56.92 55.88 54.85 52.04 49.18 48.29 48.27 48.26 49.41 50.07 49.46 50.94 53.51 51.36 51.43 50.20 48.01 51.83 57.31 57.29 56.44 56.02 54.84 52.83 51.67
62.81 61.92 62.18 61.32 60.33 60.39 60.46 59.33 56.99 56.45 54.95 51.37 46.72 45.32 46.61 47.52 48.08 47.96 49.33 48.64 49.91 50.00 49.80 48.10 46.55 46.55 47.64 48.82 55.13 53.98 53.64 51.96 51.60
63.90 62.14 61.52 61.86 61.44 60.43 60.69 60.40 58.44 57.25 55.52 52.62 49.74 45.43 45.20 44.63 45.91 47.14 47.52 47.80 47.49 48.61 48.99 47.99 46.29 45.10 44.75 48.72 50.99 51.68 50.45 51.42 51.97
63.73 63.41 62.63 61.00 60.68 59.97 59.81 60.79 60.36 57.08 55.65 54.53 53.38 52.08 49.60 44.80 43.39 45.76 46.93 47.33 46.57 47.27 46.30 46.95 44.66 43.53 43.39 46.46 47.08 49.10 49.25 49.22 49.62
63.24 63.05 62.41 62.01 60.84 60.73 59.62 59.53 59.65 59.63 58.04 55.35 52.79 52.60 51.51 47.90 44.74 43.46 44.57 46.45 47.09 46.90 46.09 45.40 42.82 43.04 42.87 43.60 46.26 48.51 47.23 46.96 46.99

GFSFLT1_sfc_wetblb_078.txt.gz
Wetbulb
69.17 69.41 71.69 71.97 71.08 69.95 68.89 68.74 68.18 67.55 67.57 67.72 67.96 68.62 68.82 66.87 65.18 66.33 68.71 67.91 70.19 69.34 68.53 68.65 69.81 70.06 70.40 70.18 69.93 69.85 70.08 69.78 68.58
68.94 69.99 71.20 71.70 71.11 70.22 69.22 68.94 68.27 67.69 67.68 67.34 67.17 67.23 67.75 63.48 62.99 64.22 66.25 65.90 68.45 67.80 67.65 67.58 67.29 67.98 68.89 69.10 69.27 69.25 69.46 69.47 69.38
69.25 70.95 71.31 71.62 70.26 69.98 69.47 69.13 68.34 67.68 67.46 66.92 66.46 66.96 66.59 64.11 63.28 64.40 65.38 68.67 67.77 67.42 66.66 66.49 66.22 65.91 66.12 66.56 67.02 67.35 67.40 67.34 67.46
69.40 70.46 71.92 71.58 70.58 70.56 69.82 69.24 68.47 67.58 67.16 66.55 66.32 66.11 65.84 62.55 64.31 65.71 65.41 68.69 67.10 66.82 66.15 65.91 65.65 65.09 64.87 65.14 64.99 65.16 65.35 65.42 65.19
69.68 70.20 71.11 71.03 70.57 69.93 69.73 69.17 68.48 67.56 67.07 66.56 65.94 65.24 64.76 61.90 63.84 64.82 65.80 67.95 67.22 66.32 65.44 64.91 64.37 63.78 63.35 63.21 63.39 63.54 63.60 63.62 63.73
66.46 67.66 69.15 70.29 70.34 69.41 68.79 68.66 68.68 68.00 66.84 66.36 65.70 63.99 60.89 60.85 62.69 64.48 68.65 67.63 66.84 65.60 64.62 64.16 63.39 62.84 62.42 62.31 62.19 62.09 62.27 62.32 62.27
64.03 65.97 67.74 69.43 69.17 68.84 68.70 68.43 68.21 66.14 62.23 61.85 63.95 60.40 59.78 60.69 62.00 64.49 68.49 67.36 66.62 65.08 63.71 63.06 62.58 62.36 61.79 61.63 61.49 61.45 61.37 61.50 61.52
62.16 62.67 65.29 65.17 64.73 64.83 66.03 65.83 63.85 61.20 59.67 59.49 59.27 59.23 58.82 59.63 61.38 65.26 68.05 67.21 66.35 64.80 63.31 62.34 61.99 62.02 61.42 61.18 60.80 60.48 60.34 60.74 60.55
60.70 61.55 62.36 62.25 62.42 62.06 62.76 62.70 61.94 61.03 60.44 58.59 58.38 57.89 58.30 58.65 59.56 63.28 66.49 67.31 66.27 65.06 63.40 62.36 61.67 61.78 61.26 60.51 59.93 59.95 59.80 59.78 59.52
60.58 60.98 61.37 61.41 61.53 61.18 60.96 61.17 60.87 60.25 60.00 59.70 58.95 58.16 57.06 57.32 58.16 61.26 63.94 66.32 66.51 64.92 63.74 62.61 61.91 61.61 61.11 60.12 59.42 59.39 59.38 59.01 58.99
60.43 60.10 60.84 60.99 61.10 61.20 60.69 60.14 60.51 59.74 59.34 59.14 57.66 57.57 55.27 56.06 56.08 59.02 62.10 65.13 65.90 64.78 63.79 63.04 62.38 61.84 61.25 60.15 59.23 58.79 58.85 58.25 57.91
59.58 59.62 58.85 60.25 60.79 61.08 60.06 59.81 59.30 59.32 59.10 57.90 56.12 55.26 53.64 53.15 54.17 55.93 60.06 62.35 63.43 64.63 63.93 63.06 62.34 61.72 61.36 60.73 59.07 58.19 57.55 57.18 56.61
59.08 58.67 58.74 59.30 59.48 59.59 58.49 58.60 57.79 57.62 57.49 57.21 55.71 54.04 52.84 51.67 51.86 53.56 58.42 59.54 59.86 62.54 64.12 63.29 62.30 61.86 61.20 61.30 59.77 58.04 56.77 55.93 55.39
60.84 60.19 59.48 58.97 59.09 58.64 58.64 57.23 57.36 56.38 55.78 56.05 54.72 52.33 51.78 51.52 51.71 52.96 55.84 57.81 57.62 57.04 61.03 62.26 61.96 62.05 60.96 61.04 60.62 58.85 56.84 55.78 54.82
61.05 60.26 60.57 60.85 59.83 59.25 57.55 56.67 56.63 56.57 55.93 56.00 54.54 51.64 50.09 49.88 49.51 50.06 56.01 56.39 56.53 55.98 55.35 57.45 57.05 60.48 61.33 60.58 60.44 59.15 56.88 55.10 54.03
60.86 60.59 60.37 60.83 61.20 60.77 59.83 57.56 56.31 55.54 54.67 52.25 50.41 48.85 48.93 48.10 48.53 49.16 49.37 55.07 56.26 54.99 54.66 54.44 52.91 55.43 60.16 60.41 59.38 59.06 57.48 55.14 53.79
61.04 60.39 60.86 60.82 60.03 59.94 59.63 58.88 56.24 55.81 54.22 52.72 48.36 49.37 48.80 47.79 48.39 47.42 48.96 48.69 52.77 53.63 53.31 52.49 50.20 50.24 51.87 53.02 58.90 58.27 57.45 55.95 53.78
62.16 60.80 60.55 60.38 60.62 60.41 60.12 59.72 58.10 58.29 54.97 52.90 52.57 45.65 46.29 45.39 46.47 46.30 46.08 46.94 47.09 49.00 50.09 49.27 48.51 48.41 48.41 51.60 54.02 55.57 54.95 53.94 52.98
63.90 63.35 61.96 60.64 60.02 59.71 59.44 60.10 59.57 56.57 55.60 54.18 55.64 51.04 48.90 46.63 45.72 44.82 48.24 49.13 48.67 48.27 47.54 47.71 46.77 45.77 45.82 48.47 50.16 51.55 49.41 50.14 51.14
62.60 62.86 61.81 61.27 60.33 59.24 59.02 60.09 59.40 59.48 59.41 55.25 52.31 51.45 51.51 48.88 47.78 48.42 45.04 47.08 47.34 48.20 48.31 48.18 47.05 46.06 44.98 45.67 48.52 49.12 48.46 47.47 47.57

GFSFLT1_sfc_wetblb_081.txt.gz
Wetbulb
70.38 70.92 72.26 71.33 70.54 68.91 68.42 67.56 67.73 68.12 68.20 68.34 69.66 69.82 68.86 67.48 65.84 66.49 67.67 66.74 69.49 68.47 68.55 68.98 69.73 70.57 69.76 69.81 70.09 70.27 69.57 67.82 68.75
69.12 70.68 71.71 70.97 69.93 69.14 68.75 67.99 67.87 67.94 67.93 67.79 68.23 68.67 66.74 63.35 63.73 64.79 64.63 64.98 67.90 67.90 67.72 67.20 66.93 67.71 69.25 69.41 69.48 69.33 69.47 69.33 69.20
69.52 70.14 71.61 70.64 70.10 69.40 69.13 68.13 67.71 67.52 67.31 67.12 67.74 68.02 65.97 63.48 63.74 64.28 64.52 68.19 67.70 66.88 66.68 66.40 66.11 65.84 66.29 66.82 67.23 67.09 67.52 67.57 67.84
69.95 70.47 71.37 70.86 70.58 69.97 69.51 68.56 67.54 67.26 66.76 66.50 66.72 66.93 65.67 62.50 64.24 65.09 64.78 68.11 67.16 66.29 65.89 65.73 65.10 64.86 65.02 65.09 65.15 65.39 65.37 64.93 64.86
69.70 70.12 71.15 71.08 70.66 70.49 69.92 68.79 67.80 66.97 66.62 66.58 66.11 65.53 65.29 62.06 63.49 64.16 64.84 67.65 66.72 65.79 65.03 64.68 63.96 63.53 63.22 63.36 63.45 63.73 63.75 63.89 63.90
65.94 67.77 69.33 70.10 70.19 69.58 68.71 68.52 68.49 67.94 66.83 66.61 65.36 63.05 60.97 60.65 63.04 63.76 68.34 67.12 66.55 65.33 64.35 63.67 63.00 62.45 62.13 62.08 61.99 62.21 62.30 62.18 62.61
66.00 66.17 68.16 69.72 69.12 68.79 68.56 68.27 68.35 65.97 61.19 60.61 63.07 59.71 59.07 59.66 61.91 63.64 68.51 67.04 66.32 64.88 63.74 62.97 62.45 61.94 61.46 61.33 61.15 61.22 61.32 61.27 61.69
62.05 63.96 65.39 65.33 65.13 65.13 66.10 65.30 63.64 60.73 59.06 59.10 58.13 58.61 57.89 59.34 61.37 64.28 68.14 67.28 66.42 64.85 63.46 62.34 62.07 61.76 61.14 60.77 60.52 60.36 60.38 60.56 60.58
60.14 60.95 62.53 62.92 62.97 61.94 62.40 62.38 61.87 60.27 59.46 57.50 57.09 57.24 57.61 58.38 59.97 62.40 66.24 67.88 66.45 65.30 63.58 62.30 61.66 61.73 61.10 60.46 59.91 59.70 59.71 59.65 59.44
59.93 60.14 61.04 61.29 61.29 60.71 60.65 60.94 60.95 59.59 59.09 59.09 58.81 58.14 57.03 56.76 58.64 60.67 63.39 66.32 67.17 65.78 64.38 63.09 62.06 61.71 61.35 60.34 59.53 59.55 59.36 58.94 58.93
59.73 60.02 60.32 60.18 60.51 60.39 60.15 59.94 59.78 59.01 58.42 58.74 58.79 58.03 57.24 55.70 57.43 58.90 61.38 64.87 66.58 65.95 64.88 63.95 62.84 62.14 61.62 60.69 59.61 59.22 59.28 58.68 58.31
59.52 59.68 59.51 60.54 60.52 60.47 59.85 59.35 58.73 58.59 58.64 57.65 58.18 56.57 55.39 54.03 55.69 56.61 59.70 61.76 63.97 65.62 64.96 64.19 63.31 62.57 61.95 61.44 59.94 58.96 58.75 58.10 57.30
58.67 58.96 59.10 59.63 59.62 59.86 59.00 58.56 57.89 57.36 57.23 57.14 57.35 55.58 53.78 52.25 52.89 53.93 57.11 59.62 60.73 63.06 65.08 65.00 63.69 62.90 62.47 62.15 61.19 59.27 57.88 57.05 56.40
58.86 58.53 58.86 58.22 58.22 58.50 58.61 57.53 57.05 56.27 56.20 56.43 56.45 54.80 52.90 52.16 51.71 51.36 53.40 57.66 58.88 58.05 61.11 63.04 63.23 63.40 62.48 62.22 62.13 60.50 58.11 56.58 55.58
59.76 58.95 58.47 58.02 57.42 57.16 56.77 57.06 56.18 56.33 56.17 56.75 55.91 54.03 51.78 50.80 50.22 49.85 52.57 54.93 57.38 56.91 56.53 57.49 58.67 61.47 62.82 61.93 61.85 61.42 59.69 56.78 55.66
60.55 59.97 59.25 59.70 58.47 58.41 58.13 56.59 55.88 55.02 54.57 53.40 51.76 50.50 50.51 49.68 48.85 49.12 49.08 53.45 55.44 55.49 55.18 54.75 55.30 56.46 61.61 62.08 61.34 61.18 60.20 57.21 54.87
60.46 59.85 59.78 59.63 59.95 59.41 58.79 58.07 56.12 55.48 54.18 54.00 51.54 52.00 53.06 49.09 49.50 47.93 48.94 48.06 53.29 54.43 54.44 53.51 53.64 53.01 54.27 56.12 60.61 59.82 59.67 58.15 55.00
60.80 59.93 59.81 59.64 59.75 59.64 59.34 58.47 57.33 57.82 54.25 53.05 55.61 49.04 48.90 46.63 48.08 45.81 45.83 46.89 46.59 49.38 51.96 51.94 52.10 50.12 49.81 52.21 53.57 54.97 55.18 55.96 54.70
63.16 61.70 60.11 59.68 59.54 59.16 58.87 59.05 58.95 58.41 58.55 54.61 55.16 53.57 51.50 49.60 48.73 46.23 46.75 46.39 47.08 47.54 47.79 48.79 48.14 47.75 48.63 51.10 51.61 53.37 54.18 54.58 54.22
62.84 63.03 61.67 60.77 59.27 58.66 58.40 57.91 59.72 59.62 59.61 56.90 55.21 54.39 51.78 49.48 49.33 50.89 50.06 47.14 45.98 47.14 47.54 48.42 48.36 48.48 48.11 48.68 50.59 52.49 53.16 54.30 53.09

GFSFLT1_sfc_wetblb_084.txt.gz
Wetbulb
71.56 72.20 71.72 70.72 69.72 68.18 67.51 68.25 68.81 68.54 68.69 69.95 70.21 69.43 68.99 67.47 65.57 65.70 67.19 65.38 68.79 68.41 68.19 68.27 70.28 70.06 70.32 70.11 70.36 69.53 67.88 68.50 69.43
70.62 71.84 71.35 70.07 69.31 68.70 67.84 68.28 68.32 68.24 68.24 68.89 69.51 68.56 66.86 64.19 63.99 63.86 63.93 64.72 68.26 68.10 67.51 67.02 66.99 67.75 69.03 69.33 69.60 69.64 69.60 69.31 69.02
69.70 71.24 70.96 70.07 69.48 69.23 68.06 67.98 68.07 67.89 67.68 68.10 68.66 67.14 65.69 63.97 63.60 63.60 63.86 68.12 67.58 67.21 66.75 66.51 66.51 65.96 66.23 67.51 67.38 67.01 67.25 67.37 67.36
69.37 70.93 71.25 70.31 69.90 69.52 68.85 67.87 67.67 67.54 67.19 66.88 67.46 66.84 65.31 62.64 63.60 64.46 63.69 68.21 67.13 66.45 66.09 65.49 65.19 65.17 65.20 65.20 65.31 65.60 65.13 64.63 64.54
70.19 69.97 71.00 71.03 70.82 70.13 69.38 68.47 67.45 67.40 66.87 66.31 65.96 65.91 64.75 62.31 63.09 63.49 64.03 67.46 66.73 65.76 65.19 64.35 63.93 63.54 63.38 63.37 63.67 63.74 63.95 64.03 64.11
66.66 67.59 69.32 70.07 70.42 69.76 68.93 68.51 68.07 67.00 65.85 65.83 64.77 63.42 60.70 60.90 62.74 63.15 67.19 66.70 66.36 65.26 64.28 63.44 62.96 62.45 62.22 62.05 62.28 62.44 62.28 62.84 62.76
65.97 65.87 68.16 69.62 69.27 68.85 68.60 68.13 67.74 64.31 60.43 60.02 61.99 59.22 58.68 58.91 61.35 62.86 67.61 66.51 66.19 64.88 63.66 62.69 62.32 61.77 61.38 61.22 61.32 61.46 61.38 61.81 61.88
63.57 64.25 65.63 65.49 64.92 64.74 65.52 64.54 63.01 60.34 58.31 58.23 57.88 58.34 57.20 58.52 60.37 63.55 67.30 67.15 66.25 64.88 63.51 62.23 61.89 61.35 60.83 60.66 60.52 60.47 60.73 60.77 60.85
60.51 62.28 62.90 63.15 63.19 62.21 62.04 61.95 61.46 60.06 58.46 56.43 56.04 56.63 57.18 57.96 59.20 61.17 65.37 67.78 66.62 65.58 63.96 62.48 61.75 61.56 60.77 60.26 59.74 59.52 59.85 59.64 59.79
59.57 59.92 60.72 61.24 61.40 60.76 60.13 60.20 60.49 59.61 58.09 57.70 57.50 57.30 56.52 56.73 57.32 58.99 62.33 66.08 67.39 66.29 64.93 63.53 62.31 61.60 61.26 60.20 59.36 59.20 59.13 58.80 58.89
59.59 59.31 59.51 60.09 60.48 60.34 59.69 59.42 59.46 59.14 57.59 57.39 57.67 57.72 57.51 57.02 55.95 57.68 59.85 64.34 66.40 66.87 65.89 64.73 63.54 62.49 61.90 60.97 59.49 58.90 58.93 58.45 58.26
58.44 59.28 59.08 59.75 59.83 59.83 59.09 58.61 58.20 57.78 57.91 56.80 57.15 57.49 56.57 55.65 54.83 56.17 57.92 60.56 63.65 66.10 66.18 65.16 64.50 63.47 62.71 61.97 60.57 59.21 58.79 58.32 57.54
58.54 58.73 58.97 59.57 59.48 59.31 58.68 58.17 57.37 56.91 56.54 56.62 57.41 57.34 55.89 54.26 52.86 54.31 55.77 58.36 60.35 62.99 65.94 66.17 64.93 64.06 63.49 62.88 61.94 60.31 58.52 57.74 56.88
59.45 58.96 58.97 58.58 58.36 58.25 58.20 57.29 56.93 55.99 55.96 56.12 56.41 56.32 55.49 54.31 52.86 51.23 52.77 54.90 58.56 58.66 61.45 63.49 63.94 64.57 63.70 63.49 62.92 62.01 59.88 57.63 56.07
59.73 58.24 58.05 57.83 57.17 56.67 56.52 56.74 55.86 56.08 55.88 56.59 56.19 55.26 54.64 52.69 51.48 50.95 50.95 52.00 55.29 57.17 57.18 57.34 59.02 62.06 63.77 63.17 62.99 62.48 61.47 58.72 57.23
60.41 59.18 58.01 57.38 57.02 57.17 56.67 55.86 55.58 54.73 54.22 53.82 53.19 52.54 52.60 52.22 50.98 50.19 49.63 50.01 52.98 54.89 55.92 55.53 55.39 56.67 62.09 63.35 62.71 62.35 62.13 60.26 57.28
60.75 59.91 58.86 58.37 58.08 57.11 56.69 56.14 54.86 54.90 53.93 53.78 52.21 53.09 54.53 50.86 50.05 48.83 48.80 48.25 50.34 53.43 54.22 54.15 54.16 54.05 54.39 56.68 61.65 61.49 60.48 60.47 57.81
60.26 59.74 59.53 58.74 59.16 58.99 58.50 57.65 56.61 55.67 54.05 53.70 56.57 51.11 50.65 49.79 51.37 48.48 46.66 46.75 46.44 48.55 51.78 54.03 54.15 53.44 52.62 55.56 56.46 57.64 57.72 59.53 59.61
61.54 60.42 59.39 59.11 58.91 58.74 58.60 58.50 58.31 58.08 58.16 54.71 55.36 54.57 53.08 51.98 50.51 48.00 46.15 46.38 46.53 47.56 46.68 48.74 49.96 49.32 50.87 53.04 53.88 56.12 56.33 57.28 58.16
62.49 62.19 60.83 59.38 58.59 58.34 58.12 57.36 57.30 57.84 57.62 55.25 53.56 52.33 52.10 51.17 50.36 51.50 52.34 48.54 45.99 45.11 45.10 47.46 48.79 48.80 48.84 50.40 52.60 54.93 55.77 57.37 57.65

GFSFLT1_sfc_wetblb_087.txt.gz
Wetbulb
72.22 71.24 70.52 69.86 69.15 68.57 69.20 69.51 69.31 69.49 70.49 70.47 69.91 69.87 69.06 68.84 68.85 68.45 68.89 68.86 68.50 68.46 68.26 69.00 70.46 70.53 70.54 70.52 70.13 68.84 69.55 69.60 69.55
72.30 71.43 70.79 69.85 68.99 68.13 69.00 69.05 69.01 68.96 69.76 70.16 69.67 68.92 67.49 68.76 68.36 68.11 68.41 68.34 68.28 68.11 67.49 67.18 67.33 67.72 69.03 69.23 69.39 69.61 69.57 69.33 69.10
71.57 71.25 70.86 69.91 69.07 68.27 68.78 68.85 68.66 68.48 69.03 69.44 68.20 67.22 66.79 67.35 67.82 67.77 67.88 68.26 67.59 67.37 66.97 66.53 66.41 66.22 66.55 66.77 66.89 66.90 67.04 66.74 66.57
70.61 71.71 71.11 70.11 69.85 69.19 68.64 68.34 68.27 68.04 67.87 68.61 67.46 66.52 65.80 67.72 67.66 66.86 67.32 68.21 67.18 66.62 65.84 65.46 65.48 65.42 65.36 65.59 65.89 65.71 65.49 65.31 65.22
70.04 70.51 70.75 71.06 70.67 69.84 69.35 68.02 67.98 67.59 66.89 66.42 66.31 66.10 65.43 67.35 67.49 67.60 67.52 67.64 66.67 65.80 65.02 64.57 64.20 63.86 63.83 63.97 64.14 64.23 64.24 64.33 64.01
69.16 68.38 69.58 70.35 70.56 69.81 69.25 68.53 67.73 66.89 66.25 65.84 64.69 64.50 66.46 67.15 67.72 67.91 66.88 66.89 66.31 65.26 64.41 63.60 63.42 63.07 62.92 62.66 62.79 62.80 63.08 63.22 63.14
68.40 67.09 68.25 69.79 69.60 69.27 69.02 68.55 67.15 64.56 65.44 65.44 63.86 66.01 65.70 65.94 66.89 67.66 66.78 66.57 66.31 64.82 63.90 62.91 62.76 62.27 62.08 61.88 62.00 62.05 62.16 62.54 62.45
68.30 68.87 69.26 69.51 66.57 68.67 68.33 68.02 67.31 65.30 64.07 64.36 64.61 64.60 64.55 65.08 65.53 66.32 66.51 67.61 66.61 65.14 63.78 62.56 62.35 61.77 61.35 61.23 61.15 60.94 61.26 61.27 61.30
67.49 68.37 68.70 68.85 68.57 67.70 67.83 67.54 67.06 65.75 63.80 62.71 62.64 63.07 63.81 64.38 65.01 65.68 64.86 67.67 67.16 66.16 64.43 62.90 62.13 61.89 61.15 60.62 60.29 60.06 60.33 60.22 60.21
66.10 66.86 67.18 67.44 67.41 67.01 66.48 66.45 66.13 65.84 64.94 63.02 62.13 61.84 62.34 62.29 63.17 64.31 62.06 65.05 67.49 66.85 65.64 64.23 62.93 62.06 61.76 60.64 59.77 59.49 59.60 59.23 59.57
64.70 64.93 65.30 65.80 66.28 66.43 65.81 65.25 65.12 64.93 64.45 63.31 62.01 62.63 63.17 63.18 63.01 63.02 63.34 63.23 66.26 67.15 66.73 65.64 64.48 63.29 62.69 61.76 60.20 59.27 59.25 58.93 58.85
63.16 64.13 63.96 64.41 64.95 65.15 65.02 64.30 64.02 63.60 63.31 62.68 61.97 62.03 62.83 62.43 62.09 61.90 62.43 63.73 63.15 65.80 66.97 66.37 65.41 64.47 63.58 62.80 61.49 59.87 59.13 58.72 58.14
62.80 62.22 62.98 63.98 63.88 64.24 63.97 63.70 63.11 62.75 62.40 62.32 62.85 62.97 62.81 62.64 61.91 60.58 60.90 62.04 63.33 64.27 65.77 66.74 65.84 65.07 64.43 63.85 62.75 61.60 59.96 59.16 57.82
64.11 63.25 63.27 63.26 63.06 63.15 63.04 62.62 62.46 61.86 61.91 61.60 62.31 62.46 62.25 62.33 60.87 60.82 59.76 60.24 61.29 63.07 63.15 63.57 64.56 65.32 64.81 64.43 64.08 63.21 61.26 59.55 58.43
64.35 63.98 63.73 62.74 62.00 61.56 61.47 61.59 61.32 61.60 61.75 60.31 60.39 61.74 61.83 61.63 60.77 60.90 59.93 59.06 58.70 60.18 61.61 63.02 63.43 62.30 64.23 64.43 64.15 63.86 63.14 60.44 58.71
64.47 63.92 63.27 62.01 61.52 61.58 61.28 60.88 60.56 60.47 60.36 59.64 60.65 60.42 61.04 60.51 60.63 60.34 59.32 58.19 57.86 58.27 59.04 60.27 61.66 62.40 62.17 63.69 63.87 63.68 63.29 62.59 59.79
64.81 64.08 63.11 62.37 61.37 60.76 60.60 60.22 59.79 59.81 59.41 59.69 58.01 57.26 59.95 59.74 58.34 58.54 57.70 57.70 56.58 56.38 57.01 58.05 59.28 60.63 59.54 59.70 62.33 63.57 62.93 62.18 60.63
63.68 63.61 63.35 62.83 62.33 62.36 61.67 60.77 60.03 59.83 58.83 59.57 59.67 53.50 53.49 55.17 57.80 55.25 54.43 54.41 54.73 54.51 54.94 56.20 56.69 58.00 58.38 57.72 58.90 59.87 61.65 61.94 61.64
63.08 63.08 62.68 62.75 62.50 61.93 62.31 62.01 61.53 60.86 59.99 57.90 57.10 58.99 57.54 54.41 54.46 54.92 53.42 51.18 52.46 52.98 52.94 52.86 54.04 54.78 55.47 55.24 55.62 57.56 58.94 60.03 60.57
64.64 63.66 62.74 62.05 62.09 62.18 61.84 61.21 60.93 61.08 61.06 60.19 56.61 56.24 55.62 54.96 52.79 51.74 54.63 53.83 49.97 49.10 49.46 49.87 51.83 51.38 53.20 54.14 53.77 56.34 57.50 59.43 60.59

GFSFLT1_sfc_wetblb_090.txt.gz
Wetbulb
71.43 70.00 68.76 69.33 70.19 69.72 69.81 69.64 70.21 70.79 70.37 70.15 70.24 69.87 69.25 69.84 69.94 69.55 69.26 68.36 68.50 68.65 68.50 68.72 69.12 70.24 70.50 70.30 69.97 69.84 69.90 69.72 69.16
71.39 70.01 69.16 68.52 69.14 69.58 69.48 69.41 69.68 70.30 70.17 70.14 69.89 69.08 68.28 69.35 68.70 68.63 68.16 68.22 68.05 67.92 67.65 67.46 67.34 67.68 68.41 68.57 68.49 68.60 68.64 68.17 67.58
71.23 70.30 69.79 68.76 68.59 69.27 69.25 69.09 68.93 69.68 69.69 69.13 68.62 67.83 67.73 67.57 67.79 67.91 67.73 68.13 67.59 67.18 66.53 66.33 66.45 66.52 66.61 66.76 66.80 66.68 66.50 66.49 66.29
71.78 70.86 70.41 69.51 68.53 68.91 68.92 68.66 68.43 68.61 69.26 67.82 66.85 66.51 66.62 67.91 67.83 67.32 67.85 67.78 67.23 66.54 65.65 65.43 65.40 65.25 65.23 65.19 65.13 65.41 65.49 65.40 64.91
70.82 70.51 70.59 70.68 69.62 68.93 68.40 68.32 68.11 67.54 67.43 67.16 66.76 66.07 66.40 67.92 67.98 68.12 67.86 67.21 66.57 65.87 64.97 64.53 64.18 63.99 63.87 64.04 64.13 64.19 64.24 64.11 63.84
69.29 69.36 69.33 70.42 70.39 69.31 68.40 68.00 67.70 66.90 66.36 65.67 66.12 65.17 68.57 68.11 68.26 68.62 67.05 67.00 66.39 65.19 64.21 63.67 63.34 63.14 62.78 62.89 63.07 63.13 63.44 63.44 63.45
68.01 68.59 68.39 69.94 69.77 69.66 69.11 68.07 66.37 65.37 66.98 66.75 64.37 68.29 68.15 68.29 68.58 68.71 66.72 66.65 66.34 64.79 63.82 63.05 62.66 62.27 62.15 62.17 62.31 62.32 62.66 62.68 62.27
68.09 69.55 70.30 69.79 67.18 69.32 68.87 68.45 68.57 66.50 65.55 66.35 67.23 67.60 67.76 67.86 67.94 67.80 66.05 67.80 66.75 65.20 63.87 62.63 62.53 61.84 61.54 61.48 61.33 61.39 61.44 61.73 61.28
67.51 68.48 69.69 69.67 69.45 69.11 69.43 69.28 68.80 67.79 66.59 64.37 64.07 65.25 66.35 66.75 67.44 67.74 65.44 66.92 67.91 66.73 64.88 63.25 62.54 62.18 61.32 60.89 60.65 60.50 60.47 60.58 60.61
68.51 68.89 69.01 69.41 69.69 69.08 68.56 68.14 67.89 67.58 67.31 65.81 63.32 63.07 64.04 64.80 65.54 66.42 63.49 64.55 67.06 67.62 66.61 64.93 63.43 62.57 62.05 60.91 60.16 59.92 59.81 59.56 60.25
67.31 67.89 68.02 68.16 68.31 68.24 67.92 67.04 66.31 66.33 66.82 66.08 63.93 63.45 64.59 65.30 65.64 65.98 65.90 63.12 64.99 67.26 67.32 66.62 65.27 63.92 63.30 62.30 60.64 59.93 59.79 59.36 59.28
66.99 66.15 66.43 66.98 67.13 66.58 67.07 66.64 66.14 65.31 65.15 64.54 64.54 63.12 64.60 65.52 65.61 65.84 65.79 65.64 62.57 65.30 67.33 67.22 66.38 65.38 64.36 63.74 62.43 60.92 60.32 59.56 58.99
67.44 66.72 65.58 66.10 66.30 66.29 66.23 65.90 65.28 64.91 64.87 64.40 64.89 65.03 64.95 65.39 65.85 65.74 65.51 65.32 65.31 64.63 65.81 66.87 66.68 65.99 65.51 64.84 64.32 62.69 61.17 60.44 59.35
68.12 67.56 67.20 66.31 65.93 65.67 65.98 65.53 65.09 64.31 64.39 64.38 64.82 65.34 65.37 65.63 65.19 65.27 65.45 65.27 64.36 65.22 64.36 64.04 64.94 65.78 65.46 65.38 64.96 64.41 62.41 60.94 59.71
68.39 68.28 68.02 67.45 66.30 65.91 65.39 64.79 65.05 64.23 64.23 63.27 63.15 64.88 65.46 65.79 65.69 65.72 65.52 65.22 64.21 64.10 64.15 64.40 63.84 62.94 64.82 65.09 64.92 64.72 64.24 61.98 60.55
69.05 68.58 68.15 67.78 66.53 66.10 65.79 64.73 63.79 63.79 64.16 62.76 63.40 64.01 65.08 64.90 65.44 65.77 65.27 64.40 63.46 63.22 62.80 62.82 63.11 63.37 63.10 64.19 64.46 64.50 64.42 63.77 61.30
68.78 68.29 67.84 67.55 66.25 65.75 65.07 64.05 63.31 63.51 64.35 62.10 62.09 59.89 62.53 64.09 64.26 64.23 63.23 62.56 62.60 61.58 60.91 61.13 61.23 61.77 62.16 62.16 62.61 63.29 63.91 63.91 63.26
67.25 67.62 67.49 67.13 66.42 65.57 65.60 64.91 63.53 62.46 63.47 62.85 61.96 57.04 56.73 59.70 61.73 60.85 60.66 60.00 59.98 58.18 57.51 58.58 58.90 59.09 59.74 59.63 59.15 59.51 60.81 62.88 63.24
66.44 66.61 66.59 66.69 66.25 65.49 66.13 65.65 64.67 63.66 62.34 62.59 61.99 63.31 61.19 57.13 55.07 58.64 59.81 57.43 56.27 55.26 56.81 56.91 56.69 56.95 57.78 56.69 55.78 56.73 58.87 61.09 62.77
66.74 65.70 65.39 65.13 65.31 65.11 65.26 64.82 64.36 64.39 63.47 63.39 62.39 60.49 58.74 57.87 55.36 54.13 58.13 58.13 54.71 53.48 53.66 52.85 54.67 54.87 55.62 56.47 55.18 55.15 57.48 59.47 61.12

GFSFLT1_sfc_wetblb_093.txt.gz
Wetbulb
69.68 68.64 69.79 70.46 70.70 70.13 69.98 70.87 70.94 70.50 70.42 70.60 70.42 69.93 69.78 70.11 68.03 68.03 67.78 67.08 68.37 68.64 68.82 68.65 68.98 69.69 69.78 69.88 70.04 69.88 69.38 68.62 68.03
69.73 68.67 69.48 70.01 70.07 69.76 69.78 70.35 70.57 70.38 70.37 70.32 69.79 68.95 68.75 68.02 67.33 66.73 66.78 67.10 67.73 67.53 67.43 67.58 67.82 68.14 68.16 68.27 68.31 68.15 68.05 67.71 67.25
70.16 69.15 69.31 69.42 69.63 69.61 69.46 69.50 70.18 69.89 69.67 69.39 68.67 67.94 68.07 66.83 66.99 67.21 66.72 68.11 67.31 66.79 66.54 66.39 66.31 66.49 66.82 66.69 66.85 66.76 66.64 66.24 65.78
70.44 70.47 69.80 68.97 69.33 69.32 69.10 68.88 69.46 69.56 68.40 67.46 66.89 66.80 67.42 67.51 67.18 67.25 66.70 67.89 67.11 66.25 65.49 65.11 65.03 64.99 65.22 65.16 65.19 65.31 65.17 64.86 64.60
71.12 70.22 70.31 69.79 69.31 69.06 68.77 68.55 68.07 68.46 68.06 67.14 66.23 66.52 66.74 67.53 67.49 67.36 67.01 67.57 66.77 65.73 65.18 64.70 64.48 64.26 64.17 64.09 64.08 64.46 64.30 64.27 63.94
70.19 68.70 69.30 70.03 69.60 68.65 68.26 68.25 67.51 66.99 66.47 66.26 66.63 65.71 67.47 67.26 67.33 67.53 67.93 67.28 66.42 65.37 64.35 64.00 63.71 63.47 63.33 63.46 63.45 63.70 63.68 63.56 63.27
70.98 68.50 68.28 69.80 69.66 69.34 68.42 67.65 66.75 65.66 66.40 65.66 64.70 66.73 66.70 66.67 66.84 67.12 67.90 67.01 66.50 65.13 63.85 63.55 63.01 62.68 62.71 62.83 62.85 62.95 62.90 62.72 62.70
69.75 70.15 69.28 69.17 67.05 68.75 68.32 67.23 66.86 66.07 64.75 65.42 65.97 66.06 66.28 66.26 66.40 66.26 67.24 67.63 66.86 65.36 63.98 63.02 62.83 62.19 61.99 61.91 61.58 61.86 62.05 61.68 62.00
66.66 68.78 69.78 69.33 68.90 68.50 68.72 68.42 67.97 67.38 66.07 64.08 63.43 64.40 65.06 65.39 65.99 65.89 66.31 66.79 67.73 67.09 65.15 63.36 62.76 62.21 61.50 61.25 60.90 60.92 60.77 60.84 61.03
66.76 67.81 68.78 69.01 69.16 68.98 68.45 67.69 67.40 67.11 66.89 65.68 62.87 62.41 63.42 64.29 64.87 65.56 64.39 65.69 66.60 67.76 67.21 65.43 63.85 63.11 62.26 61.18 60.43 60.21 59.87 59.98 60.19
67.65 68.02 67.99 68.12 68.34 68.06 67.59 66.77 65.90 65.80 66.30 65.72 64.53 62.76 63.57 64.25 65.14 65.81 65.27 64.13 65.18 66.87 67.81 67.52 66.07 64.67 63.84 62.57 60.85 60.21 59.92 59.63 59.32
66.91 66.74 66.88 67.11 67.22 66.40 66.58 66.26 65.67 64.63 64.45 64.21 64.36 63.30 63.29 64.71 65.16 65.79 65.87 64.82 63.03 65.23 67.51 67.63 67.29 66.16 65.22 64.67 63.36 61.96 61.26 60.38 59.75
67.62 66.91 65.51 66.17 66.44 66.17 65.87 65.44 64.87 64.32 64.44 63.98 64.64 64.52 63.89 64.20 65.09 65.88 65.73 66.18 65.45 63.82 65.95 67.13 67.51 66.94 66.29 65.67 65.15 63.43 61.85 61.03 60.23
68.10 67.49 66.87 65.86 65.92 65.79 65.89 65.27 64.97 64.63 64.53 64.58 64.85 65.43 65.45 65.72 65.61 65.33 65.79 66.19 65.82 65.58 64.48 64.49 65.54 66.21 66.35 66.30 65.86 65.31 63.60 62.09 60.90
68.36 68.11 67.89 67.12 66.02 65.52 65.89 65.42 65.55 64.57 64.40 63.61 63.12 64.57 65.55 66.19 65.90 65.72 65.85 65.98 65.93 65.14 65.25 64.54 63.33 63.27 65.42 65.81 65.63 65.36 64.84 63.44 62.01
68.74 68.41 68.26 68.03 66.68 66.26 66.25 65.53 64.54 64.42 64.63 63.32 63.22 63.98 65.04 65.05 65.45 66.01 65.59 65.67 64.98 64.27 64.08 63.70 63.52 63.38 63.81 64.92 65.16 65.20 65.03 64.42 63.43
68.87 68.68 68.28 68.04 67.36 66.70 66.43 65.67 64.16 63.99 64.91 62.26 63.00 59.79 62.78 63.96 64.32 65.12 64.38 64.14 63.93 62.74 62.35 61.80 62.03 62.39 62.60 60.88 62.82 62.94 64.15 64.64 64.22
69.17 68.93 68.63 68.34 67.80 66.32 66.49 65.83 64.32 62.78 64.21 64.12 61.99 58.28 57.31 60.23 62.20 61.41 61.73 61.52 60.96 59.40 58.61 58.35 58.63 59.04 60.01 59.88 59.54 59.09 60.05 61.93 63.63
66.56 66.76 67.05 67.28 67.20 66.46 66.39 66.45 65.46 64.52 62.51 63.42 62.82 63.53 62.57 58.53 56.85 60.38 60.34 58.93 57.80 56.88 56.46 57.14 57.20 56.86 57.52 56.83 55.51 56.02 57.49 60.10 62.03
65.83 65.85 65.84 65.67 66.12 66.14 65.91 65.98 65.54 64.77 63.59 63.43 63.05 61.69 61.73 59.84 57.56 55.54 58.06 59.04 56.30 55.09 54.78 54.70 54.89 55.03 54.96 54.06 53.61 53.77 56.65 58.73 60.03

GFSFLT1_sfc_wetblb_096.txt.gz
Wetbulb
69.53 69.71 70.24 70.54 70.09 70.51 71.06 71.13 70.74 70.74 70.92 70.72 70.47 69.85 70.12 68.26 63.98 64.28 66.30 64.08 67.87 68.47 68.83 69.03 69.05 69.14 69.55 69.63 69.54 69.27 68.95 67.87 67.32
69.35 69.69 70.72 70.55 70.33 70.40 70.99 70.72 70.73 70.64 70.62 70.20 69.39 69.06 68.49 64.30 63.43 63.88 64.13 63.71 67.24 67.34 67.17 67.07 67.99 68.19 68.15 68.27 68.22 68.09 67.40 66.61 65.87
68.82 69.58 70.26 70.23 69.84 69.82 70.22 70.34 70.24 70.15 69.86 69.18 68.14 67.93 67.37 65.01 64.30 64.13 64.39 67.42 66.84 66.51 66.02 65.79 65.94 66.03 66.14 66.36 66.53 66.25 65.89 65.40 65.27
69.52 69.72 70.26 69.75 69.63 69.39 69.43 70.10 69.63 69.01 68.18 67.23 66.99 66.67 66.84 64.11 64.44 65.48 64.30 67.78 66.71 66.16 65.54 65.26 65.20 65.27 65.29 65.28 65.43 65.25 65.08 64.80 64.74
70.47 69.25 69.51 70.19 69.85 69.70 69.54 68.75 69.36 68.67 67.67 66.84 66.65 65.76 65.98 63.16 64.67 64.90 65.40 67.22 66.52 65.86 65.25 64.91 64.55 64.61 64.32 64.46 64.70 64.59 64.49 64.22 64.17
68.39 67.77 68.42 69.21 69.46 69.35 68.74 68.11 67.66 67.24 66.50 66.93 66.42 65.52 63.52 63.52 64.54 64.98 68.01 67.18 66.50 65.51 64.93 64.30 64.15 63.96 63.79 63.74 64.02 63.96 63.66 63.55 63.50
69.31 67.10 68.00 69.24 68.69 68.49 68.48 67.99 67.19 65.32 62.53 61.79 64.18 62.75 62.64 62.88 64.17 65.18 68.07 67.54 66.55 65.45 64.55 64.14 63.73 63.45 63.33 63.19 63.30 63.19 62.94 62.99 62.65
68.79 67.48 67.95 67.21 66.38 66.67 66.73 65.29 63.30 61.03 60.68 62.00 61.45 61.56 61.08 61.34 62.77 65.96 68.11 67.58 67.22 65.82 64.42 63.95 63.38 62.89 62.63 62.23 62.38 62.41 62.14 62.21 61.76
66.97 67.07 67.05 66.64 66.56 66.93 65.72 64.72 64.20 63.64 62.17 59.82 58.45 59.69 59.99 60.64 62.14 64.14 66.18 68.03 67.77 67.08 65.25 63.89 63.38 62.71 62.12 61.83 61.49 61.29 61.21 61.35 61.04
61.99 66.61 67.00 66.05 65.82 65.68 64.99 64.59 63.57 63.39 62.71 61.79 59.17 57.86 58.08 59.57 60.30 62.03 63.96 66.27 67.52 67.82 67.32 65.48 64.06 63.57 62.49 61.65 60.94 60.75 60.22 60.75 60.24
62.61 63.40 65.33 65.02 66.06 65.32 64.18 62.98 62.13 61.81 62.06 61.77 60.09 58.23 58.38 59.43 60.27 61.28 62.13 64.80 66.10 67.20 67.86 67.86 66.38 64.91 64.24 62.78 61.56 61.02 60.37 60.45 59.65
63.26 63.29 63.37 63.37 63.35 62.80 62.68 61.93 61.33 60.13 60.44 59.45 59.97 58.87 57.60 59.91 61.08 61.36 61.41 62.01 63.27 65.61 67.41 67.80 67.81 66.69 65.67 65.06 63.55 62.13 61.35 60.44 59.79
63.20 62.66 62.02 62.83 62.42 61.77 61.44 61.16 60.56 59.71 59.34 58.95 59.37 59.69 58.70 58.81 59.91 61.15 61.59 61.86 62.05 63.30 66.14 67.78 67.82 67.23 66.83 66.39 65.92 64.13 62.42 61.56 60.63
64.27 63.74 62.56 61.63 61.71 61.51 61.92 60.94 60.42 59.68 59.72 60.44 60.22 60.43 60.48 60.99 62.60 61.30 61.55 61.62 61.77 61.41 63.23 64.29 65.46 66.39 66.79 66.82 66.41 65.75 64.31 62.87 61.86
65.06 64.55 64.05 62.11 61.58 61.27 61.40 61.10 60.96 60.19 59.94 61.45 60.25 59.74 60.81 61.62 61.25 61.44 62.57 62.15 61.87 61.32 61.38 61.48 61.93 63.38 65.78 66.14 66.13 66.09 65.24 64.35 63.05
65.54 65.18 64.84 64.32 62.54 62.03 61.90 61.62 60.89 60.18 60.57 59.06 59.03 59.76 60.76 60.89 61.36 61.86 61.62 61.43 61.12 60.20 59.35 58.93 58.78 60.38 63.50 64.93 65.27 65.58 65.43 64.83 63.91
66.55 65.45 65.11 64.87 64.03 63.41 62.92 62.14 60.82 60.82 61.26 58.57 58.23 56.27 58.56 60.29 61.22 60.96 60.14 58.16 58.54 58.12 57.22 56.21 56.50 57.29 59.06 58.88 60.98 60.86 62.24 64.11 64.64
66.82 66.03 65.03 64.82 64.50 63.51 63.38 62.86 61.40 59.58 60.40 60.71 58.63 54.82 54.20 56.44 57.86 57.39 57.38 56.60 54.56 53.84 53.96 54.29 54.85 55.09 56.11 56.41 55.67 57.16 58.50 60.64 62.42
65.78 65.66 65.48 64.97 64.60 63.73 63.08 63.76 62.05 61.15 59.76 60.40 60.88 59.89 58.95 54.76 53.64 56.49 55.48 54.32 53.99 52.71 52.78 53.16 53.18 53.10 53.34 54.02 53.73 55.34 57.60 59.74 61.01
65.15 65.12 64.87 64.54 64.44 64.42 64.13 63.21 63.20 62.51 60.94 60.55 59.34 58.62 58.16 57.98 55.34 53.61 53.44 53.87 51.56 51.07 50.84 50.86 50.19 51.08 50.44 48.54 51.40 53.69 56.11 57.99 59.14

GFSFLT1_sfc_wetblb_099.txt.gz
Wetbulb
69.80 69.70 70.46 70.70 70.84 70.64 70.73 70.95 71.06 71.02 70.97 70.52 69.85 70.32 68.23 66.24 63.34 62.79 64.24 62.84 67.74 68.27 68.78 68.56 68.58 68.72 69.27 69.10 69.06 68.53 67.23 66.39 66.14
70.02 70.04 70.45 70.61 71.84 71.03 71.01 70.97 71.00 70.72 70.36 69.54 69.15 69.09 67.02 63.49 62.73 62.94 62.33 62.91 67.06 67.15 67.05 67.30 67.55 67.52 67.50 67.24 67.03 66.68 65.97 65.79 65.61
69.98 70.00 70.56 70.43 70.58 70.63 70.40 70.65 70.57 70.16 69.37 68.36 68.19 68.33 66.46 64.23 63.15 63.21 63.46 67.01 66.67 66.48 66.11 66.08 66.10 66.23 66.22 66.20 65.96 65.70 65.55 65.30 65.30
69.78 70.33 70.48 69.82 69.87 70.26 70.20 69.83 69.36 68.64 67.56 66.93 67.05 66.89 66.56 63.28 63.49 64.40 63.53 67.47 66.74 66.20 65.68 65.44 65.43 65.39 65.55 65.46 65.28 65.11 65.01 64.86 65.01
69.83 69.49 69.85 69.96 69.51 69.51 70.01 69.62 68.72 67.90 66.98 66.82 66.20 65.61 65.25 62.59 63.71 64.04 64.78 66.97 66.62 66.04 65.43 65.07 65.11 64.86 64.87 64.76 64.74 64.42 64.42 64.40 64.38
66.78 67.02 68.51 69.50 69.66 69.22 68.58 68.53 68.46 67.54 66.57 66.81 66.22 65.21 62.56 62.54 63.76 64.28 67.80 67.01 66.53 65.80 65.04 64.76 64.54 64.36 64.17 64.21 64.06 63.72 63.75 63.62 63.43
67.56 65.89 67.28 68.86 68.58 68.69 68.53 67.82 67.16 64.87 61.75 60.88 63.77 61.38 61.60 62.70 63.42 64.74 68.17 67.36 66.68 65.61 64.90 64.26 64.01 63.87 63.51 63.56 63.45 63.25 63.18 62.92 62.88
66.67 65.90 65.87 65.26 65.12 65.58 65.95 64.94 63.18 61.56 61.07 61.08 59.92 60.99 59.81 61.11 63.07 65.78 67.99 68.20 67.14 65.78 64.87 64.24 63.85 63.52 63.09 62.85 62.74 62.69 62.56 62.25 62.28
67.14 65.91 65.64 65.08 65.15 64.32 64.01 62.90 61.81 61.18 59.86 59.53 57.74 57.90 58.89 59.42 62.38 64.45 66.62 68.37 68.10 66.85 65.28 64.44 63.82 63.28 62.90 62.28 61.89 61.72 61.72 61.55 61.51
66.08 65.45 65.72 65.11 64.98 65.01 63.99 64.04 63.53 62.09 61.51 60.63 57.96 56.53 56.67 58.22 61.81 61.91 63.85 66.94 68.55 68.21 67.18 65.44 64.60 63.74 62.96 62.22 61.58 61.07 60.93 61.10 60.75
62.75 65.54 65.55 64.70 64.68 64.84 64.00 63.21 61.60 61.68 61.22 60.58 58.80 57.20 57.03 57.73 58.38 61.02 62.12 65.01 66.73 68.09 68.23 67.79 66.24 65.15 64.21 62.96 61.87 61.33 60.74 60.86 60.18
61.11 64.11 63.75 63.79 64.30 64.09 62.72 60.91 59.82 58.91 59.21 58.89 59.15 57.36 56.25 57.64 59.33 60.17 60.40 62.35 63.68 65.99 67.51 68.03 68.10 66.87 66.04 65.12 63.64 62.38 61.51 60.93 60.10
61.40 61.59 61.85 62.14 61.70 60.59 60.36 59.94 59.20 58.52 57.70 57.38 57.89 57.73 56.68 57.15 58.33 59.72 59.99 60.29 61.02 63.12 66.15 67.98 67.88 67.42 67.01 66.83 66.32 64.62 62.88 61.88 61.13
62.40 62.14 60.90 61.05 60.75 60.24 60.62 59.62 59.18 58.26 57.86 58.60 58.68 58.86 58.91 58.63 60.15 59.78 60.10 60.22 60.70 60.40 62.67 64.14 65.46 66.28 66.86 66.55 66.71 65.94 64.78 63.38 62.45
63.36 63.05 62.73 60.37 60.29 60.21 60.36 59.78 59.38 59.02 59.00 60.43 59.64 58.76 59.46 59.99 60.02 60.63 61.14 60.83 60.87 60.26 61.07 61.14 61.55 63.13 65.52 66.01 66.33 66.12 65.17 64.64 63.77
63.95 63.81 63.12 61.22 60.59 60.51 60.83 60.79 60.14 59.31 59.56 58.75 58.51 59.24 59.74 59.57 60.18 60.55 60.57 60.67 61.57 59.47 58.63 59.35 58.69 58.79 63.19 64.12 64.78 65.00 65.27 64.74 64.36
64.74 64.10 63.83 63.54 61.70 61.13 61.04 60.71 59.88 59.92 60.05 58.10 57.06 55.31 57.32 58.93 59.58 59.78 59.89 57.71 58.42 55.53 54.85 54.55 54.47 56.03 56.44 57.79 59.00 60.18 61.29 62.13 63.27
65.90 64.93 64.77 64.12 64.05 62.63 62.24 61.66 60.57 58.94 59.32 59.31 57.48 53.39 53.35 54.91 57.01 56.50 56.19 56.01 53.78 52.07 52.83 53.24 54.42 53.50 53.17 53.28 53.97 57.17 58.86 60.30 61.26
65.93 65.73 65.28 64.84 64.84 63.99 63.15 63.41 62.16 60.70 59.11 60.10 60.62 58.82 57.47 55.46 54.74 56.44 54.49 53.88 52.06 51.15 51.58 51.29 51.51 51.12 50.12 51.54 53.55 55.14 57.41 59.34 60.45
65.02 64.79 64.64 64.46 64.16 63.95 63.70 63.45 62.71 62.31 61.14 60.66 59.25 58.60 58.34 58.14 55.93 54.38 53.91 52.34 49.83 49.57 49.36 48.69 48.63 49.08 47.90 48.37 51.04 53.95 55.68 57.56 58.51

GFSFLT1_sfc_wetblb_102.txt.gz
Wetbulb
69.80 69.69 70.08 70.86 70.89 70.90 71.01 71.35 71.23 70.90 70.87 71.11 69.43 68.44 67.12 64.93 61.64 61.25 63.87 62.66 67.96 68.61 68.07 67.88 68.13 68.30 67.74 67.40 66.66 66.34 66.10 65.94 66.01
69.52 69.75 70.33 70.87 71.57 71.04 71.14 71.07 70.88 70.24 70.34 69.36 68.61 67.54 66.17 62.50 61.63 61.31 61.15 62.58 67.08 67.13 67.06 67.02 67.17 67.07 66.77 66.53 65.96 65.93 65.62 65.77 65.71
69.80 70.44 71.42 71.43 70.87 70.89 70.89 70.76 70.43 69.46 68.94 68.96 68.11 67.16 65.88 63.39 62.21 62.27 62.55 66.65 66.63 66.65 66.29 66.10 66.19 66.18 66.00 65.75 65.60 65.39 65.33 65.39 65.10
69.81 70.23 70.84 70.83 70.44 70.31 70.37 70.10 69.45 68.23 67.74 67.83 67.79 66.82 65.50 62.26 62.53 63.35 62.79 67.32 66.52 66.11 65.77 65.51 65.66 65.64 65.47 65.29 65.05 64.88 64.89 64.93 64.73
70.03 69.49 69.74 70.25 70.59 70.18 69.74 68.94 68.16 67.51 67.43 67.06 66.96 66.16 65.03 62.19 62.87 63.13 64.26 66.94 66.49 65.98 65.56 65.23 64.98 65.12 64.84 64.71 64.37 64.42 64.27 64.19 64.50
66.92 67.32 68.57 69.42 69.67 69.84 69.55 68.85 68.10 66.94 65.96 66.01 65.57 64.12 62.13 62.11 63.04 63.57 67.63 66.73 66.53 65.94 65.26 64.84 64.78 64.54 64.36 64.11 63.78 63.80 63.56 63.47 63.68
66.41 65.93 67.52 69.09 68.83 68.70 68.50 68.08 67.29 64.33 60.85 59.95 62.62 60.93 61.13 62.05 62.98 64.01 67.91 67.08 66.55 65.67 65.01 64.63 64.34 63.93 63.78 63.65 63.47 63.40 63.08 63.06 62.90
64.58 64.09 64.79 64.14 64.43 64.96 65.74 64.50 62.53 60.74 60.41 60.23 59.09 59.53 59.86 61.57 62.88 65.27 68.06 67.84 66.99 65.88 64.98 64.41 64.02 63.49 63.23 63.10 63.02 62.78 62.53 62.56 62.28
63.92 63.56 63.55 63.19 63.44 62.70 62.15 61.01 60.08 59.42 59.51 58.56 59.65 57.22 58.04 60.46 62.11 63.78 66.58 68.51 67.69 66.59 65.52 64.59 63.97 63.44 62.85 62.50 62.22 62.07 62.02 61.90 61.63
64.87 64.11 63.84 63.50 63.43 63.01 62.37 62.36 62.02 61.50 60.58 58.56 56.00 55.56 56.55 59.88 61.56 61.96 63.97 67.05 68.74 67.76 66.59 65.44 64.61 63.76 63.17 62.35 61.88 61.32 61.69 61.15 61.04
65.33 64.39 64.23 63.58 63.76 63.85 63.38 63.01 63.07 62.32 60.74 60.04 58.31 55.83 55.40 56.89 60.47 60.68 61.72 65.18 67.29 68.58 68.21 67.32 66.11 65.30 64.19 63.07 62.15 61.43 61.71 60.88 60.67
64.32 64.52 63.96 64.14 63.84 63.92 63.45 62.49 60.04 59.19 58.95 59.15 59.28 57.06 55.32 55.87 57.43 59.94 60.31 62.11 63.84 66.46 67.69 68.13 67.94 66.83 66.26 65.08 63.65 62.50 61.71 61.28 60.55
60.53 63.48 63.57 63.72 63.08 62.74 61.61 59.45 58.21 57.67 56.96 56.37 56.78 56.98 55.80 55.39 56.81 58.62 59.34 60.05 61.19 63.18 66.10 67.92 67.89 67.62 67.28 66.89 66.37 64.65 63.32 62.29 61.50
61.08 61.18 62.32 61.71 60.84 59.81 59.81 58.79 58.64 57.73 57.08 57.42 57.46 57.80 57.14 56.83 57.75 57.48 58.68 59.35 60.01 59.60 62.09 63.88 65.41 66.72 67.05 66.70 66.75 65.93 65.04 63.67 62.84
61.35 61.51 60.42 60.05 59.72 59.28 59.46 58.90 58.55 58.27 58.12 59.20 58.93 58.03 58.60 59.08 59.05 59.52 60.12 59.67 59.99 60.34 60.02 60.56 61.17 62.86 65.05 65.67 66.10 66.23 65.04 64.92 64.23
62.38 62.16 61.95 59.56 59.52 59.67 59.81 59.89 59.27 58.62 58.77 58.15 57.85 58.17 58.93 58.32 58.54 59.63 59.57 59.82 60.71 60.57 59.47 59.00 58.28 58.08 62.81 63.25 63.82 63.90 64.35 64.09 64.68
63.36 62.68 62.30 61.53 59.96 59.93 60.08 60.09 59.54 59.66 59.54 57.72 56.25 54.39 56.35 57.94 58.57 58.80 59.34 58.13 57.64 56.07 55.44 54.19 55.39 55.28 55.77 56.46 58.58 59.72 60.91 61.91 62.81
65.18 63.65 63.64 63.52 62.23 61.09 61.04 61.05 60.30 59.12 59.42 59.01 57.13 53.20 52.99 54.47 56.22 55.07 55.39 55.23 54.03 53.44 53.47 52.72 53.57 53.58 51.38 52.47 53.30 56.76 58.68 60.17 61.01
65.01 64.76 64.86 64.65 64.13 63.17 62.65 63.07 61.94 60.79 59.20 59.90 60.51 59.14 58.06 55.99 54.56 56.26 53.82 53.22 52.70 52.00 51.54 50.05 50.41 49.50 48.97 51.38 53.42 54.81 56.92 59.09 60.15
64.49 64.74 64.35 64.26 64.18 63.97 63.59 63.03 62.50 62.10 60.85 60.10 59.05 58.63 58.42 58.26 55.73 54.33 52.89 51.43 50.65 49.92 49.95 49.89 49.15 47.70 47.99 49.06 51.00 53.84 55.18 57.25 58.80

GFSFLT1_sfc_wetblb_105.txt.gz
Wetbulb
69.98 69.63 70.02 70.68 71.14 71.78 71.43 71.23 70.18 71.15 70.70 69.28 67.83 67.20 66.32 63.88 60.52 60.73 63.80 62.86 68.18 68.05 67.59 67.31 67.16 67.03 66.81 66.46 66.20 66.05 66.07 66.06 66.13
69.76 69.77 70.38 70.71 71.30 71.50 71.22 70.73 69.81 70.76 69.94 68.83 67.56 66.79 65.30 61.21 60.47 60.31 60.80 62.68 67.36 67.26 67.09 66.92 66.88 66.49 66.28 66.01 65.87 65.88 65.82 65.91 65.97
69.90 70.16 70.90 70.97 71.01 71.08 70.99 70.46 69.43 69.42 69.28 68.27 67.16 66.28 65.16 62.39 61.30 61.56 62.05 66.59 66.82 66.68 66.34 66.35 66.29 66.05 65.92 65.74 65.51 65.55 65.34 65.28 65.22
71.18 71.32 71.34 70.90 70.93 70.87 70.61 70.13 68.90 68.84 68.97 68.13 66.96 66.06 64.76 61.44 61.64 62.64 62.41 67.37 66.59 66.27 65.80 65.85 65.77 65.72 65.50 65.17 64.94 65.03 64.81 65.12 64.99
70.26 69.91 70.31 70.61 70.58 70.29 69.93 69.16 68.11 68.31 68.12 67.78 67.23 65.81 64.55 61.33 61.85 62.33 63.91 66.87 66.65 66.36 65.55 65.31 65.42 65.22 64.94 64.51 64.44 64.41 64.16 64.48 64.22
66.62 67.13 68.69 70.00 70.13 69.51 68.98 68.29 67.77 66.62 66.24 66.51 66.11 64.60 61.57 61.07 62.05 62.67 67.28 66.57 66.50 65.98 65.48 65.12 65.00 64.84 64.39 64.00 63.98 63.67 63.59 63.68 63.74
66.38 65.86 67.58 69.16 69.16 69.26 69.12 68.36 66.95 62.95 59.92 59.49 62.48 60.83 60.81 61.34 61.87 63.02 67.50 66.64 66.29 65.60 65.12 64.85 64.47 64.30 64.04 63.68 63.66 63.25 63.34 63.15 63.04
63.91 63.90 64.80 64.37 64.63 64.37 64.85 63.36 61.29 59.37 59.36 59.34 58.39 58.94 59.63 60.83 62.07 64.26 67.68 67.06 66.39 65.51 64.84 64.50 64.10 63.80 63.64 63.46 63.07 62.78 62.75 62.40 62.29
61.91 62.08 62.15 61.69 61.93 61.14 60.35 59.92 59.57 59.11 58.78 57.99 58.64 57.14 58.69 60.58 61.54 62.71 66.37 68.10 66.96 66.03 65.04 64.36 63.90 63.48 63.13 62.85 62.62 62.39 62.15 61.80 61.67
62.55 62.09 61.87 61.62 61.88 61.29 60.51 59.79 59.35 59.54 60.02 58.57 57.21 54.90 56.77 59.23 61.05 61.29 63.71 66.84 68.30 67.05 66.00 65.13 64.30 63.82 63.22 62.50 61.94 61.88 61.72 61.53 61.17
63.50 62.81 62.63 62.23 62.43 62.45 61.93 61.80 61.68 61.45 60.98 59.73 57.83 54.83 54.50 57.03 60.09 60.48 61.15 64.97 67.20 68.55 67.87 66.87 65.99 65.01 64.15 63.09 62.26 61.71 61.80 61.26 60.80
64.53 63.18 62.67 62.92 62.89 62.76 62.52 62.01 61.11 59.85 59.98 58.86 59.07 57.77 54.50 54.68 56.66 59.61 59.75 61.34 63.73 66.29 67.87 68.06 67.31 66.78 66.02 65.26 63.90 62.74 62.40 61.51 61.01
63.86 63.19 62.87 63.39 62.96 62.62 62.09 61.05 59.37 57.64 56.69 56.02 56.58 56.53 56.29 54.56 54.78 57.35 59.17 59.69 60.89 62.74 65.86 67.22 67.62 67.44 67.29 66.81 65.95 64.76 63.37 62.68 61.89
62.83 63.36 63.25 62.98 62.32 61.64 61.11 59.39 58.12 57.15 56.89 56.95 56.72 56.82 56.92 56.03 56.37 55.99 57.30 58.37 59.48 59.54 61.37 63.33 64.56 66.14 66.82 66.60 66.79 65.70 65.04 63.83 63.08
60.87 60.46 61.46 61.94 60.68 59.79 58.94 58.38 58.06 57.89 57.68 58.28 58.40 57.98 58.31 58.56 58.01 57.61 58.78 58.76 58.99 59.20 59.98 59.42 60.54 62.21 64.07 65.08 65.64 65.56 64.53 64.87 64.56
60.92 60.95 60.16 59.82 59.45 59.12 58.72 58.64 58.13 57.97 58.15 57.63 57.83 58.26 59.02 57.79 57.60 58.31 58.97 59.25 59.78 60.11 60.54 60.21 59.33 59.21 62.23 62.79 62.90 63.45 63.65 64.13 64.37
61.65 61.34 60.97 59.16 58.88 58.89 58.89 59.30 59.10 59.47 59.09 57.47 55.96 54.20 55.96 57.07 56.68 57.60 58.37 56.63 56.11 56.55 56.01 55.53 57.09 56.29 54.33 55.65 58.25 59.50 60.87 61.63 62.17
64.23 63.55 63.13 61.73 60.16 59.34 59.70 60.13 60.10 59.00 59.31 58.99 57.53 53.42 53.05 54.31 55.47 54.24 55.10 55.21 54.91 54.40 52.97 54.03 53.91 52.73 51.52 51.77 52.96 56.48 58.61 60.39 61.38
64.98 63.99 63.90 63.51 63.23 62.27 61.61 62.34 61.40 60.60 59.23 59.72 60.48 59.54 58.36 55.37 54.30 55.14 52.92 52.23 52.15 51.89 52.90 52.02 51.03 50.37 50.22 51.04 53.03 54.77 56.30 58.86 60.23
64.84 64.62 63.58 63.66 63.94 63.94 63.70 62.96 62.47 61.53 60.30 59.78 58.90 58.80 58.57 58.43 56.36 54.12 53.03 51.75 50.84 50.90 50.73 50.53 49.36 48.82 49.50 49.14 51.47 54.48 55.50 57.19 58.88

GFSFLT1_sfc_wetblb_108.txt.gz
Wetbulb
69.90 69.80 70.54 71.15 72.03 71.93 70.81 70.74 70.78 69.90 68.85 67.55 67.33 67.07 66.16 63.65 60.31 60.88 64.14 63.25 67.99 68.09 67.69 67.41 67.15 66.77 66.63 66.47 66.50 66.46 66.51 66.44 66.28
69.67 69.67 70.68 71.49 72.11 71.31 70.32 70.60 70.44 69.68 68.33 67.22 66.97 66.34 64.76 60.25 59.80 60.14 61.08 63.13 67.55 67.55 67.42 67.05 66.80 66.50 66.43 66.25 66.27 66.02 66.21 65.90 66.04
69.58 70.03 71.03 71.83 71.46 70.90 70.04 70.09 70.06 69.34 68.28 67.15 66.55 65.82 64.44 61.73 60.82 61.25 62.16 67.03 67.17 67.18 66.97 66.68 66.44 66.26 66.03 65.86 65.85 65.60 65.68 65.70 65.68
70.25 70.85 71.42 71.73 71.55 71.23 70.46 69.54 69.60 69.26 68.36 67.08 66.36 65.54 64.26 60.77 61.18 62.26 62.25 67.66 67.00 66.77 66.52 66.22 66.19 65.82 65.54 65.30 65.32 65.15 65.33 65.15 64.90
70.96 70.25 70.75 71.41 71.25 70.91 70.51 69.55 69.00 69.02 68.32 67.05 66.31 65.56 63.77 60.38 61.24 62.04 64.02 67.14 67.07 66.50 66.01 65.93 65.79 65.38 64.97 64.72 64.63 64.50 64.42 64.51 64.78
66.65 67.68 68.90 70.11 70.50 69.94 69.25 68.53 67.99 67.39 66.69 67.06 66.05 63.40 60.77 60.49 61.38 62.18 67.22 66.86 66.87 66.41 65.75 65.42 65.32 64.87 64.46 64.30 63.96 63.85 63.87 64.18 64.00
66.24 66.09 68.12 69.70 69.26 69.05 68.79 67.78 65.65 62.08 59.31 60.10 62.61 60.70 60.06 60.88 61.15 62.30 67.43 66.81 66.58 65.99 65.48 65.07 64.90 64.66 64.25 63.98 63.62 63.53 63.34 63.24 63.22
63.92 64.16 64.50 64.49 64.12 64.23 63.84 62.03 60.08 58.67 58.46 58.54 58.22 59.28 59.39 60.27 61.32 63.34 67.52 66.89 66.47 65.74 65.15 64.72 64.41 64.27 64.13 63.65 63.30 63.10 62.65 62.52 62.58
61.81 62.17 62.12 62.06 61.77 61.12 60.19 59.45 58.75 58.64 58.32 57.59 58.00 57.07 58.83 59.93 60.86 61.80 65.92 67.74 66.68 66.05 65.27 64.60 64.20 63.76 63.60 63.37 62.96 62.43 62.11 61.85 61.64
60.93 60.74 60.63 60.27 60.22 59.55 58.69 58.13 58.10 58.22 58.90 58.48 57.16 54.36 56.11 58.62 60.33 60.49 63.15 66.58 67.93 66.79 66.06 65.16 64.65 64.03 63.43 62.87 62.52 62.25 61.92 61.36 61.01
61.49 60.74 60.72 60.53 61.12 61.00 60.24 59.49 59.71 60.46 60.47 59.88 57.96 54.49 54.22 56.19 59.01 59.85 60.50 64.56 66.93 68.21 67.50 66.84 65.98 65.05 64.30 63.17 62.33 62.34 61.80 61.44 60.74
62.60 61.91 61.51 61.55 61.64 61.70 61.38 61.05 60.86 60.17 60.20 58.86 58.78 58.16 54.42 53.80 56.18 59.23 59.26 60.54 63.35 66.04 67.99 67.86 67.25 66.81 66.44 65.53 64.37 63.13 62.86 62.07 61.32
63.24 62.63 62.25 62.51 62.26 61.98 61.45 60.77 59.68 58.37 57.39 56.70 56.50 56.42 56.35 54.90 54.05 56.00 58.35 59.21 60.24 62.24 65.49 66.81 67.24 67.10 67.05 66.26 65.70 65.19 63.79 63.10 62.50
64.15 63.39 62.62 62.69 62.25 61.77 61.36 59.77 58.66 57.41 56.69 56.58 56.68 56.35 56.46 56.68 55.65 55.20 56.60 57.73 58.92 59.20 61.08 62.91 64.00 65.48 66.07 66.10 65.93 65.09 65.35 64.24 63.45
63.14 62.78 62.66 62.46 61.78 60.99 59.90 59.39 58.09 57.56 57.41 57.89 57.55 57.48 57.64 57.77 57.25 57.05 57.34 57.43 58.11 58.50 59.61 60.16 60.51 62.41 63.69 64.36 65.11 65.34 64.55 64.63 64.65
61.64 61.81 61.50 61.76 61.43 61.26 59.85 58.46 57.74 57.12 57.43 57.25 57.66 57.91 58.65 57.23 57.09 57.26 57.97 58.49 59.15 58.74 59.78 60.13 59.18 59.71 60.63 61.95 62.75 63.14 63.29 63.31 63.75
61.13 60.38 59.70 59.74 59.47 59.12 58.63 58.52 57.82 58.02 58.14 57.03 56.65 55.25 56.12 56.32 55.17 55.99 57.23 55.26 55.86 57.23 58.47 58.76 56.36 56.19 54.71 55.46 57.90 59.28 60.50 61.46 61.84
61.44 61.18 60.81 59.35 59.12 59.02 58.34 58.57 58.78 58.12 58.76 59.09 57.80 54.18 53.65 55.36 55.65 53.89 55.54 55.88 54.85 54.37 54.81 55.46 54.83 53.86 51.83 52.60 53.38 56.09 57.95 60.28 61.21
63.05 63.39 62.96 61.89 61.34 61.28 60.65 61.42 60.86 60.58 59.03 59.98 60.35 59.42 58.50 55.59 54.32 54.68 52.95 52.96 53.09 53.37 53.24 52.61 53.44 52.34 50.85 51.67 53.54 54.49 55.38 58.08 60.01
64.14 63.82 62.98 62.76 63.22 63.27 63.27 62.31 61.62 61.26 60.69 59.86 59.08 59.08 58.92 59.00 56.73 54.07 54.03 52.68 52.11 52.03 51.98 51.89 51.03 50.18 49.28 49.64 53.48 56.49 57.25 57.06 58.33

GFSFLT1_sfc_wetblb_111.txt.gz
Wetbulb
71.09 71.81 71.78 72.46 72.35 71.98 71.79 70.51 69.96 68.89 68.06 67.88 67.68 67.26 66.26 66.25 66.88 67.35 67.68 67.51 68.17 68.34 67.76 67.35 67.24 67.04 67.13 66.95 67.09 67.08 66.67 66.83 66.57
70.47 71.18 71.91 72.39 71.81 71.43 71.15 70.43 69.54 68.01 67.46 67.33 67.16 66.22 64.77 65.57 66.01 66.49 67.00 67.22 67.94 67.94 67.54 67.28 67.01 66.80 66.82 66.47 66.55 66.43 66.56 66.41 66.27
70.12 71.34 72.16 72.21 71.19 71.24 71.20 70.09 69.30 67.90 67.34 67.04 66.55 65.62 64.87 65.07 65.89 66.56 66.82 67.92 67.67 67.64 67.22 66.86 66.67 66.36 66.42 66.10 66.34 66.22 66.02 65.72 65.89
70.30 71.55 72.15 71.99 71.22 70.99 71.05 70.44 69.39 68.15 67.25 66.68 66.15 65.34 64.40 65.62 65.79 65.83 66.77 67.75 67.55 67.27 66.79 66.59 66.18 65.99 65.77 65.53 65.82 65.42 65.40 65.55 65.36
70.50 70.43 71.05 71.47 71.23 70.45 70.40 70.31 69.76 68.61 67.32 66.52 65.96 64.84 64.25 65.68 66.08 66.63 66.96 67.51 67.23 66.91 66.62 66.33 65.86 65.52 65.18 64.92 64.93 64.73 65.02 64.95 64.65
69.44 68.53 69.33 70.39 70.78 70.15 69.82 69.17 68.82 68.20 67.26 66.79 65.04 64.03 65.18 65.53 66.05 66.75 67.62 67.10 67.13 66.65 66.19 65.98 65.53 65.08 64.78 64.33 64.35 64.26 64.40 64.18 64.38
69.09 67.60 68.33 69.79 69.42 68.98 68.59 67.42 65.70 64.80 65.65 66.33 64.56 65.60 65.33 65.57 65.91 66.83 67.63 66.97 66.78 66.36 65.75 65.45 65.16 64.92 64.51 63.99 63.94 63.73 63.57 63.62 63.64
69.13 69.38 69.44 69.32 66.44 68.04 66.78 64.97 64.32 64.09 64.29 64.26 65.19 65.54 65.64 66.05 66.26 66.29 67.52 66.91 66.54 65.99 65.52 65.15 64.98 64.77 64.30 63.94 63.66 63.15 63.07 62.96 62.58
67.69 67.79 68.06 67.69 67.20 66.31 65.36 64.14 63.64 63.65 63.61 64.03 63.52 63.69 65.43 66.01 66.26 66.31 65.82 67.70 66.54 65.93 65.30 64.83 64.50 64.35 64.11 63.74 63.04 62.66 62.34 62.03 61.92
66.29 66.26 66.17 65.95 65.61 65.10 63.94 63.35 63.14 63.01 63.54 63.44 63.16 61.40 63.37 64.36 65.52 66.27 63.06 66.46 67.58 66.61 65.90 65.20 64.71 64.22 63.75 63.34 62.81 62.29 61.88 61.46 61.30
65.09 64.55 64.38 64.34 64.15 63.63 63.02 62.52 62.96 64.23 65.29 64.64 62.92 61.02 61.18 62.35 64.23 65.43 65.57 64.37 66.72 67.93 67.36 66.86 65.99 65.22 64.48 63.69 62.82 62.70 61.97 61.51 61.03
64.57 63.88 63.32 63.51 64.09 64.20 64.33 64.13 64.94 65.34 65.22 65.09 64.47 64.12 62.33 60.45 61.08 64.13 65.01 64.87 63.23 65.92 68.08 67.70 67.42 67.10 66.52 65.65 64.63 63.73 63.31 62.69 62.06
64.10 63.65 63.64 64.59 65.12 65.42 65.10 64.77 64.63 64.56 63.56 63.65 63.90 63.29 62.76 62.03 60.10 60.86 63.27 64.17 64.26 64.09 65.45 66.53 66.85 66.81 67.10 66.57 65.87 65.69 64.44 63.91 62.92
65.02 64.67 65.10 65.16 64.93 64.88 64.74 64.37 64.34 63.58 63.10 62.02 62.13 62.11 61.55 61.52 60.48 60.76 60.86 62.38 63.53 64.39 62.90 62.71 64.22 65.57 66.11 66.01 65.43 65.50 65.97 65.04 64.10
66.34 65.65 65.21 65.25 64.75 64.50 64.19 64.06 63.01 63.13 61.97 60.35 60.89 61.79 62.12 62.15 61.51 61.33 60.71 61.72 62.17 63.11 63.63 62.88 62.91 62.56 64.43 64.71 65.21 64.92 64.56 64.73 65.29
66.33 66.19 65.77 65.01 64.58 64.49 63.99 63.22 62.67 61.55 61.44 61.27 61.71 61.73 61.63 61.42 59.84 61.24 62.64 62.85 63.58 63.65 63.60 63.73 64.19 64.04 63.00 63.51 63.46 63.61 63.69 63.15 63.29
64.16 64.53 64.13 64.48 63.93 63.38 63.17 62.51 61.00 61.29 61.27 60.35 59.02 58.25 58.81 58.38 57.55 59.02 61.22 61.11 60.63 60.61 61.89 62.03 60.78 58.83 59.81 60.00 59.05 60.07 60.99 61.54 61.75
62.92 62.93 63.43 63.00 63.20 63.03 62.64 62.12 62.05 61.00 61.25 61.33 60.33 56.65 55.15 56.92 57.28 55.79 56.21 57.60 57.63 57.74 57.12 58.08 57.14 57.07 55.83 55.53 55.47 56.55 58.90 60.44 61.08
63.36 63.43 63.45 62.51 62.93 62.40 62.19 62.23 61.71 61.00 60.26 61.47 61.78 61.97 61.39 56.68 56.31 55.99 54.35 54.39 54.44 54.48 54.61 54.18 54.08 53.23 53.20 52.48 53.35 54.75 55.98 58.52 60.04
64.00 64.23 64.46 63.70 63.45 62.84 62.45 61.71 61.77 62.43 62.15 61.86 60.79 60.87 60.45 59.72 57.44 54.59 56.05 54.73 54.13 54.89 53.34 53.60 52.34 51.54 51.71 52.24 54.24 56.45 58.06 58.37 59.13

GFSFLT1_sfc_wetblb_117.txt.gz
Wetbulb
73.46 73.35 72.93 72.43 72.63 71.84 70.61 70.31 70.32 69.99 69.83 69.33 68.19 67.40 67.75 68.74 66.86 67.10 67.39 66.89 68.26 68.32 67.88 67.79 67.48 67.49 67.37 67.57 67.14 67.26 66.86 67.39 66.65
73.38 73.05 72.60 72.42 72.14 71.12 70.12 69.14 68.85 68.30 67.78 67.44 66.93 66.07 67.23 66.94 66.80 66.84 67.03 67.05 68.27 68.10 67.67 67.52 67.25 67.40 67.37 67.01 66.89 66.91 66.86 66.82 66.24
73.14 72.70 72.47 72.16 71.36 69.90 68.68 68.10 67.94 67.65 67.30 66.93 66.29 66.23 66.50 66.74 66.63 67.01 66.84 68.22 67.97 67.81 67.31 67.09 66.83 67.02 66.65 66.42 66.44 66.45 66.17 65.97 65.99
72.66 72.17 72.07 72.13 71.35 70.22 69.30 68.09 67.67 67.38 67.03 66.47 65.86 66.21 66.41 66.70 66.72 66.65 66.56 68.23 67.93 67.36 66.93 66.61 66.37 66.29 65.98 66.05 66.09 65.84 65.80 65.95 65.53
71.61 70.63 71.12 71.42 70.99 70.29 69.20 68.64 67.56 67.12 66.69 66.16 65.79 65.74 65.92 66.73 66.50 66.42 66.69 67.95 67.73 67.22 66.62 66.30 65.85 65.68 65.45 65.42 65.47 65.18 65.42 65.25 65.10
70.35 68.58 69.43 70.44 70.68 70.45 69.67 68.79 67.80 67.38 66.62 66.00 65.55 64.94 66.34 66.62 66.41 66.19 68.09 67.55 67.53 66.99 66.41 66.03 65.61 65.19 64.90 64.83 64.76 64.70 64.84 64.57 64.63
70.25 68.02 68.26 69.87 69.85 69.91 69.78 68.46 67.47 66.27 65.75 65.20 64.67 66.32 66.29 66.54 66.47 66.18 68.15 67.26 67.24 66.79 66.24 65.76 65.52 65.00 64.70 64.30 64.19 64.15 64.19 64.02 64.14
69.69 68.91 68.45 68.64 66.62 68.24 68.01 66.98 67.14 67.75 67.09 66.64 66.67 66.45 66.27 66.34 66.35 66.38 67.99 67.14 66.88 66.39 65.92 65.58 65.22 64.90 64.37 64.05 63.66 63.42 63.25 63.05 63.21
68.77 68.49 67.86 67.50 67.68 66.98 66.79 66.36 66.84 66.76 66.62 66.64 66.45 66.33 66.25 66.37 66.74 65.89 66.93 67.60 66.75 66.33 65.77 65.35 65.09 64.71 64.34 63.81 63.19 62.75 62.35 62.30 62.18
68.16 67.70 67.98 67.62 68.04 66.91 66.32 66.18 65.96 65.80 65.72 65.81 65.40 65.30 66.12 66.14 66.37 66.61 65.09 66.97 67.34 66.60 66.13 65.64 65.24 64.79 64.34 63.81 63.12 62.57 61.99 61.55 61.27
68.09 67.31 68.67 68.09 67.93 67.03 65.55 65.03 65.07 65.05 65.24 64.83 64.53 63.83 64.70 65.03 65.81 66.55 65.48 66.00 67.39 67.47 67.21 66.73 66.25 65.60 65.07 64.42 63.77 63.11 62.70 62.06 61.51
68.69 68.22 68.00 67.52 67.27 65.79 65.10 64.46 64.66 64.75 65.34 65.07 64.66 64.33 64.32 63.88 64.07 65.33 66.17 65.33 64.66 66.95 68.31 68.25 67.60 67.01 66.76 66.04 65.13 64.48 64.02 63.54 62.61
67.52 67.17 66.65 66.58 65.61 64.85 64.08 63.63 64.02 65.44 66.17 66.22 66.13 65.70 66.15 65.41 64.85 64.53 64.48 65.95 65.79 64.80 66.80 67.79 68.11 67.84 67.77 67.54 67.52 66.56 65.54 64.98 64.04
66.53 65.96 65.73 65.25 64.46 64.01 64.08 64.00 64.88 65.74 65.66 65.50 65.60 65.58 65.08 64.96 64.72 64.45 64.53 64.94 65.52 66.10 64.38 64.59 65.47 66.45 66.90 67.56 67.51 67.02 66.86 66.42 65.64
65.62 65.02 64.34 64.37 64.93 65.32 65.89 65.49 66.35 65.89 65.68 64.24 63.50 64.77 65.43 65.76 65.15 64.27 64.31 64.49 64.69 65.02 66.02 64.58 63.71 63.29 64.78 66.09 66.59 66.37 65.80 66.54 66.13
64.58 64.46 64.97 65.64 65.62 65.63 65.76 65.75 65.20 65.16 65.80 64.11 63.73 64.24 65.10 64.80 64.92 65.23 64.79 64.86 64.98 65.01 65.46 65.47 65.58 63.13 63.83 64.33 64.38 64.77 64.69 64.60 64.21
65.22 66.14 65.96 66.13 66.07 65.46 66.03 66.08 65.26 65.54 66.15 62.61 63.09 60.34 61.98 63.42 63.49 63.37 63.10 63.22 62.74 62.24 62.11 63.33 64.08 64.72 62.41 59.36 58.82 59.43 61.35 63.05 63.75
67.51 67.15 66.56 66.93 66.81 66.12 66.71 66.29 65.75 63.96 65.61 64.16 62.47 59.10 58.32 61.34 62.61 61.66 60.62 60.49 61.14 60.20 59.37 60.39 59.75 58.85 57.39 57.31 56.69 56.69 58.10 60.17 62.66
67.93 67.78 67.48 67.28 67.08 66.67 66.24 66.71 66.83 66.03 62.46 63.19 63.75 64.21 62.92 59.02 57.70 60.88 60.57 60.35 59.65 59.47 58.76 57.53 57.18 56.66 55.34 54.54 54.30 55.47 56.44 58.94 60.86
66.59 66.16 65.63 65.47 66.56 66.97 66.58 65.34 63.36 63.13 63.08 63.41 63.68 62.41 62.36 62.24 59.41 57.18 58.38 58.96 59.82 59.17 56.84 56.67 54.91 54.02 54.42 54.47 54.91 55.67 57.02 58.81 60.34

GFSFLT1_sfc_wetblb_120.txt.gz
Wetbulb
74.12 73.39 73.02 72.34 72.11 71.83 71.46 71.14 70.51 69.40 69.77 68.40 68.01 67.81 67.96 67.14 63.59 64.04 66.53 64.54 68.46 68.67 68.03 67.91 67.79 68.00 67.53 67.54 67.67 67.42 66.87 66.93 67.25
73.47 72.61 72.64 72.12 71.59 70.63 70.36 70.10 69.60 69.16 68.28 67.37 66.89 67.37 67.61 63.90 63.26 63.61 64.02 64.94 68.38 68.39 67.90 67.77 67.77 67.59 67.16 67.34 67.00 67.12 66.28 66.67 66.92
72.99 72.45 72.45 71.98 70.69 69.82 69.03 68.77 68.12 67.62 67.14 66.88 66.56 66.97 66.63 64.87 64.06 63.85 64.22 68.07 68.08 67.91 67.51 67.18 67.25 66.91 66.84 66.93 66.65 66.55 66.03 66.10 66.23
72.77 72.24 71.82 71.43 70.35 69.55 68.98 68.00 67.72 67.39 66.81 66.42 66.37 65.98 66.84 63.15 64.34 65.23 64.28 68.36 67.90 67.60 67.06 66.74 66.66 66.35 66.55 66.34 66.07 66.09 65.82 65.85 65.75
71.45 70.81 70.81 70.86 69.93 69.39 69.02 68.28 67.55 67.11 66.51 66.17 66.66 65.39 65.20 62.66 63.80 64.23 65.31 68.06 67.77 67.33 66.86 66.44 66.25 65.99 65.95 65.59 65.59 65.59 65.35 65.34 65.05
68.97 68.43 69.29 69.99 69.60 69.33 68.97 68.16 67.37 67.06 65.94 65.92 65.73 64.77 62.19 62.58 63.74 64.15 67.98 68.01 67.65 67.15 66.63 66.12 65.80 65.53 65.32 65.02 65.04 65.04 64.81 64.93 64.71
68.46 67.21 68.20 69.76 69.25 68.85 68.79 67.87 67.11 64.88 61.75 61.15 63.90 61.85 62.07 62.83 63.53 64.31 67.83 67.51 67.57 67.06 66.30 65.93 65.43 65.18 64.71 64.49 64.41 64.47 64.21 64.42 64.26
67.68 67.29 67.43 67.32 66.42 67.29 66.78 65.75 63.75 62.70 61.87 61.75 61.98 61.51 62.04 62.33 63.28 65.53 67.50 67.56 67.21 66.77 66.28 65.88 65.47 65.09 64.67 64.16 63.99 63.74 63.42 63.46 63.49
66.56 65.91 65.55 65.30 65.43 65.11 63.67 62.93 63.33 63.28 62.91 62.23 61.82 61.72 61.83 62.54 63.83 64.50 66.18 67.67 67.01 66.60 66.20 65.80 65.38 65.02 64.59 63.98 63.40 62.97 62.79 62.53 62.45
66.60 65.34 64.74 63.95 63.85 63.65 62.73 62.33 62.21 61.62 61.38 61.58 61.57 61.96 61.99 62.08 63.64 63.64 64.40 66.56 67.46 66.69 66.27 65.88 65.45 65.02 64.61 64.02 63.36 62.79 62.30 62.00 61.55
66.54 65.22 64.37 63.46 64.30 63.17 62.43 61.40 61.47 60.86 60.79 60.73 60.91 60.07 60.86 61.66 62.39 63.16 63.70 65.66 67.07 67.57 66.95 66.64 66.21 65.72 65.18 64.62 63.96 63.35 62.80 62.09 61.63
65.41 65.72 65.35 64.72 64.89 62.23 61.04 60.24 60.21 59.78 61.25 60.40 59.83 59.41 59.05 59.73 60.62 62.45 62.69 64.39 64.74 67.14 67.79 67.83 67.39 67.09 66.61 66.16 65.29 64.59 64.11 63.57 62.85
65.34 65.38 66.06 65.03 62.40 61.23 60.09 59.14 58.92 60.48 61.67 61.85 61.46 61.52 62.04 61.00 59.40 60.16 61.20 63.08 63.82 64.76 67.19 68.14 68.11 68.18 68.05 67.98 67.54 66.83 65.98 65.21 64.46
66.12 65.34 63.86 62.38 61.04 60.27 59.70 58.75 59.68 61.17 61.87 61.98 61.61 61.55 60.43 60.74 62.03 60.02 59.97 60.68 61.48 62.22 63.73 64.62 65.61 66.57 66.89 67.43 67.55 67.21 66.65 66.16 65.94
62.79 62.24 61.53 61.12 60.43 60.54 61.00 60.31 61.78 62.40 62.11 62.83 61.23 60.57 61.02 61.14 60.28 60.11 61.02 60.30 60.90 61.07 63.15 63.01 62.71 63.56 65.29 65.24 66.18 66.30 65.50 65.54 65.31
61.98 61.08 61.11 61.04 61.75 61.73 62.09 62.14 61.68 61.68 61.90 60.48 59.59 59.98 60.80 60.51 60.63 61.03 60.88 61.20 61.80 61.78 62.62 63.50 62.90 62.30 63.87 64.10 64.06 64.64 64.70 64.27 64.19
61.02 60.89 61.22 62.35 62.35 62.34 62.05 62.32 61.74 62.08 62.37 59.31 58.31 56.70 58.27 59.45 59.72 60.02 59.74 59.28 60.03 59.92 60.22 60.83 61.97 61.81 59.96 59.49 59.92 60.75 61.57 62.69 63.57
61.98 62.87 63.15 62.83 63.19 62.24 62.65 63.08 62.48 60.81 61.56 61.05 59.21 55.16 53.88 57.93 58.55 58.06 57.79 57.48 57.92 57.35 57.36 59.29 58.99 58.21 57.58 57.42 56.93 57.83 59.46 60.90 61.47
64.69 64.62 63.85 63.91 64.20 63.40 63.35 63.97 63.03 62.37 60.14 61.42 61.81 60.69 59.49 55.35 54.76 56.83 56.11 56.77 56.79 56.07 55.79 55.67 56.95 56.57 55.73 55.36 55.09 56.24 57.74 60.19 61.67
65.15 64.99 64.50 64.52 64.19 64.05 63.57 61.85 61.50 61.44 61.07 60.63 60.81 59.31 59.06 59.77 56.47 53.61 54.02 55.62 56.21 56.02 55.00 54.16 53.68 53.04 52.65 52.14 53.88 55.50 57.39 59.64 61.45

GFSFLT1_sfc_wetblb_123.txt.gz
Wetbulb
74.19 73.87 73.09 72.62 72.56 72.64 71.79 70.73 70.29 69.84 69.50 69.38 68.53 68.53 68.44 66.14 63.21 63.67 65.61 64.03 68.57 68.64 68.35 68.20 67.79 67.85 67.81 67.99 67.13 67.29 67.79 66.88 67.03
73.53 73.00 72.48 72.27 72.03 71.48 70.60 69.33 69.89 69.28 68.89 68.11 67.96 69.22 66.99 63.38 62.56 62.89 63.41 64.84 68.59 68.47 68.41 67.97 67.47 67.51 67.35 67.18 66.53 66.65 66.85 66.97 66.82
72.85 72.45 71.96 71.74 71.03 70.53 69.59 69.59 69.01 67.78 67.86 67.57 67.56 67.93 66.43 64.16 62.90 63.36 63.92 68.05 68.29 68.06 67.92 67.25 67.20 67.06 66.64 66.67 66.39 65.97 66.23 65.92 65.71
72.47 72.20 71.71 71.13 70.14 69.87 69.20 68.13 67.51 67.44 67.43 67.04 66.98 67.28 65.77 62.88 63.42 64.58 64.06 68.41 67.99 67.67 67.21 66.90 66.80 66.86 66.31 66.26 65.82 65.97 65.98 65.70 65.68
71.36 70.51 70.40 70.24 69.65 69.32 68.99 68.00 67.42 67.27 67.22 66.49 66.11 65.63 65.29 62.53 63.36 63.87 65.20 67.99 67.86 67.38 66.90 66.68 66.38 66.26 65.79 65.88 65.61 65.31 65.47 65.16 65.16
69.30 68.37 68.59 69.07 69.21 69.14 68.71 67.71 67.25 66.70 65.60 65.46 64.89 63.73 61.50 62.75 63.20 64.04 68.19 68.03 67.74 67.26 66.56 66.28 65.97 65.64 65.30 65.27 65.15 64.90 65.00 64.87 64.82
68.92 67.19 67.72 68.80 68.49 68.35 68.28 67.57 66.77 63.85 60.58 60.41 63.57 61.04 61.08 62.70 62.97 64.15 68.19 67.76 67.75 67.15 66.33 65.89 65.60 65.18 64.80 64.77 64.71 64.41 64.61 64.44 64.18
67.72 67.52 67.37 66.50 65.34 65.81 66.04 65.08 62.39 59.61 59.69 60.22 60.23 60.92 61.25 61.99 63.13 65.46 67.63 67.75 67.57 67.01 66.38 65.94 65.44 65.07 64.60 64.37 64.13 63.75 63.77 63.64 63.28
66.40 66.18 65.97 65.92 65.17 64.01 62.76 61.98 61.67 61.80 61.38 60.03 60.39 59.74 60.97 61.96 63.06 64.22 66.10 67.79 67.17 66.82 66.40 65.87 65.45 65.02 64.54 63.98 63.55 63.15 62.86 62.63 62.60
65.62 65.20 65.20 64.12 63.61 63.51 61.94 61.44 61.79 61.59 60.86 60.54 60.61 60.56 60.83 62.02 63.10 63.06 64.10 66.51 67.43 66.74 66.36 66.04 65.54 65.12 64.59 64.00 63.27 62.81 62.38 62.03 61.69
64.65 64.43 63.94 63.17 62.70 63.09 61.74 61.04 60.42 60.21 59.59 59.56 59.52 58.74 60.41 61.56 62.07 62.65 63.35 65.51 66.86 67.42 67.01 66.70 66.25 65.74 65.17 64.64 63.80 63.22 62.64 62.05 61.55
64.43 64.01 63.23 63.15 63.08 62.06 61.00 60.00 59.93 58.95 59.95 58.67 58.60 57.97 58.43 59.04 61.70 62.19 62.56 64.09 64.48 66.94 67.67 67.60 67.39 67.11 66.65 66.30 65.64 64.92 64.28 63.77 63.01
64.76 64.26 63.73 63.66 63.47 60.54 59.17 58.46 57.80 58.43 59.94 60.28 59.01 59.24 58.94 58.15 57.97 61.33 61.92 62.79 63.96 64.90 67.30 68.41 68.56 68.10 68.18 68.19 67.78 67.08 66.19 65.48 64.73
64.68 64.30 64.15 63.07 62.19 59.44 58.79 57.49 58.50 59.46 60.33 61.19 60.60 60.24 59.92 60.17 60.75 58.50 59.47 61.52 61.91 61.85 63.42 64.65 65.66 66.89 67.39 67.13 66.67 66.35 65.69 65.88 66.03
64.47 63.96 64.08 62.35 59.83 58.46 57.87 57.67 59.05 60.92 61.12 61.90 60.52 60.04 60.05 60.17 59.68 59.24 60.06 59.13 59.80 60.60 61.35 61.72 62.10 63.13 65.77 65.40 65.79 65.92 65.75 65.18 65.00
64.38 63.76 62.86 61.17 59.64 59.35 59.15 59.62 60.51 60.83 60.99 59.67 59.13 58.95 59.65 59.22 59.47 59.99 59.80 60.31 60.62 61.02 61.91 61.96 61.00 61.13 63.63 64.67 64.96 65.44 65.08 64.30 64.07
63.89 62.58 61.32 60.86 60.42 60.57 60.65 61.16 60.43 61.19 61.16 58.77 57.37 55.90 57.67 58.26 58.88 59.04 58.93 58.23 59.23 59.17 59.14 59.90 61.01 60.02 58.58 59.36 60.43 61.70 62.62 63.14 63.43
61.82 61.09 61.09 61.55 61.94 61.40 60.78 61.60 61.56 60.17 60.81 59.98 58.00 54.32 53.16 56.12 57.51 57.10 57.04 56.72 56.84 56.41 56.40 57.54 57.30 57.11 57.28 57.52 56.74 57.75 59.48 61.36 62.51
61.69 61.68 61.68 62.16 62.31 61.87 62.24 62.98 62.28 61.51 60.15 61.02 61.08 60.00 57.91 53.56 53.53 55.66 55.34 55.82 55.69 54.97 55.00 54.88 55.43 55.06 54.02 54.67 55.22 56.38 57.90 60.61 62.20
62.65 62.38 62.08 62.92 63.34 63.03 63.29 62.12 61.74 61.11 59.95 60.09 59.64 58.52 57.50 57.91 54.45 51.11 53.10 54.57 54.80 55.11 54.70 54.05 53.09 52.63 52.14 51.68 53.61 55.75 57.40 59.53 60.73

GFSFLT1_sfc_wetblb_126.txt.gz
Wetbulb
73.79 73.13 72.77 72.34 72.32 72.15 71.12 71.11 70.16 69.85 70.39 69.95 69.42 68.61 67.68 65.64 63.03 63.31 65.58 63.70 68.22 68.40 67.98 67.66 67.35 68.22 67.39 66.92 68.29 66.80 66.52 66.60 66.82
73.40 72.69 72.48 72.26 71.89 71.04 70.45 70.33 69.14 68.96 69.45 69.39 68.84 67.92 66.43 62.66 62.14 62.48 63.17 64.49 68.61 68.27 67.87 67.65 67.51 67.21 66.86 66.75 66.82 66.94 67.69 67.69 67.17
73.04 72.67 72.28 71.82 71.22 70.59 69.44 69.75 68.47 68.51 68.50 69.35 68.40 67.54 65.98 63.52 62.58 62.96 63.59 68.02 68.24 68.03 67.45 67.40 66.84 66.69 66.71 66.35 66.02 66.28 66.12 66.00 66.30
72.33 72.21 71.98 71.67 70.92 70.00 69.52 68.97 67.83 68.24 67.92 68.73 68.10 66.86 65.56 62.42 62.94 64.04 63.78 68.31 67.84 67.63 67.01 67.11 66.79 66.39 66.29 65.87 65.96 66.01 65.64 65.75 66.37
71.35 70.27 70.50 70.76 70.36 69.79 68.98 68.00 67.81 68.18 68.01 68.15 67.51 66.21 64.99 62.20 63.01 63.51 64.83 67.92 67.66 67.31 66.78 66.59 66.37 65.97 66.03 65.62 65.31 65.53 65.37 65.25 65.25
69.15 68.11 68.59 69.08 69.27 69.02 68.29 68.01 67.93 67.00 65.90 66.34 65.47 63.83 62.01 61.94 62.94 63.77 67.90 67.99 67.61 67.04 66.57 66.19 65.91 65.64 65.36 65.18 64.92 65.01 64.87 64.74 64.73
68.37 66.50 67.37 68.59 68.37 68.27 68.28 67.68 66.76 63.78 60.33 60.90 63.00 60.78 61.28 62.03 62.75 64.09 68.05 67.70 67.70 67.06 66.31 65.81 65.52 65.12 64.90 64.84 64.53 64.65 64.49 64.34 64.44
67.21 66.32 66.33 65.61 64.70 65.22 65.55 64.34 60.73 58.65 58.67 59.30 59.76 59.94 60.53 61.62 62.86 65.22 67.74 67.86 67.54 67.04 66.37 65.77 65.34 64.86 64.54 64.26 63.85 63.68 63.53 63.38 63.34
66.87 66.02 64.53 63.93 63.38 62.74 61.65 60.29 59.72 58.83 59.17 59.09 59.70 59.79 60.74 61.53 62.67 64.03 66.18 67.88 67.35 67.10 66.47 66.00 65.52 65.02 64.39 64.01 63.42 62.96 62.62 62.56 62.54
66.04 65.33 64.45 63.87 62.68 61.79 60.45 60.13 60.49 60.49 60.88 60.44 58.96 59.87 60.65 61.68 62.61 62.57 64.04 66.55 67.54 66.97 66.80 66.31 65.79 65.27 64.72 64.01 63.40 62.80 62.43 61.95 61.66
65.34 64.64 63.90 63.46 63.36 62.28 61.03 60.31 60.46 60.50 59.08 58.79 59.24 59.70 60.81 61.35 62.00 62.34 63.03 65.41 66.87 67.46 67.03 66.87 66.43 65.84 65.44 64.84 64.13 63.47 62.92 62.35 61.86
64.97 64.19 63.68 63.52 63.28 62.12 60.92 60.37 59.63 58.19 58.33 57.83 57.92 58.76 59.92 60.94 61.37 62.01 62.29 63.78 64.28 66.74 67.51 67.54 67.30 66.98 66.72 66.41 65.84 65.13 64.58 64.04 63.25
64.62 63.92 63.43 63.39 62.83 61.39 60.49 58.86 57.86 57.40 58.41 57.48 56.72 56.41 56.77 58.57 60.60 61.26 61.81 62.65 63.58 64.61 67.11 67.86 68.23 68.15 68.07 67.89 67.50 67.09 66.29 65.66 64.94
64.30 63.81 63.31 62.92 62.65 61.08 60.12 56.93 57.39 57.61 58.78 60.10 59.13 59.17 58.72 58.94 59.00 59.25 60.76 61.27 62.16 62.11 63.40 64.51 65.45 66.35 67.14 67.22 67.27 66.57 66.07 65.99 65.98
63.94 63.52 63.04 63.11 61.96 59.33 57.40 56.95 58.18 59.32 60.03 60.65 59.76 58.96 58.86 58.96 58.78 58.03 58.56 59.06 61.11 60.66 60.68 60.55 61.32 62.77 64.92 65.17 65.93 65.75 65.69 65.18 64.82
63.90 63.50 63.29 63.07 60.39 60.02 58.30 57.29 59.08 59.50 60.16 58.53 57.85 58.17 58.85 58.36 58.85 59.54 59.35 59.79 60.14 60.40 60.64 60.81 59.87 60.68 63.74 64.41 64.25 64.74 64.79 64.70 64.65
63.85 63.17 62.80 61.85 60.06 58.49 58.16 59.45 59.34 60.07 60.17 58.05 57.02 55.31 56.88 57.78 58.75 58.54 58.68 57.70 58.57 58.11 57.98 59.08 59.51 58.42 57.62 58.33 60.01 61.35 62.54 62.73 62.93
63.97 63.30 62.72 60.88 60.53 59.37 59.34 60.31 60.59 59.55 59.77 59.68 57.40 53.33 52.78 55.89 57.39 56.85 56.15 55.83 55.95 55.52 55.79 56.47 56.59 56.21 55.59 56.90 55.79 58.21 59.89 61.83 62.91
63.88 62.86 61.83 60.85 60.96 60.00 60.39 61.57 61.49 60.89 59.31 59.60 60.51 58.66 57.38 54.05 53.99 55.34 54.91 55.13 55.12 54.06 54.46 54.39 54.69 54.29 53.33 54.48 55.46 56.54 58.21 60.57 61.84
61.87 61.54 61.27 61.12 61.44 61.39 61.69 61.81 61.97 61.14 60.22 59.24 58.92 57.71 57.37 57.04 54.11 50.59 52.58 53.68 54.03 54.21 53.94 53.24 52.42 51.95 51.36 51.15 53.44 55.79 57.17 59.08 60.51

GFSFLT1_sfc_wetblb_129.txt.gz
Wetbulb
73.30 72.85 72.63 72.50 72.39 72.10 71.56 69.96 69.75 70.32 71.67 69.42 68.82 68.62 67.57 65.33 62.71 63.15 65.09 64.92 67.87 68.23 67.72 67.44 68.07 67.06 68.08 67.67 67.30 66.84 66.63 66.70 68.15
73.04 72.77 72.45 72.35 72.02 71.35 70.97 69.44 69.24 69.23 70.33 69.16 68.42 67.70 65.94 62.14 61.74 62.12 62.55 64.98 68.11 67.67 67.51 67.39 67.27 67.00 67.03 66.57 66.81 67.08 68.07 66.90 66.82
72.58 72.53 72.26 71.83 71.15 70.82 70.23 69.06 68.84 69.53 69.92 68.75 67.93 66.90 65.60 63.07 62.19 62.67 63.26 67.95 67.87 67.80 67.18 66.78 66.82 66.49 66.70 66.15 66.47 66.15 66.29 66.91 66.40
72.44 72.26 71.90 71.25 70.76 70.66 69.74 68.84 68.64 69.15 69.27 68.41 67.41 66.49 65.22 62.01 62.49 63.61 63.40 68.08 67.56 67.33 66.87 66.34 66.53 66.31 66.10 66.14 66.02 65.64 66.19 66.45 65.64
71.57 70.51 70.57 70.63 70.45 70.20 69.62 69.04 68.78 68.68 69.38 67.97 67.18 66.09 64.77 61.52 62.50 63.19 64.39 67.80 67.46 67.00 66.59 66.39 66.19 65.74 65.59 65.42 65.27 65.17 65.08 65.58 65.37
69.05 68.31 69.18 69.87 69.85 69.25 68.54 68.95 68.67 67.71 67.50 67.34 66.17 64.06 61.49 61.39 62.51 63.28 67.78 67.72 67.43 66.95 66.38 66.05 65.73 65.70 65.25 64.99 65.08 64.90 64.70 64.27 64.10
67.92 66.59 67.57 69.05 68.54 68.25 68.42 68.51 67.31 63.31 60.96 62.59 63.83 61.17 60.67 61.59 62.37 63.62 67.88 67.51 67.26 66.76 66.12 65.75 65.31 65.09 64.92 64.59 64.71 64.47 64.01 63.92 64.22
66.75 66.15 66.09 64.94 64.39 64.54 65.22 64.25 60.76 58.75 58.33 59.09 59.78 59.95 59.96 60.72 62.42 65.12 67.59 67.63 67.21 66.65 66.12 65.58 65.08 64.71 64.45 64.04 63.83 63.58 63.23 63.03 63.29
65.51 65.15 63.53 62.78 62.19 61.79 60.96 59.22 58.13 57.67 58.31 58.70 59.18 59.57 60.19 60.73 62.11 63.68 66.20 67.81 67.18 66.83 66.30 65.64 65.21 64.61 64.20 63.69 63.18 62.72 62.40 62.28 62.36
65.63 64.29 63.35 61.93 61.25 60.57 59.03 57.90 58.09 57.93 58.59 58.81 59.21 59.71 59.98 60.89 62.12 62.40 63.96 66.61 67.66 66.94 66.45 66.01 65.51 65.09 64.50 63.83 63.19 62.69 62.31 61.82 61.55
65.47 64.27 62.98 62.00 61.52 60.04 58.95 58.08 58.59 59.42 59.94 59.76 58.19 59.47 60.28 60.78 61.49 61.83 62.61 65.30 66.82 67.35 66.92 66.63 66.29 65.91 65.43 64.88 64.14 63.51 63.15 62.62 62.05
65.24 63.90 62.67 62.14 61.57 60.23 59.35 59.14 59.51 58.99 57.56 57.17 57.99 59.14 59.84 60.45 60.91 61.28 61.68 63.22 64.13 66.50 67.26 67.30 67.25 66.97 66.84 66.56 65.93 65.36 64.83 64.26 63.65
64.77 63.42 62.16 62.25 61.89 61.00 59.58 59.09 58.37 57.33 56.81 56.08 55.89 57.61 59.05 59.77 60.06 60.84 61.18 61.84 63.02 64.03 66.45 67.65 67.85 67.78 67.65 67.56 67.44 67.14 66.60 65.76 65.24
64.72 63.61 62.57 62.33 61.88 60.97 60.36 57.53 57.24 56.21 57.22 56.88 56.70 56.75 55.93 57.12 60.29 59.83 60.14 60.73 61.77 61.76 62.89 63.47 64.43 65.65 66.49 66.90 66.76 66.41 65.64 65.72 65.52
65.00 63.71 62.68 62.33 61.59 60.06 58.55 56.82 56.98 57.51 58.72 59.65 58.75 58.02 57.91 57.94 57.50 56.84 58.98 59.59 60.61 60.56 60.31 59.93 60.19 62.41 64.32 64.88 65.98 66.10 65.68 65.15 64.54
64.52 63.59 62.55 61.97 61.23 60.14 59.15 56.47 57.77 58.03 59.08 57.78 57.18 57.75 58.24 57.79 57.72 58.55 58.41 58.69 58.97 59.90 59.95 59.87 59.11 60.44 63.10 63.63 64.17 64.85 65.03 64.90 64.57
64.38 63.27 62.27 61.70 61.20 59.23 58.13 57.68 58.22 58.97 59.48 57.53 56.48 54.79 56.37 57.23 57.77 57.84 58.27 57.59 58.09 57.51 57.38 58.43 58.34 57.34 56.83 57.78 59.94 61.59 62.81 63.20 63.36
64.59 63.72 62.98 61.67 61.43 59.48 58.36 58.56 59.38 58.30 58.84 58.99 57.20 53.05 52.73 54.87 56.28 56.01 56.22 56.13 55.85 55.03 55.35 55.75 55.85 55.24 54.90 55.93 55.99 58.33 60.13 62.07 62.45
64.55 63.58 62.83 61.89 61.40 59.64 58.88 59.56 60.31 60.17 59.41 58.63 59.63 58.03 56.47 53.71 53.24 54.92 54.66 55.10 54.79 53.95 53.80 53.46 53.86 53.58 52.75 54.36 55.47 56.76 58.48 60.19 61.12
64.29 63.59 62.51 61.43 61.17 60.02 59.33 59.70 60.86 61.23 60.18 58.56 58.10 57.08 56.79 56.01 53.38 51.43 52.98 54.18 53.67 53.30 52.84 52.32 51.66 51.47 50.95 50.75 53.21 55.64 57.25 58.71 60.16

GFSFLT1_sfc_wetblb_132.txt.gz
Wetbulb
73.08 73.37 73.11 72.80 72.66 72.08 70.44 70.23 70.85 71.65 69.89 69.07 68.79 68.50 67.49 65.26 62.61 62.71 64.95 64.50 68.65 67.48 68.56 67.27 67.54 67.91 67.48 68.54 68.42 67.46 67.94 67.44 66.81
73.50 73.02 72.73 72.37 72.40 71.28 70.01 69.75 70.84 70.89 69.84 68.92 68.60 67.68 65.83 61.72 61.24 61.70 63.16 64.71 68.15 67.96 67.18 67.22 67.04 67.47 67.38 66.40 67.02 67.15 67.28 66.72 65.87
72.90 72.64 72.42 72.10 71.81 70.90 69.65 69.34 69.64 69.81 69.16 68.44 67.79 66.76 65.24 62.65 61.86 62.39 64.02 67.41 68.09 67.38 67.03 66.87 66.95 66.90 66.37 66.59 66.38 66.87 67.01 66.30 65.90
72.47 72.31 72.10 71.73 71.53 70.70 70.11 69.35 70.18 69.49 68.77 68.07 67.26 66.31 64.89 61.59 62.30 63.29 63.04 66.66 67.66 67.10 66.42 66.46 66.52 66.28 66.38 65.81 65.79 65.96 66.36 66.02 65.53
71.76 70.73 70.76 71.16 71.02 70.25 69.79 69.64 70.50 69.50 68.63 67.65 66.96 65.97 64.44 61.24 62.18 62.88 63.97 67.81 66.98 66.94 66.60 66.48 66.08 65.90 65.65 65.47 65.39 65.23 65.37 65.44 64.97
69.11 68.26 68.85 69.78 70.31 69.84 69.63 69.40 69.61 68.99 67.63 67.30 66.07 63.81 60.98 61.08 62.10 62.90 67.67 67.55 67.33 66.93 66.40 66.01 66.07 65.70 65.31 65.23 65.09 64.85 64.65 64.94 64.92
68.47 67.03 67.96 69.47 69.13 68.68 69.18 68.44 67.93 64.91 62.88 63.23 63.60 60.67 60.20 61.25 61.89 63.04 67.76 67.25 67.15 66.76 66.22 65.76 65.48 65.28 64.80 64.77 64.73 64.46 64.24 64.48 64.51
67.12 66.90 66.92 65.77 64.73 64.52 65.59 64.36 60.06 59.49 60.03 60.39 59.74 59.52 59.54 60.49 61.92 64.48 67.59 67.61 67.08 66.59 66.02 65.56 65.12 64.82 64.51 64.08 63.96 63.65 63.43 63.32 63.63
66.19 65.61 64.04 63.52 62.47 61.81 61.03 59.60 58.10 57.80 58.26 58.84 58.76 58.98 59.71 59.97 61.48 62.89 66.00 67.78 67.10 66.68 66.22 65.61 65.01 64.59 64.17 63.76 63.25 62.91 62.62 62.41 62.35
65.76 64.66 63.50 62.25 61.01 60.52 58.84 57.63 56.90 56.86 57.65 58.43 59.16 59.26 59.36 59.99 61.23 61.75 63.80 66.51 67.60 66.81 66.39 65.92 65.52 65.03 64.36 63.80 63.16 62.72 62.46 62.03 61.66
65.57 64.22 62.74 61.31 61.27 59.42 58.14 57.26 56.91 57.44 58.27 58.39 58.30 59.05 59.44 59.91 60.49 61.08 61.83 65.11 66.76 67.29 66.88 66.64 66.27 65.88 65.57 65.03 64.36 63.77 63.41 63.12 62.64
65.48 63.71 62.57 61.59 60.45 58.84 57.49 57.14 57.87 58.42 58.50 58.30 57.26 58.74 59.12 59.77 60.17 60.45 60.74 62.30 63.96 66.24 67.18 67.25 67.24 67.19 67.12 66.88 66.35 65.93 65.33 64.89 64.27
65.50 64.04 62.38 61.24 60.17 59.10 57.76 57.46 57.44 57.86 56.28 55.85 56.40 57.90 59.04 59.20 59.23 60.04 60.55 61.13 62.32 63.53 65.87 66.95 67.65 67.32 67.07 67.24 67.35 66.78 66.76 66.34 65.80
65.37 64.20 62.40 61.38 60.41 59.19 58.53 56.79 57.27 55.96 55.53 55.50 55.08 56.08 57.68 58.72 60.10 59.21 59.72 60.21 61.10 61.17 62.37 62.88 63.30 64.51 65.83 66.06 66.42 65.84 65.67 65.45 65.32
65.22 63.87 62.05 61.53 60.17 58.78 58.24 56.91 56.35 56.39 56.63 57.16 56.65 56.47 55.82 56.25 56.70 57.82 59.65 59.76 60.10 60.33 59.90 59.22 59.51 62.03 64.04 64.79 65.68 65.81 65.76 65.18 64.90
65.18 64.27 62.69 61.35 59.95 59.16 58.90 56.53 56.61 56.59 57.92 56.71 56.17 56.80 57.32 57.01 57.03 57.36 56.92 57.62 58.46 58.98 59.21 58.87 58.55 60.28 63.06 63.82 64.40 64.82 65.53 65.17 63.89
65.32 64.32 62.91 61.55 60.02 58.82 58.34 56.80 56.44 56.99 58.60 56.45 55.49 54.13 56.00 56.34 57.02 57.23 57.96 57.60 57.61 57.15 57.30 57.86 57.50 56.69 56.56 57.79 60.40 62.05 63.06 63.29 62.89
65.24 64.36 63.52 62.41 60.85 59.06 58.34 57.67 58.07 56.75 57.90 57.61 56.39 52.11 52.33 53.91 55.44 55.43 56.10 56.04 55.52 54.92 55.07 55.56 55.53 54.91 54.67 55.37 55.99 58.77 60.67 61.84 62.00
64.91 64.33 63.60 62.72 61.79 60.33 58.66 58.61 58.68 57.99 57.68 57.15 58.24 56.83 55.72 53.24 52.63 54.45 54.28 54.59 54.33 53.97 53.70 53.64 53.57 52.98 52.50 54.33 55.62 57.15 58.54 60.09 60.54
65.04 64.60 63.72 62.77 62.22 61.16 60.00 58.40 58.36 59.72 59.23 58.43 57.16 55.94 55.73 54.89 53.67 51.63 52.50 53.25 53.69 53.51 53.45 52.43 51.59 51.14 50.87 50.64 53.40 55.73 57.13 58.65 59.65